GFSWCAN_850_dewp_114.txt.gz
Dewpoint
-2 -2 -2 -2 -2 -2 -3 -4 -5 -6 -12 -12 -6 -2 -3 -4 -5 -9 -8 -7 -7 -3 -2 -4 -5 -5 -5 -7 -8 -5 -5 -4 -4 -4 -2 -2 -0 -0 1 2 2 -0 1 1 2 1 1 -2 -1 -1 -1 -2 -3 -4
-2 -2 -2 -3 -3 -3 -3 -4 -5 -7 -12 -10 -3 -3 -3 -6 -10 -13 -10 -6 -6 -5 -3 -4 -5 -5 -9 -9 -7 -2 -3 -1 -3 -3 -3 -3 -1 -1 1 3 1 1 -1 0 -0 -1 -2 -2 -2 -2 -2 -2 -3 -4
-2 -2 -2 -2 -3 -3 -4 -5 -5 -5 -10 -7 -2 -3 -5 -7 -9 -12 -9 -7 -7 -4 -6 -5 -3 -6 -8 -8 -7 -3 -2 -2 -3 -3 -3 -4 -3 -2 1 1 1 1 -1 -1 -2 -2 -2 -3 -3 -3 -3 -2 -3 -4
-2 -2 -2 -2 -3 -4 -5 -5 -6 -6 -8 -7 -3 -3 -4 -6 -8 -10 -11 -9 -9 -5 -3 -3 -3 -4 -5 -5 -4 -4 -4 -2 -2 -3 -3 -5 -2 -2 0 0 -1 -1 -1 -1 -2 -2 -3 -4 -4 -4 -5 -5 -4 -4
-3 -3 -3 -3 -3 -5 -5 -5 -5 -6 -7 -9 -5 -4 -5 -7 -9 -9 -9 -8 -7 -7 -4 -4 -4 -3 -3 -3 -3 -2 -2 -3 -3 -4 -5 -4 -3 -2 -1 -2 -1 -1 -1 -0 -1 -3 -3 -4 -5 -4 -5 -6 -7 -7
-4 -3 -2 -2 -3 -4 -5 -5 -5 -5 -6 -9 -9 -6 -5 -7 -8 -8 -8 -6 -6 -5 -6 -4 -4 -2 -3 -3 -2 -2 -2 -3 -3 -3 -4 -4 -4 -3 -2 -2 -1 -2 -2 -2 -2 -2 -4 -5 -5 -7 -8 -8 -8 -9
-2 -3 -3 -4 -4 -5 -5 -5 -4 -4 -5 -7 -12 -9 -7 -7 -8 -14 -8 -6 -6 -7 -6 -5 -3 -2 -3 -3 -3 -3 -3 -3 -3 -3 -4 -3 -3 -2 -2 -2 -1 -2 -3 -3 -4 -4 -4 -4 -6 -8 -8 -8 -8 -9
-5 -4 -4 -5 -6 -6 -5 -5 -5 -5 -5 -7 -11 -13 -10 -8 -10 -5 -7 -5 -5 -6 -6 -5 -2 -2 -2 -4 -4 -2 -3 -2 -3 -4 -4 -4 -3 -2 -3 -1 -2 -3 -3 -3 -4 -3 -6 -6 -6 -7 -8 -8 -8 -8
-4 -4 -5 -6 -6 -6 -5 -5 -5 -5 -7 -10 -11 -8 -6 -5 -3 -2 -3 -4 -5 -6 -5 -5 -3 -1 -3 -4 -2 -2 -3 -5 -3 -5 -4 -3 -3 -2 -3 -1 -2 -2 -4 -5 -6 -6 -7 -7 -7 -7 -8 -8 -9 -10
-3 -4 -4 -6 -6 -7 -6 -6 -5 -5 -6 -12 -11 -15 -11 -2 -3 -3 -4 -5 -5 -5 -5 -5 -4 -2 -3 -3 -2 -2 -2 -4 -3 -3 -3 -2 -3 -4 -4 -3 -4 -4 -5 -6 -6 -7 -7 -7 -7 -8 -9 -11 -11 -11
-3 -3 -3 -6 -7 -8 -6 -6 -6 -6 -7 -9 -7 -6 -3 -3 -4 -4 -4 -5 -4 -5 -4 -5 -4 -2 -2 -4 -4 -4 -6 -5 -2 -2 -2 -4 -3 -5 -5 -5 -5 -4 -5 -5 -5 -4 -5 -6 -7 -8 -10 -11 -12 -12
-3 -3 -3 -4 -7 -8 -6 -5 -6 -6 -8 -7 -7 -3 -4 -4 -4 -5 -4 -5 -5 -4 -4 -4 -4 -3 -1 -1 -3 -3 -4 -5 -3 -2 -1 -5 -7 -5 -5 -5 -5 -6 -7 -7 -6 -5 -6 -7 -8 -10 -11 -12 -13 -13
-3 -3 -3 -4 -7 -7 -6 -6 -6 -8 -7 -7 -6 -4 -4 -3 -5 -5 -5 -4 -4 -4 -4 -2 -3 -2 -1 -2 -3 -2 -4 -6 -3 -4 -4 -7 -6 -6 -6 -7 -7 -7 -8 -8 -9 -9 -9 -9 -10 -12 -13 -13 -14 -14
-3 -4 -4 -5 -7 -7 -6 -5 -7 -6 -7 -6 -5 -5 -6 -5 -6 -7 -6 -7 -6 -4 -3 -2 -2 -4 -2 -4 -8 -7 -7 -2 -2 -5 -3 -9 -6 -6 -7 -7 -7 -8 -9 -10 -11 -10 -10 -11 -12 -13 -14 -14 -14 -14
-4 -4 -4 -5 -6 -7 -6 -6 -7 -8 -7 -5 -6 -5 -5 -5 -4 -4 -3 -2 -2 -3 -2 -3 -4 -4 -7 -5 -5 -3 -1 -4 -5 -6 -9 -6 -6 -7 -6 -7 -8 -9 -10 -11 -12 -12 -13 -13 -14 -14 -14 -15 -16 -16
-4 -4 -5 -5 -6 -7 -6 -6 -7 -8 -8 -5 -5 -5 -4 -3 -2 -2 -2 -2 -2 -3 -3 -4 -5 -7 -7 -7 -4 -5 -4 -5 -7 -10 -5 -5 -6 -6 -7 -8 -9 -9 -11 -12 -13 -13 -14 -14 -14 -15 -16 -17 -17 -16
-5 -4 -5 -5 -6 -6 -6 -6 -8 -9 -8 -6 -5 -4 -4 -5 -4 -2 -1 -1 -2 -3 -6 -5 -6 -6 -6 -6 -4 -5 -5 -9 -6 -5 -5 -6 -6 -6 -7 -8 -8 -11 -12 -13 -13 -14 -14 -14 -15 -15 -14 -14 -13 -14
-7 -6 -6 -6 -7 -6 -5 -6 -9 -9 -7 -6 -5 -4 -4 -3 -2 -2 -1 -1 -2 -3 -2 -4 -5 -5 -8 -6 -8 -10 -5 -6 -5 -5 -5 -6 -6 -7 -7 -8 -11 -12 -13 -13 -13 -14 -14 -15 -14 -14 -15 -14 -14 -14
-8 -7 -7 -7 -7 -8 -9 -8 -9 -7 -6 -5 -5 -4 -3 -3 -2 -2 -1 -1 -1 -2 -2 -3 -7 -7 -8 -7 -5 -5 -5 -5 -6 -6 -6 -6 -7 -7 -8 -11 -12 -13 -13 -13 -13 -14 -14 -14 -14 -14 -14 -13 -13 -13
-7 -7 -8 -8 -10 -9 -9 -8 -8 -6 -5 -5 -5 -4 -4 -3 -3 -3 -2 -2 -1 -2 -3 -6 -8 -4 -3 -3 -4 -4 -4 -5 -5 -6 -7 -7 -8 -9 -11 -12 -12 -13 -13 -13 -14 -14 -13 -13 -13 -13 -12 -12 -13 -13
-5 -6 -7 -9 -8 -7 -6 -7 -8 -6 -4 -5 -4 -4 -5 -5 -5 -5 -5 -4 -3 -1 -3 -3 -4 -4 -4 -4 -4 -4 -4 -5 -6 -7 -8 -8 -9 -10 -11 -11 -12 -12 -13 -13 -13 -14 -14 -13 -12 -12 -12 -13 -13 -14
-5 -6 -6 -7 -8 -7 -5 -5 -4 -4 -4 -4 -4 -4 -5 -4 -5 -5 -4 -4 -3 -5 -3 -4 -4 -4 -5 -5 -5 -5 -5 -6 -7 -7 -8 -9 -9 -11 -12 -12 -12 -13 -14 -14 -13 -12 -11 -11 -12 -12 -13 -13 -15 -15
-5 -6 -8 -8 -8 -6 -5 -4 -5 -4 -6 -4 -4 -5 -5 -4 -5 -5 -5 -6 -6 -5 -5 -4 -4 -4 -5 -5 -6 -7 -7 -8 -9 -9 -10 -10 -11 -12 -12 -12 -12 -13 -12 -12 -12 -12 -12 -12 -12 -13 -15 -16 -16 -18
-8 -9 -10 -8 -8 -7 -5 -4 -4 -4 -4 -5 -6 -6 -6 -4 -5 -5 -7 -6 -5 -5 -5 -5 -5 -5 -5 -5 -6 -7 -9 -10 -11 -12 -11 -12 -12 -11 -11 -11 -11 -11 -11 -11 -11 -11 -12 -14 -16 -17 -18 -20 -24 -29
-10 -7 -7 -8 -6 -6 -9 -9 -7 -6 -6 -7 -8 -8 -6 -6 -9 -9 -8 -7 -6 -5 -5 -5 -5 -5 -5 -6 -7 -8 -9 -8 -8 -12 -12 -12 -12 -11 -12 -12 -11 -11 -12 -12 -14 -17 -16 -17 -25 -29 -29 -30 -30 -28
-11 -7 -8 -8 -7 -7 -8 -9 -10 -9 -9 -7 -9 -6 -7 -9 -8 -8 -9 -7 -6 -5 -5 -5 -5 -5 -6 -6 -7 -7 -7 -7 -7 -9 -11 -12 -12 -11 -12 -12 -12 -13 -15 -17 -16 -16 -23 -31 -32 -31 -29 -28 -27 -27
-9 -10 -7 -6 -6 -5 -6 -6 -7 -9 -10 -9 -6 -8 -10 -10 -11 -10 -8 -7 -7 -6 -6 -5 -5 -6 -6 -6 -7 -7 -8 -8 -8 -9 -10 -10 -10 -10 -11 -13 -13 -15 -15 -15 -17 -27 -32 -30 -28 -28 -28 -27 -25 -23
-6 -6 -10 -7 -6 -6 -10 -11 -11 -11 -11 -8 -7 -10 -10 -10 -11 -8 -8 -8 -8 -6 -6 -6 -6 -6 -7 -7 -7 -8 -8 -9 -9 -9 -9 -10 -10 -11 -12 -13 -14 -15 -16 -24 -32 -30 -28 -28 -28 -27 -24 -22 -22 -25
-6 -6 -6 -7 -6 -6 -6 -8 -8 -7 -7 -6 -10 -12 -9 -9 -9 -9 -9 -8 -8 -8 -7 -7 -7 -7 -8 -8 -8 -8 -8 -9 -9 -10 -10 -12 -13 -14 -15 -19 -24 -29 -32 -32 -28 -28 -28 -27 -24 -23 -23 -25 -26 -28
-7 -7 -7 -7 -7 -7 -7 -7 -8 -8 -8 -8 -8 -9 -10 -10 -10 -10 -10 -8 -9 -8 -8 -8 -7 -7 -8 -9 -9 -9 -9 -10 -10 -11 -13 -15 -18 -26 -27 -28 -32 -32 -28 -28 -28 -27 -25 -23 -23 -24 -26 -28 -28 -28
-7 -7 -8 -9 -9 -9 -9 -9 -9 -10 -9 -9 -9 -9 -10 -10 -10 -10 -10 -9 -8 -8 -8 -9 -8 -8 -8 -9 -9 -9 -10 -10 -11 -12 -20 -23 -23 -25 -31 -32 -29 -28 -28 -27 -26 -23 -23 -24 -26 -27 -29 -29 -28 -28
-8 -8 -10 -12 -11 -10 -10 -10 -10 -10 -11 -10 -11 -11 -11 -11 -11 -11 -11 -10 -10 -9 -9 -9 -9 -9 -10 -10 -10 -10 -11 -11 -11 -17 -21 -22 -28 -33 -30 -28 -28 -28 -27 -23 -23 -25 -26 -27 -29 -29 -28 -28 -28 -28
-10 -10 -11 -11 -12 -11 -11 -10 -11 -11 -11 -11 -12 -12 -12 -12 -12 -12 -12 -11 -10 -10 -10 -10 -10 -11 -11 -11 -11 -11 -12 -16 -19 -21 -27 -32 -31 -28 -28 -28 -27 -24 -23 -26 -26 -27 -29 -30 -29 -28 -28 -28 -28 -28

GFSWCAN_850_dewp_117.txt.gz
Dewpoint
-2 -2 -2 -2 -2 -2 -2 -2 -2 -3 -3 -2 -2 -1 -2 -3 -4 -7 -7 -9 -10 -3 -3 -6 -7 -7 -7 -9 -6 -5 -4 -3 -4 -3 -3 -2 -0 -1 1 1 1 -1 1 0 1 2 1 -2 -0 -1 -2 -2 -4 -4
-2 -2 -2 -2 -2 -3 -3 -6 -4 -3 -3 -2 -1 -2 -2 -3 -6 -7 -7 -8 -8 -6 -3 -5 -7 -9 -13 -13 -6 -3 -4 -2 -3 -3 -2 -2 -1 -1 0 2 -1 0 -1 -1 -1 -1 -2 -2 -2 -2 -2 -3 -3 -4
-2 -2 -2 -2 -3 -4 -6 -6 -4 -2 -2 -2 -3 -4 -4 -6 -10 -11 -6 -7 -8 -4 -4 -6 -6 -7 -9 -9 -5 -3 -2 -3 -3 -3 -3 -1 -2 -2 1 0 1 -0 -1 -1 -1 -2 -2 -3 -3 -3 -3 -3 -4 -5
-2 -2 -2 -2 -3 -3 -4 -9 -5 -2 -2 -3 -4 -6 -9 -12 -11 -12 -7 -7 -7 -5 -2 -3 -4 -6 -6 -5 -6 -8 -5 -4 -4 -3 -3 -2 -2 -2 0 -1 -1 -1 -1 -2 -2 -3 -3 -4 -4 -4 -4 -4 -4 -5
-2 -3 -2 -3 -3 -4 -4 -5 -7 -3 -3 -3 -5 -7 -9 -10 -9 -9 -8 -7 -9 -8 -2 -3 -3 -3 -3 -3 -4 -3 -4 -5 -4 -4 -3 -3 -3 -2 -1 -2 -2 -1 -1 -1 -1 -3 -3 -4 -4 -4 -6 -7 -7 -7
-2 -2 -3 -3 -4 -4 -6 -7 -8 -5 -3 -4 -5 -8 -9 -9 -10 -11 -9 -6 -4 -4 -4 -2 -2 -2 -2 -2 -3 -3 -3 -4 -4 -4 -3 -4 -4 -3 -1 -2 -1 -2 -2 -2 -2 -3 -4 -5 -5 -7 -8 -8 -8 -9
-2 -2 -3 -3 -4 -5 -5 -6 -9 -7 -4 -4 -5 -8 -8 -9 -12 -15 -8 -5 -7 -7 -4 -3 -1 -2 -2 -2 -3 -4 -3 -4 -3 -3 -3 -3 -3 -2 -2 -2 -2 -3 -3 -3 -3 -4 -4 -6 -7 -8 -8 -8 -8 -8
-3 -3 -3 -4 -4 -5 -4 -5 -8 -10 -8 -5 -5 -7 -8 -14 -9 -4 -4 -7 -9 -8 -6 -2 -1 -1 -3 -5 -4 -3 -3 -3 -3 -4 -4 -4 -2 -3 -2 -2 -3 -3 -3 -3 -3 -3 -5 -5 -7 -7 -8 -8 -8 -9
-3 -4 -5 -6 -5 -4 -4 -5 -6 -10 -13 -10 -8 -9 -11 -11 -5 -3 -6 -8 -9 -8 -5 -4 -2 -1 -3 -4 -2 -2 -3 -3 -3 -3 -4 -3 -2 -2 -2 -2 -3 -3 -4 -6 -6 -6 -6 -6 -7 -8 -8 -8 -9 -10
-5 -6 -6 -5 -5 -5 -5 -7 -8 -9 -7 -8 -12 -12 -3 -3 -5 -6 -8 -8 -8 -6 -6 -4 -4 -1 -3 -3 -3 -3 -3 -3 -2 -2 -3 -1 -2 -4 -3 -2 -2 -3 -5 -6 -7 -7 -7 -7 -7 -7 -8 -10 -11 -11
-6 -6 -6 -5 -5 -5 -4 -7 -12 -8 -11 -12 -9 -3 -3 -4 -5 -5 -5 -5 -5 -4 -5 -5 -3 -1 -2 -2 -2 -4 -3 -3 -2 -1 -2 -2 -3 -4 -4 -4 -4 -4 -5 -6 -6 -5 -5 -6 -7 -7 -10 -11 -12 -12
-5 -6 -7 -7 -6 -5 -5 -6 -10 -11 -10 -6 -3 -3 -4 -5 -5 -5 -4 -5 -5 -4 -4 -4 -3 -1 -1 -2 -3 -3 -2 -4 -1 -2 -1 -2 -5 -5 -5 -5 -4 -4 -5 -5 -5 -5 -5 -6 -7 -10 -11 -12 -13 -13
-4 -6 -8 -8 -5 -5 -6 -7 -7 -9 -5 -7 -7 -5 -5 -4 -6 -6 -4 -4 -4 -4 -3 -3 -3 -2 -2 -3 -2 -2 -3 -3 -2 -2 -2 -4 -6 -5 -5 -4 -6 -7 -7 -8 -7 -7 -7 -8 -10 -12 -13 -13 -14 -14
-4 -4 -7 -7 -5 -5 -6 -7 -8 -7 -7 -6 -6 -5 -6 -6 -5 -6 -5 -5 -6 -4 -3 -3 -3 -3 -3 -4 -5 -3 -4 -2 -2 -2 -2 -5 -6 -5 -5 -6 -7 -7 -8 -9 -9 -9 -10 -11 -12 -13 -14 -14 -14 -15
-4 -5 -6 -6 -5 -6 -6 -6 -7 -8 -7 -6 -6 -4 -4 -4 -4 -4 -4 -3 -3 -3 -3 -3 -4 -4 -5 -4 -5 -3 -2 -3 -4 -3 -5 -6 -6 -6 -6 -7 -7 -8 -9 -11 -11 -11 -12 -13 -14 -14 -14 -15 -16 -17
-4 -4 -5 -7 -6 -5 -6 -7 -8 -9 -8 -6 -5 -5 -4 -4 -3 -2 -3 -3 -3 -3 -4 -4 -5 -5 -4 -5 -4 -4 -4 -4 -4 -6 -5 -6 -6 -6 -6 -7 -8 -9 -11 -12 -12 -13 -14 -14 -14 -15 -17 -18 -17 -16
-5 -4 -5 -7 -7 -7 -7 -9 -10 -9 -8 -6 -5 -4 -4 -4 -4 -3 -2 -2 -3 -3 -4 -5 -5 -5 -5 -4 -4 -5 -4 -5 -6 -6 -5 -6 -6 -6 -6 -8 -9 -9 -12 -13 -13 -14 -14 -14 -15 -16 -15 -14 -13 -13
-5 -4 -6 -7 -8 -8 -9 -10 -11 -10 -7 -5 -5 -4 -3 -3 -3 -2 -2 -2 -3 -3 -2 -3 -6 -5 -5 -4 -4 -7 -5 -6 -6 -5 -6 -6 -6 -6 -7 -8 -8 -11 -12 -13 -13 -14 -14 -14 -15 -13 -14 -15 -14 -14
-6 -6 -7 -8 -7 -9 -8 -9 -8 -6 -6 -5 -4 -4 -4 -3 -3 -2 -2 -2 -2 -2 -3 -3 -5 -4 -5 -7 -6 -5 -5 -5 -6 -6 -6 -6 -6 -7 -8 -8 -11 -12 -13 -13 -13 -13 -14 -14 -15 -15 -14 -13 -13 -13
-6 -7 -8 -9 -10 -11 -10 -10 -8 -6 -6 -6 -5 -4 -4 -3 -3 -3 -2 -1 -1 -2 -3 -4 -4 -5 -4 -3 -4 -4 -4 -5 -6 -6 -6 -6 -7 -7 -8 -10 -12 -13 -13 -13 -13 -14 -14 -14 -13 -13 -13 -12 -13 -13
-7 -7 -9 -10 -9 -9 -8 -10 -8 -6 -5 -5 -4 -4 -5 -5 -5 -5 -4 -3 -3 -2 -3 -3 -4 -4 -4 -5 -5 -5 -5 -5 -5 -6 -7 -7 -8 -9 -10 -12 -12 -13 -13 -13 -14 -13 -13 -13 -13 -12 -12 -13 -13 -14
-7 -8 -9 -9 -9 -9 -5 -5 -5 -5 -5 -5 -5 -5 -5 -5 -5 -5 -5 -4 -4 -4 -4 -4 -4 -4 -4 -5 -6 -5 -5 -5 -6 -7 -8 -8 -8 -9 -11 -12 -12 -12 -13 -13 -13 -13 -13 -12 -12 -12 -13 -13 -15 -17
-7 -7 -9 -10 -9 -7 -5 -5 -5 -5 -7 -5 -5 -5 -5 -4 -4 -5 -6 -6 -6 -5 -4 -4 -4 -4 -5 -5 -6 -6 -6 -7 -7 -8 -9 -9 -9 -11 -12 -12 -12 -13 -14 -13 -12 -12 -12 -12 -12 -13 -15 -17 -19 -23
-9 -10 -10 -9 -9 -7 -6 -5 -5 -5 -4 -5 -6 -6 -6 -5 -5 -6 -6 -6 -6 -5 -4 -4 -4 -5 -5 -5 -6 -7 -8 -9 -10 -12 -11 -10 -10 -11 -12 -12 -12 -12 -12 -12 -12 -12 -12 -14 -16 -17 -20 -25 -29 -29
-11 -9 -8 -9 -7 -6 -8 -8 -8 -7 -7 -7 -7 -7 -6 -5 -8 -8 -6 -8 -6 -5 -5 -4 -4 -5 -5 -5 -6 -8 -9 -9 -10 -13 -12 -12 -12 -12 -11 -11 -11 -11 -12 -12 -14 -16 -18 -17 -21 -28 -30 -29 -28 -27
-12 -7 -9 -9 -8 -8 -9 -8 -8 -10 -7 -5 -7 -7 -7 -9 -7 -7 -8 -7 -6 -6 -5 -5 -5 -5 -5 -6 -6 -8 -8 -8 -8 -11 -12 -12 -12 -13 -13 -13 -12 -12 -13 -16 -18 -16 -19 -28 -31 -30 -28 -28 -27 -24
-10 -11 -7 -7 -6 -6 -7 -7 -7 -9 -9 -7 -6 -7 -9 -7 -8 -10 -8 -8 -8 -7 -6 -5 -5 -6 -6 -6 -7 -7 -7 -7 -8 -10 -11 -12 -11 -10 -10 -11 -12 -13 -16 -16 -16 -22 -32 -30 -28 -28 -27 -24 -23 -24
-7 -7 -9 -7 -7 -6 -8 -9 -10 -10 -10 -8 -8 -8 -9 -9 -9 -8 -8 -8 -8 -7 -6 -6 -7 -7 -7 -7 -7 -7 -8 -8 -8 -9 -10 -10 -10 -10 -11 -12 -14 -15 -15 -18 -30 -31 -29 -28 -28 -25 -23 -24 -26 -28
-7 -6 -7 -7 -8 -8 -7 -8 -8 -7 -7 -7 -8 -10 -9 -8 -9 -9 -9 -8 -9 -8 -7 -7 -7 -7 -7 -8 -8 -8 -8 -8 -9 -9 -10 -10 -10 -11 -12 -13 -14 -19 -28 -32 -29 -28 -28 -25 -23 -24 -26 -28 -29 -29
-7 -6 -7 -7 -10 -9 -7 -6 -7 -7 -7 -7 -7 -8 -9 -9 -9 -9 -9 -9 -8 -8 -8 -8 -7 -7 -7 -8 -9 -9 -9 -9 -10 -10 -11 -12 -13 -16 -20 -24 -29 -32 -30 -29 -28 -27 -24 -24 -26 -27 -29 -29 -29 -29
-7 -6 -7 -8 -8 -8 -7 -7 -8 -9 -9 -9 -8 -9 -9 -9 -9 -10 -10 -10 -9 -9 -9 -8 -8 -8 -8 -9 -9 -9 -10 -10 -10 -11 -15 -20 -23 -26 -27 -32 -31 -29 -28 -28 -24 -24 -26 -26 -28 -30 -29 -29 -29 -29
-8 -8 -9 -11 -11 -10 -10 -10 -10 -10 -10 -10 -11 -10 -10 -10 -10 -10 -10 -10 -9 -9 -9 -9 -9 -9 -9 -10 -10 -10 -10 -10 -11 -12 -21 -22 -25 -32 -32 -29 -28 -28 -25 -24 -25 -26 -27 -29 -30 -29 -29 -29 -29 -29
-10 -9 -10 -10 -12 -11 -11 -10 -11 -11 -12 -12 -12 -12 -12 -11 -11 -11 -11 -11 -10 -10 -10 -10 -10 -10 -11 -11 -11 -11 -11 -11 -13 -18 -24 -31 -31 -29 -28 -28 -26 -24 -25 -26 -26 -29 -30 -30 -29 -29 -29 -29 -29 -28

GFSWCAN_850_dewp_123.txt.gz
Dewpoint
-4 -2 -2 -3 -2 -1 -1 -0 1 1 2 2 2 1 0 1 1 0 -0 -1 -1 1 0 -2 -2 -4 -4 -6 -4 -5 -4 -5 -6 -3 -4 -5 -3 -3 -1 -3 -2 -0 -0 1 -0 0 2 -2 0 2 -1 -3 -3 -4
-2 -2 -2 -2 -2 -1 -1 -1 -0 -0 0 0 0 -0 0 0 0 -1 -0 -1 -1 -2 -0 -1 -2 -4 -5 -7 -7 -5 -7 -7 -7 -5 -6 -7 -2 -1 -4 0 -4 -1 -3 0 -0 1 -3 -1 -0 -1 -1 -2 -3 -4
-2 -2 -3 -2 -2 -1 -1 -1 -1 -0 0 0 0 0 0 -0 -1 -1 -1 -0 -1 -1 -2 -2 -2 -4 -7 -5 -5 -6 -6 -4 -3 -1 -5 -4 -3 -5 -2 -2 -0 -2 -3 -0 -1 -3 -3 -2 -2 -2 -2 -2 -3 -5
-2 -3 -3 -3 -2 -2 -1 -1 -1 -0 -0 -0 0 -0 -1 -0 -1 -1 -2 -3 -3 -3 -2 -3 -2 -5 -4 -4 -4 -4 -3 -2 -2 -2 -3 -1 -3 -2 -1 -1 -0 -1 -3 -2 -1 -2 -2 -2 -3 -3 -3 -3 -5 -6
-3 -2 -2 -2 -2 -2 -1 -1 -1 -1 -1 -1 -2 -3 -2 -2 -1 -3 -4 -4 -5 -5 -3 -2 -2 -2 -3 -3 -3 -3 -3 -3 -4 -4 -2 -3 -3 -2 -2 -2 -1 -3 -1 -0 2 -2 -1 -2 -3 -4 -4 -4 -6 -7
-3 -2 -2 -2 -2 -1 -1 -1 -1 -1 -3 -5 -6 -4 -3 -3 -4 -5 -3 -3 -4 -5 -4 -2 -2 -2 -3 -3 -4 -4 -4 -5 -6 -6 -5 -4 -2 -2 -1 0 -2 -2 -1 -2 -1 -1 -3 -3 -4 -4 -5 -6 -7 -8
-3 -3 -2 -2 -2 -2 -2 -3 -5 -6 -7 -6 -5 -6 -6 -6 -5 -5 -4 -2 -3 -4 -4 -4 -2 -1 -3 -3 -4 -4 -3 -3 -6 -6 -6 -6 -4 -3 -2 -2 -2 -2 -2 -2 -2 -3 -4 -4 -4 -5 -7 -8 -8 -9
-3 -3 -2 -2 -4 -4 -5 -6 -7 -8 -7 -6 -6 -7 -9 -10 -7 -5 -6 -7 -3 -4 -4 -2 -1 -3 -2 -5 -4 -3 -4 -5 -4 -5 -5 -6 -4 -4 -2 -4 -2 -3 -3 -3 -3 -2 -4 -4 -7 -7 -8 -8 -9 -10
-3 -3 -3 -2 -4 -5 -5 -6 -7 -7 -7 -8 -9 -11 -10 -4 -4 -6 -8 -10 -9 -3 -3 -2 -2 -1 -3 -4 -4 -4 -5 -3 -4 -4 -6 -6 -3 -2 -3 -4 -3 -3 -3 -2 -3 -3 -5 -7 -7 -7 -8 -8 -10 -10
-4 -4 -6 -3 -3 -5 -6 -7 -10 -10 -8 -9 -11 -10 -5 -3 -9 -10 -4 -9 -2 -3 -3 -2 -4 -1 -5 -4 -3 -3 -4 -4 -3 -4 -5 -4 -3 -3 -5 -4 -4 -4 -4 -4 -4 -5 -6 -7 -7 -7 -7 -8 -8 -9
-5 -8 -7 -6 -4 -4 -5 -7 -10 -12 -16 -20 -5 -2 -5 -7 -4 -3 -1 -2 -3 -3 -4 -3 -4 -2 -4 -2 -2 -4 -3 -3 -2 -2 -2 -3 -3 -3 -4 -4 -4 -4 -5 -5 -5 -6 -6 -6 -6 -7 -8 -8 -9 -10
-4 -5 -8 -11 -9 -7 -6 -8 -11 -15 -16 -4 -6 -8 -7 -3 -3 -2 -2 -4 -5 -3 -4 -3 -4 -3 -1 -3 -3 -2 -3 -2 0 -3 -1 -2 -1 -3 -3 -3 -3 -5 -5 -5 -5 -5 -5 -5 -6 -8 -9 -10 -10 -12
-6 -8 -9 -8 -6 -9 -12 -15 -14 -9 -9 -7 -7 -7 -6 -5 -1 -2 -1 -3 -1 -2 -1 -1 -0 -2 -2 -1 -2 -3 -1 -0 -2 -1 -2 -1 -3 -4 -3 -3 -4 -4 -4 -4 -4 -5 -6 -6 -8 -9 -11 -13 -14 -15
-5 -6 -10 -10 -7 -10 -6 -7 -9 -10 -6 -3 -3 -3 -2 -2 -3 -3 -3 -2 -2 -2 -2 -2 -2 -2 -2 -1 0 -2 -2 -3 -1 -1 -2 -1 -3 -4 -4 -4 -4 -4 -5 -5 -6 -6 -7 -7 -9 -12 -14 -14 -15 -16
-5 -6 -7 -7 -8 -7 -7 -9 -11 -12 -6 -3 -4 -3 -3 -3 -2 -2 -3 -2 -1 -1 -2 -2 -2 -3 -2 -1 -2 -3 -1 -2 -3 -2 1 -1 -3 -4 -4 -4 -5 -6 -7 -7 -7 -7 -8 -11 -13 -14 -15 -16 -16 -18
-5 -7 -7 -8 -9 -9 -11 -11 -11 -8 -3 -4 -3 -2 -2 -1 -1 -2 -2 -1 -1 -1 -2 -3 -2 -0 -1 -2 -2 -1 -3 -3 -0 -0 -2 -3 -4 -4 -5 -5 -6 -7 -8 -8 -9 -10 -11 -13 -14 -15 -16 -17 -19 -20
-7 -4 -6 -8 -9 -10 -11 -12 -9 -5 -4 -4 -3 -3 -2 -2 -2 -2 -2 -1 -0 -1 1 -5 -1 -1 -4 -3 -2 -4 -0 1 -2 -3 -3 -4 -5 -5 -5 -6 -7 -8 -9 -10 -10 -11 -13 -14 -15 -16 -19 -19 -18 -16
-7 -8 -8 -11 -11 -12 -12 -9 -5 -4 -3 -3 -2 -3 -2 -2 -2 -2 -2 -1 -1 -2 -3 -3 -5 -3 -1 -2 -2 -1 -1 -4 -4 -4 -5 -5 -5 -5 -6 -7 -8 -9 -11 -11 -11 -13 -14 -15 -15 -13 -11 -13 -12 -11
-8 -9 -10 -12 -12 -12 -7 -7 -4 -4 -3 -3 -3 -3 -2 -2 -2 -2 -2 -1 -1 -2 -2 -3 -1 -3 -1 -2 -1 -1 -2 -3 -4 -5 -6 -6 -6 -6 -7 -7 -9 -10 -11 -12 -13 -12 -12 -12 -11 -11 -11 -12 -11 -11
-10 -10 -13 -15 -15 -9 -8 -7 -5 -5 -3 -4 -3 -3 -3 -2 -2 -2 -2 -2 -2 -3 -2 -2 -1 -1 -1 -1 -1 -1 -2 -3 -4 -5 -6 -7 -7 -7 -7 -8 -8 -9 -11 -12 -10 -10 -11 -11 -11 -11 -11 -11 -11 -11
-12 -14 -14 -16 -10 -6 -6 -7 -5 -5 -5 -4 -4 -5 -4 -3 -2 -1 -1 -1 -2 -3 -3 -1 -1 -3 -4 -5 -3 -3 -3 -4 -3 -4 -5 -6 -7 -7 -8 -8 -8 -9 -9 -9 -9 -10 -10 -10 -11 -11 -11 -11 -12 -12
-13 -14 -15 -14 -7 -5 -5 -5 -5 -5 -5 -5 -5 -5 -4 -3 -3 -3 -3 -2 -2 -1 -2 -2 -2 -4 -4 -4 -5 -4 -5 -5 -5 -5 -5 -6 -7 -7 -8 -8 -8 -8 -8 -8 -9 -9 -9 -9 -10 -11 -11 -12 -13 -14
-13 -13 -12 -8 -7 -5 -5 -4 -5 -7 -6 -6 -6 -5 -5 -5 -5 -4 -4 -4 -3 -4 -3 -3 -3 -3 -4 -5 -6 -6 -6 -6 -6 -6 -7 -6 -6 -7 -8 -8 -8 -8 -8 -9 -9 -10 -10 -10 -11 -12 -12 -13 -14 -15
-13 -12 -11 -6 -6 -5 -4 -5 -6 -7 -6 -7 -6 -5 -6 -5 -5 -5 -5 -4 -4 -4 -4 -4 -4 -4 -5 -5 -5 -6 -6 -6 -6 -6 -7 -7 -7 -8 -8 -8 -8 -9 -9 -10 -10 -10 -11 -11 -12 -13 -13 -14 -15 -15
-10 -9 -7 -6 -5 -6 -6 -6 -5 -7 -5 -6 -5 -5 -5 -5 -5 -4 -4 -4 -5 -5 -5 -5 -4 -4 -4 -4 -5 -7 -8 -8 -7 -7 -8 -7 -8 -8 -9 -9 -10 -10 -10 -10 -11 -11 -11 -12 -13 -14 -14 -15 -17 -23
-8 -7 -6 -7 -6 -6 -7 -6 -5 -5 -5 -5 -5 -5 -5 -5 -4 -3 -6 -5 -6 -6 -6 -5 -5 -5 -5 -5 -5 -7 -8 -8 -8 -8 -8 -8 -8 -8 -9 -10 -11 -11 -11 -11 -11 -12 -13 -14 -15 -21 -28 -27 -27 -25
-8 -6 -7 -6 -6 -6 -5 -5 -6 -6 -5 -5 -5 -5 -5 -4 -4 -5 -6 -7 -7 -8 -7 -6 -6 -6 -5 -7 -6 -7 -8 -8 -8 -9 -9 -9 -9 -10 -9 -9 -10 -11 -11 -11 -12 -13 -14 -19 -27 -28 -28 -27 -24 -25
-7 -6 -6 -6 -6 -6 -5 -5 -5 -5 -5 -6 -5 -4 -4 -5 -4 -6 -7 -8 -8 -7 -6 -6 -6 -7 -7 -7 -7 -7 -8 -8 -9 -11 -12 -12 -12 -11 -11 -11 -11 -12 -13 -16 -16 -18 -28 -30 -28 -28 -25 -25 -27 -30
-6 -6 -6 -7 -7 -6 -6 -6 -6 -6 -6 -6 -5 -5 -5 -7 -8 -8 -8 -8 -8 -7 -7 -7 -6 -7 -7 -7 -7 -7 -8 -8 -9 -10 -10 -11 -10 -11 -11 -13 -14 -15 -16 -16 -26 -31 -29 -28 -25 -25 -27 -30 -30 -30
-6 -6 -7 -6 -7 -7 -5 -5 -5 -6 -7 -7 -7 -7 -7 -8 -8 -9 -9 -9 -8 -8 -8 -7 -7 -7 -7 -8 -8 -8 -9 -9 -10 -9 -9 -10 -11 -11 -11 -12 -13 -15 -22 -31 -29 -28 -26 -25 -27 -29 -31 -30 -30 -30
-6 -6 -6 -6 -7 -6 -7 -7 -7 -7 -8 -7 -8 -7 -6 -7 -8 -8 -9 -9 -9 -9 -8 -8 -8 -8 -8 -9 -9 -9 -9 -9 -10 -10 -10 -10 -10 -11 -13 -14 -20 -30 -30 -29 -27 -25 -26 -27 -30 -31 -30 -30 -30 -30
-6 -7 -7 -7 -7 -8 -8 -7 -6 -7 -7 -8 -7 -9 -9 -8 -7 -9 -10 -9 -9 -9 -10 -10 -9 -9 -9 -10 -10 -10 -10 -10 -10 -11 -12 -12 -13 -17 -23 -29 -31 -29 -28 -25 -26 -26 -28 -30 -30 -30 -30 -30 -30 -29
-7 -7 -7 -7 -7 -7 -8 -8 -8 -8 -9 -9 -9 -9 -9 -8 -8 -12 -11 -11 -11 -11 -11 -11 -10 -10 -10 -10 -10 -10 -10 -10 -11 -12 -19 -22 -24 -28 -32 -29 -29 -26 -25 -26 -27 -29 -30 -30 -30 -30 -30 -29 -29 -29

GFSWCAN_850_dewp_126.txt.gz
Dewpoint
-6 -6 -7 -8 -8 -8 -4 -2 -1 -0 -0 -1 -1 -0 1 -0 -0 -0 0 1 1 -1 -2 -3 -3 -4 -2 -2 0 -1 -2 -3 -2 -2 -6 -5 -2 -2 -3 -2 -0 2 1 3 2 2 3 -2 -1 2 -0 -3 -3 -3
-5 -6 -7 -6 -6 -2 -2 -1 0 1 2 1 2 2 2 2 0 -0 1 0 0 -0 1 -0 -1 -2 -2 -2 -4 -3 -4 -5 -5 -4 -4 -4 -1 0 -3 2 -3 2 -1 4 1 1 -2 -1 1 -0 -2 -1 -2 -3
-5 -5 -6 -3 -2 -2 -1 -0 1 1 0 2 3 4 4 3 2 0 1 1 2 0 -0 -0 -1 -2 -3 -4 -4 -4 -4 -6 -7 -4 -2 0 -1 -4 1 -1 -2 -2 -3 1 -0 -2 -2 -1 -1 -1 -1 -2 -2 -3
-7 -3 -2 -2 -2 -1 -1 -0 0 -0 -0 -0 2 3 3 2 0 1 2 1 -0 -1 0 -0 -0 -2 -2 -2 -3 -5 -5 -4 -3 -1 -2 -0 1 -2 2 0 1 -2 -3 -1 0 -2 -3 -1 -2 -2 -2 -3 -3 -3
-2 -2 -2 -2 -2 -1 -0 -0 0 0 0 0 0 0 0 1 1 1 -0 -1 -3 -3 -0 0 -0 -1 -3 -3 -2 -4 -4 -2 -2 -3 -0 -1 -2 -2 -2 -1 -1 -3 -1 -0 2 -2 -2 -2 -3 -3 -3 -4 -4 -5
-2 -2 -3 -2 -2 -2 -1 -0 -0 0 1 0 0 -0 -1 -1 -2 -2 0 -2 -2 -4 -1 1 -1 -3 -3 -3 -3 -2 -3 -4 -5 -6 -2 -2 -1 -1 -0 0 -1 -2 -1 -1 -1 -1 -3 -3 -3 -4 -4 -4 -5 -6
-2 -2 -2 -2 -2 -1 -1 -1 -1 -1 -0 -0 -0 -1 -2 -1 -2 -3 -1 -0 -2 -3 -3 -1 1 -3 -3 -3 -3 -4 -4 -5 -6 -5 -6 -5 -3 -3 -0 -1 -1 -2 -2 -1 -2 -3 -3 -3 -4 -4 -4 -6 -8 -9
-2 -2 -2 -1 -2 -2 -2 -2 -2 -2 -2 -2 -1 -1 -2 -3 -3 -3 -3 -4 -4 -6 -5 -1 -1 -3 -4 -4 -4 -4 -4 -4 -4 -5 -5 -5 -4 -3 -1 -2 -2 -2 -2 -2 -3 -3 -3 -3 -4 -6 -7 -9 -9 -10
-2 -2 -2 -2 -3 -4 -5 -5 -3 -3 -3 -3 -2 -2 -3 -4 -3 -2 -3 -3 -2 -2 -2 -1 -1 -1 -2 -4 -4 -5 -5 -1 -4 -3 -5 -5 -2 -1 -2 -3 -3 -3 -3 -3 -2 -3 -4 -6 -7 -7 -8 -9 -10 -10
-3 -4 -5 -5 -5 -5 -5 -5 -6 -6 -6 -6 -5 -9 -4 -5 -7 -7 -4 -5 -1 -3 -4 -1 -4 -1 -3 -4 -3 -3 -4 -2 -2 -3 -5 -2 0 -4 -5 -3 -3 -3 -3 -3 -3 -5 -6 -6 -7 -7 -7 -9 -9 -10
-3 -5 -6 -7 -7 -7 -7 -6 -8 -9 -10 -13 -7 -4 -5 -4 -3 -3 -1 -1 -3 -2 -2 -3 -4 -3 -4 -1 -1 -4 -1 -2 -2 -2 -3 -2 -1 -3 -4 -3 -3 -3 -3 -4 -4 -4 -5 -6 -7 -7 -7 -8 -8 -9
-3 -3 -4 -5 -9 -9 -8 -9 -11 -15 -12 -3 -6 -4 -3 -2 -3 -1 -2 -3 -4 -3 -3 -2 -3 -2 -1 -4 -2 -2 -2 -1 1 -3 -1 -2 -0 -4 -3 -3 -4 -5 -5 -5 -5 -5 -6 -6 -6 -6 -8 -8 -9 -11
-10 -7 -7 -9 -9 -9 -12 -15 -9 -5 -5 -7 -12 -8 -5 -3 -0 1 -1 -2 -1 -1 -1 -1 -0 -2 -2 -0 -0 -1 -1 0 -2 -0 -2 1 -3 -3 -3 -3 -5 -5 -5 -5 -5 -5 -5 -6 -6 -8 -9 -10 -12 -14
-8 -8 -9 -7 -9 -11 -9 -7 -6 -6 -11 -3 -2 -2 -1 -2 -2 0 -0 -0 -1 -1 -1 -1 -1 -2 -2 -1 1 -1 -1 -2 -1 -1 -1 -0 -3 -3 -3 -4 -4 -4 -4 -4 -5 -5 -5 -6 -7 -8 -10 -13 -14 -16
-8 -8 -10 -8 -7 -10 -10 -12 -15 -11 -4 -3 -4 -3 -2 -3 -2 -1 -2 -1 -1 -1 -1 -1 -1 -2 -1 -1 -1 -3 -2 -2 -3 -1 1 -1 -3 -4 -4 -4 -4 -4 -4 -5 -5 -6 -6 -7 -8 -11 -13 -14 -16 -17
-8 -10 -9 -9 -9 -11 -12 -12 -13 -9 -3 -4 -2 -1 -3 -2 -1 -1 0 -0 -1 -1 -2 -3 -2 -0 -1 -1 -2 -1 -3 -3 1 -1 -2 -3 -3 -4 -4 -4 -4 -5 -6 -6 -7 -7 -7 -9 -12 -14 -15 -16 -17 -19
-10 -8 -10 -10 -11 -12 -13 -10 -5 -4 -4 -4 -2 -2 -1 -2 -2 -1 -1 -0 -0 -0 1 -3 -0 -1 -3 -2 -3 -2 1 -1 -2 -3 -3 -3 -4 -4 -4 -5 -5 -6 -7 -8 -8 -9 -11 -13 -14 -15 -16 -17 -20 -20
-6 -10 -11 -11 -11 -12 -7 -4 -4 -4 -3 -2 -2 -2 -2 -2 -1 -1 -1 0 -1 -2 -3 -4 -5 -3 -1 -2 -0 -0 -2 -3 -4 -4 -4 -4 -4 -5 -5 -5 -6 -7 -8 -9 -10 -11 -13 -14 -15 -15 -17 -20 -15 -13
-11 -13 -13 -12 -13 -7 -6 -5 -4 -4 -2 -3 -2 -2 -2 -2 -2 -1 -1 -1 -1 -2 -2 -4 -1 -1 0 -0 -1 -2 -3 -3 -4 -5 -5 -5 -5 -6 -6 -7 -7 -8 -10 -10 -11 -12 -13 -14 -12 -11 -10 -12 -11 -11
-14 -15 -15 -14 -11 -8 -7 -5 -4 -4 -4 -3 -2 -2 -2 -2 -2 -2 -1 -3 -2 -3 -2 -1 -0 -0 -1 -2 -2 -2 -3 -3 -5 -6 -6 -6 -6 -6 -7 -7 -8 -9 -10 -10 -10 -10 -11 -10 -10 -10 -11 -11 -9 -10
-16 -16 -16 -15 -7 -5 -5 -5 -5 -5 -4 -4 -3 -2 -2 -2 -1 -1 -2 -2 -2 -2 -1 -1 -2 -2 -2 -2 -2 -3 -3 -3 -4 -4 -5 -6 -7 -7 -7 -7 -7 -9 -9 -9 -9 -9 -10 -10 -10 -10 -11 -11 -10 -11
-15 -15 -14 -14 -5 -5 -5 -4 -5 -5 -5 -4 -4 -4 -2 -2 -3 -3 -2 -2 -1 -2 -1 -1 -2 -3 -3 -4 -3 -3 -3 -4 -4 -4 -5 -6 -6 -7 -7 -7 -8 -8 -8 -9 -9 -9 -9 -9 -9 -9 -10 -11 -12 -13
-16 -15 -10 -6 -6 -6 -5 -5 -6 -7 -5 -5 -5 -5 -5 -4 -5 -4 -4 -2 -3 -3 -3 -3 -3 -3 -5 -5 -5 -5 -5 -5 -5 -5 -5 -6 -6 -7 -7 -8 -8 -8 -8 -9 -8 -10 -9 -9 -10 -10 -11 -12 -13 -15
-15 -13 -10 -5 -6 -5 -5 -5 -7 -7 -6 -6 -6 -5 -5 -5 -5 -5 -3 -2 -4 -4 -4 -4 -4 -4 -4 -5 -5 -5 -5 -5 -5 -6 -6 -6 -7 -7 -8 -8 -8 -8 -8 -9 -9 -9 -9 -10 -11 -12 -12 -13 -13 -13
-10 -8 -5 -6 -6 -7 -6 -6 -5 -7 -6 -6 -6 -6 -5 -5 -5 -5 -3 -3 -5 -5 -5 -4 -4 -4 -5 -5 -5 -6 -7 -6 -6 -6 -6 -7 -7 -8 -8 -8 -8 -8 -8 -9 -10 -10 -11 -11 -12 -12 -13 -13 -15 -16
-6 -6 -6 -7 -6 -7 -8 -6 -5 -5 -6 -5 -5 -5 -5 -5 -5 -3 -4 -5 -6 -6 -5 -5 -5 -5 -5 -5 -6 -7 -7 -7 -7 -7 -7 -8 -8 -9 -9 -9 -10 -10 -10 -10 -11 -11 -12 -12 -13 -14 -16 -17 -22 -24
-7 -6 -7 -6 -7 -7 -6 -6 -7 -6 -5 -5 -4 -5 -5 -4 -3 -4 -6 -6 -6 -7 -6 -6 -6 -5 -6 -6 -6 -7 -8 -7 -7 -8 -8 -9 -9 -8 -9 -10 -10 -11 -11 -11 -11 -12 -12 -13 -16 -21 -27 -27 -27 -24
-7 -7 -6 -6 -6 -6 -6 -6 -6 -6 -5 -6 -6 -5 -4 -4 -4 -6 -7 -8 -7 -8 -6 -6 -6 -6 -6 -7 -7 -7 -8 -8 -8 -9 -10 -10 -10 -10 -10 -9 -10 -11 -12 -12 -12 -13 -14 -19 -25 -27 -28 -25 -25 -28
-6 -6 -6 -6 -6 -6 -6 -6 -6 -6 -6 -6 -5 -4 -6 -5 -6 -7 -8 -8 -7 -8 -7 -6 -6 -7 -7 -7 -7 -8 -8 -8 -9 -10 -10 -11 -11 -10 -10 -10 -11 -12 -14 -16 -17 -20 -29 -29 -28 -25 -26 -27 -30 -31
-6 -6 -7 -7 -6 -6 -4 -5 -5 -6 -6 -6 -5 -7 -6 -7 -8 -8 -8 -8 -7 -7 -7 -7 -7 -7 -7 -8 -8 -9 -9 -9 -9 -9 -9 -10 -11 -11 -11 -12 -12 -14 -15 -19 -30 -30 -29 -26 -26 -27 -30 -31 -31 -31
-6 -6 -7 -8 -7 -5 -6 -7 -7 -7 -7 -6 -6 -6 -5 -7 -7 -8 -8 -8 -8 -8 -8 -8 -8 -9 -9 -9 -8 -9 -9 -9 -9 -9 -9 -9 -10 -11 -11 -12 -13 -17 -28 -30 -29 -27 -26 -27 -29 -31 -31 -30 -30 -30
-6 -7 -7 -7 -6 -6 -7 -7 -6 -6 -6 -6 -6 -7 -7 -7 -6 -10 -9 -9 -9 -9 -9 -9 -9 -9 -9 -9 -9 -9 -9 -10 -10 -10 -10 -11 -11 -11 -13 -17 -27 -31 -29 -28 -25 -26 -27 -30 -31 -31 -30 -30 -30 -30
-6 -6 -7 -7 -7 -7 -6 -6 -7 -7 -7 -8 -7 -7 -7 -7 -8 -11 -11 -11 -11 -10 -10 -10 -10 -10 -10 -10 -10 -10 -10 -10 -10 -11 -12 -12 -15 -21 -27 -31 -30 -28 -26 -26 -27 -28 -30 -31 -30 -30 -30 -30 -29 -29

GFSWCAN_850_dewp_132.txt.gz
Dewpoint
-7 -7 -8 -8 -8 -8 -7 -7 -8 -7 -6 -4 -4 -4 -4 -6 -7 -4 -3 -2 -1 -0 -1 -3 -4 -2 -2 -3 -1 -1 -0 -0 1 2 2 0 -1 -3 -4 -4 -3 -2 -1 0 1 2 1 -1 -2 0 -2 -3 -3 -4
-6 -6 -6 -8 -8 -7 -7 -7 -7 -8 -7 -6 -5 -5 -5 -7 -10 -5 -3 -2 -2 -1 -0 -2 -2 -3 -3 -3 -1 -1 -1 -0 0 -0 -0 -3 -2 -1 -4 -1 1 1 -0 2 1 0 -1 -0 -0 -1 -3 -3 -3 -4
-8 -7 -6 -6 -5 -6 -6 -7 -7 -7 -9 -7 -6 -6 -6 -6 -7 -7 -4 -3 -2 -1 -1 -1 -1 -1 -3 -2 -1 0 1 -2 -2 -3 -2 -0 -4 -4 -0 1 3 3 -1 -0 -1 -1 -1 -0 -1 -2 -3 -3 -3 -3
-5 -5 -6 -6 -6 -6 -6 -6 -8 -8 -8 -8 -8 -8 -7 -7 -7 -9 -8 -5 -2 -1 -1 -1 -3 -5 -2 -1 -3 -1 -0 -2 -5 -5 -2 -1 0 -0 1 1 0 -0 -1 -1 -1 -1 -1 -1 -1 -1 -2 -3 -4 -4
-3 -3 -4 -5 -5 -5 -5 -5 -6 -8 -7 -7 -7 -7 -7 -7 -8 -11 -7 -4 -2 -2 -1 -1 -1 -1 -1 -2 -0 0 1 -3 -5 -1 0 0 -2 -0 -1 -1 -0 -1 -1 -2 -1 -2 -3 -2 -2 -2 -3 -3 -4 -5
-7 -4 -3 -3 -3 -4 -4 -5 -5 -5 -5 -5 -5 -6 -6 -6 -6 -4 -1 -2 -3 -0 -1 0 -1 -0 -1 -1 -1 -2 -2 -3 -2 -1 -2 -2 -1 -1 -0 -0 -1 -1 -2 -3 -2 -3 -3 -2 -2 -4 -3 -3 -4 -5
-6 -6 -6 -7 -6 -4 -3 -2 -1 -1 -1 -1 -2 -3 -4 -4 -4 -2 -2 -2 -4 -1 -1 -0 -0 0 1 0 -1 -1 -2 -1 0 -1 -2 -2 -1 -2 -1 1 -1 -1 -2 -2 -3 -3 -3 -3 -3 -3 -4 -4 -4 -5
-3 -3 -3 -1 -1 -1 -1 -1 0 2 2 0 -1 -0 -1 -2 -2 -1 -2 -3 -3 -1 0 0 0 0 0 0 -0 -2 -2 -1 -2 -4 -3 -2 -2 -2 -1 -1 -1 -1 -2 -2 -3 -3 -4 -3 -4 -4 -4 -4 -6 -6
-2 -2 -2 -1 -1 -1 -0 -1 -0 2 3 2 1 0 -0 -1 -0 -1 -2 -1 -1 -0 -0 -0 0 0 -1 -3 -3 -4 -4 -1 -4 -3 -3 -3 -2 -1 -2 -1 -1 -2 -3 -3 -3 -3 -3 -3 -4 -4 -5 -6 -8 -7
-2 -2 -1 -1 -1 -1 -1 -1 -1 -0 1 1 1 -0 -1 -1 -0 -0 0 0 -0 -0 -1 -2 -2 -1 -3 -3 -2 -3 -3 -2 -1 -2 -4 -1 -1 -2 -2 -2 -2 -2 -3 -3 -3 -3 -4 -4 -4 -5 -7 -8 -8 -9
-2 -2 -1 -1 -1 -2 -5 -3 -1 -1 -0 -1 -0 -0 0 0 -0 -1 -1 -0 -0 0 -1 -3 -3 -2 -3 -2 -1 -3 -2 -2 -1 -1 -2 -2 0 -2 -2 -2 -2 -3 -4 -4 -4 -4 -4 -4 -5 -7 -8 -9 -9 -10
-3 -4 -3 -2 -5 -8 -8 -9 -4 -3 -2 -1 -0 -0 -0 -3 -3 -2 -2 -2 -2 0 -2 -2 -3 -4 -4 -4 -2 -2 -2 -2 -1 -3 -3 -2 -3 -2 -3 -3 -3 -3 -3 -3 -3 -4 -4 -6 -7 -8 -9 -9 -10 -10
-4 -7 -7 -7 -8 -8 -3 -3 -4 -4 -6 -9 -10 -6 -5 -4 -3 -4 -2 -1 0 -2 -3 -3 -2 -2 -2 -3 -3 -3 -3 -2 -3 -4 -2 -2 -2 -2 -3 -3 -3 -3 -3 -4 -4 -5 -6 -7 -7 -8 -8 -9 -9 -10
-6 -10 -9 -6 -7 -5 -4 -7 -11 -15 -15 -6 -5 -4 -3 -3 -1 -0 -1 -1 -1 -2 -3 -2 -2 -2 -2 -3 -5 -3 -3 -2 -2 -3 -1 -3 -2 -3 -3 -3 -2 -3 -4 -4 -5 -6 -6 -6 -7 -7 -7 -8 -8 -9
-12 -14 -11 -8 -7 -6 -8 -12 -17 -18 -6 -4 -4 -2 -3 -2 -1 -1 -0 -1 -1 -2 -3 -3 -2 -3 -3 -2 -2 -3 -1 -2 -2 -2 -2 -2 -3 -3 -4 -3 -4 -5 -6 -6 -6 -6 -6 -6 -6 -6 -7 -8 -9 -12
-13 -14 -11 -11 -15 -14 -15 -18 -15 -8 -4 -3 -2 -3 -2 -1 -0 -0 -1 -1 -3 -4 -4 -3 -2 -3 -3 -3 -2 -4 -2 -2 -3 -2 -2 -3 -3 -4 -4 -5 -5 -5 -6 -6 -5 -5 -5 -5 -5 -6 -8 -10 -12 -15
-14 -9 -9 -14 -18 -19 -17 -14 -6 -4 -3 -3 -2 -2 -2 -1 -1 -0 -1 -1 -3 -4 -3 -3 -3 -2 -3 -2 -1 -1 -2 -2 -2 -2 -2 -3 -3 -4 -5 -5 -5 -5 -5 -5 -5 -5 -5 -6 -7 -8 -9 -12 -15 -17
-12 -12 -11 -12 -16 -17 -11 -6 -5 -4 -2 -3 -3 -2 -2 -1 -0 -0 -1 -2 -3 -3 -5 -4 -3 -3 -4 -1 -1 -2 -3 -3 -3 -2 -3 -3 -4 -4 -5 -5 -5 -5 -5 -4 -5 -5 -6 -7 -7 -9 -13 -15 -17 -18
-14 -14 -15 -16 -18 -11 -6 -5 -5 -3 -3 -2 -2 -2 -1 -1 -1 -2 -2 -3 -3 -3 -3 -2 -2 -1 -1 -2 -3 -3 -4 -4 -4 -3 -3 -4 -4 -4 -5 -5 -4 -5 -4 -5 -7 -7 -7 -8 -10 -13 -15 -17 -18 -20
-14 -15 -16 -14 -14 -8 -6 -5 -4 -3 -3 -2 -2 -2 -1 -1 -2 -3 -3 -3 -3 -3 -2 -2 -2 -2 -3 -4 -4 -4 -4 -4 -4 -4 -4 -4 -5 -5 -5 -5 -5 -6 -6 -8 -9 -9 -11 -12 -14 -15 -16 -19 -19 -14
-16 -12 -12 -14 -8 -6 -5 -5 -3 -3 -3 -2 -2 -2 -3 -4 -3 -3 -3 -3 -2 -2 -2 -2 -3 -3 -3 -3 -3 -4 -4 -5 -5 -5 -5 -5 -5 -5 -6 -6 -7 -7 -8 -10 -10 -11 -13 -14 -12 -11 -12 -13 -12 -11
-16 -16 -14 -10 -7 -6 -5 -5 -5 -4 -4 -3 -3 -3 -3 -4 -4 -4 -3 -4 -3 -3 -3 -3 -3 -3 -4 -4 -4 -4 -4 -4 -5 -5 -5 -5 -6 -6 -7 -7 -7 -8 -10 -10 -11 -12 -12 -10 -10 -10 -10 -11 -10 -10
-17 -16 -13 -11 -9 -8 -7 -6 -7 -6 -6 -5 -5 -5 -5 -5 -5 -4 -3 -3 -3 -3 -3 -3 -3 -3 -4 -4 -4 -4 -4 -4 -4 -5 -6 -6 -6 -7 -7 -7 -7 -9 -10 -10 -10 -11 -11 -9 -9 -10 -10 -10 -10 -11
-14 -9 -8 -6 -7 -6 -6 -6 -7 -6 -6 -5 -5 -6 -6 -5 -5 -4 -4 -4 -4 -4 -4 -4 -5 -5 -5 -5 -5 -5 -5 -5 -6 -6 -6 -7 -7 -7 -7 -8 -8 -8 -9 -9 -9 -9 -10 -9 -9 -9 -10 -10 -11 -12
-11 -7 -7 -10 -6 -9 -11 -10 -9 -7 -8 -7 -7 -7 -7 -5 -6 -4 -5 -5 -5 -4 -4 -4 -4 -5 -6 -6 -6 -6 -6 -6 -6 -6 -7 -7 -7 -8 -8 -8 -8 -8 -8 -8 -8 -8 -9 -9 -9 -10 -11 -11 -13 -13
-9 -6 -8 -7 -9 -8 -8 -9 -9 -8 -8 -8 -7 -6 -6 -8 -6 -5 -5 -6 -5 -5 -4 -4 -4 -4 -5 -6 -6 -6 -6 -6 -6 -7 -7 -7 -7 -8 -9 -8 -8 -8 -8 -8 -9 -9 -9 -10 -10 -11 -12 -12 -13 -13
-10 -10 -7 -6 -6 -6 -8 -7 -6 -8 -7 -8 -7 -8 -9 -7 -6 -6 -7 -6 -6 -6 -6 -5 -5 -5 -6 -7 -7 -7 -7 -7 -7 -7 -8 -8 -8 -8 -9 -10 -9 -9 -9 -9 -9 -10 -10 -11 -11 -12 -13 -13 -14 -15
-6 -7 -9 -6 -6 -6 -11 -12 -10 -7 -8 -5 -6 -7 -8 -7 -6 -7 -7 -8 -7 -7 -6 -6 -5 -6 -6 -6 -6 -7 -7 -7 -7 -8 -8 -8 -8 -8 -9 -10 -11 -10 -10 -10 -11 -12 -13 -13 -13 -14 -14 -16 -20 -23
-6 -5 -8 -10 -7 -5 -6 -8 -6 -6 -5 -5 -7 -9 -7 -7 -7 -8 -9 -9 -8 -8 -7 -7 -7 -7 -7 -7 -7 -8 -7 -7 -8 -8 -9 -9 -9 -9 -9 -9 -10 -11 -11 -11 -11 -12 -12 -13 -16 -23 -26 -25 -25 -28
-7 -7 -7 -7 -12 -8 -7 -7 -6 -7 -6 -6 -6 -6 -7 -8 -9 -8 -8 -8 -8 -8 -7 -7 -7 -7 -7 -8 -8 -8 -8 -9 -9 -9 -10 -10 -10 -10 -10 -10 -10 -11 -11 -12 -13 -14 -16 -24 -27 -26 -26 -28 -31 -31
-7 -8 -8 -7 -7 -7 -7 -7 -7 -7 -7 -6 -6 -6 -7 -8 -9 -9 -9 -8 -8 -8 -8 -8 -8 -8 -9 -9 -9 -9 -9 -9 -9 -10 -9 -10 -11 -11 -11 -11 -11 -12 -12 -14 -20 -28 -29 -27 -27 -29 -31 -31 -31 -31
-9 -8 -6 -10 -7 -7 -7 -7 -8 -7 -8 -8 -8 -7 -7 -8 -8 -9 -10 -10 -9 -9 -9 -9 -9 -9 -9 -9 -9 -10 -10 -10 -10 -10 -9 -9 -10 -11 -11 -11 -12 -13 -19 -30 -29 -27 -27 -28 -31 -31 -31 -31 -30 -30
-7 -8 -9 -8 -6 -7 -7 -8 -7 -6 -6 -6 -7 -7 -7 -8 -9 -11 -11 -11 -11 -10 -10 -9 -9 -9 -9 -9 -9 -10 -10 -10 -10 -10 -10 -11 -11 -11 -12 -15 -23 -30 -29 -27 -27 -28 -30 -31 -31 -31 -30 -30 -30 -29

GFSWCAN_850_dewp_138.txt.gz
Dewpoint
-6 -5 -7 -7 -5 -4 -5 -6 -7 -8 -10 -11 -11 -11 -10 -9 -3 -1 -2 -4 -2 -1 -1 -3 -4 -4 -3 -3 -2 -2 -2 -1 -1 1 -0 -0 1 -1 -3 -4 -3 -2 1 2 2 3 2 -1 -2 0 -2 -3 -3 -3
-6 -6 -7 -8 -7 -6 -6 -6 -7 -7 -9 -10 -11 -12 -13 -9 -7 -2 -2 -2 -2 -2 -1 -1 -2 -3 -3 -5 -2 -2 -2 -1 -0 -1 -1 -2 0 -1 -3 -2 -5 -1 -1 0 0 -0 -2 -2 -1 -1 -2 -3 -3 -3
-6 -7 -7 -8 -8 -8 -8 -7 -8 -7 -8 -9 -12 -11 -12 -11 -8 -3 -2 -2 -2 -2 -2 -2 -2 -2 -2 -3 -4 -3 -1 -1 0 1 -0 0 0 -4 -2 -2 -3 -0 -1 0 0 -1 -1 -1 -1 -1 -2 -3 -3 -4
-7 -8 -8 -8 -8 -8 -8 -8 -8 -8 -8 -9 -10 -10 -10 -9 -9 -5 -2 -2 -3 -2 -3 -4 -4 -2 -3 -2 -2 -2 -1 -1 -0 0 1 0 1 -3 -2 -3 -2 -2 1 1 0 -1 -2 -2 -1 -2 -3 -3 -4 -4
-8 -8 -7 -8 -8 -8 -8 -9 -8 -8 -8 -9 -9 -8 -8 -7 -6 -2 -2 -2 -3 -4 -2 -3 -4 -5 -5 -3 -3 -3 -2 -2 -1 0 0 0 -1 -1 -1 0 1 0 1 1 0 -2 -2 -3 -1 -1 -3 -3 -4 -4
-7 -8 -7 -7 -7 -7 -8 -8 -8 -8 -9 -8 -7 -7 -6 -5 -4 -2 -3 -3 -3 -5 -4 -5 -4 -2 -2 -4 -5 -5 -2 -1 -1 -0 0 0 -1 -1 1 0 -2 -3 -2 -2 -1 -1 -3 -3 -1 -1 -2 -4 -4 -4
-6 -6 -6 -6 -7 -7 -6 -6 -7 -8 -8 -8 -7 -8 -7 -5 -4 -3 -3 -4 -4 -4 -3 -3 -4 -7 -6 -2 -1 -1 -2 -1 -2 -0 -0 -0 -1 -1 1 0 -2 -2 -2 -2 -2 -3 -2 -2 -2 -2 -3 -4 -4 -5
-6 -7 -6 -6 -6 -6 -7 -7 -6 -7 -8 -7 -7 -8 -7 -5 -3 -3 -2 -8 -6 -4 -5 -3 -4 -1 -1 -0 0 -0 0 0 0 -0 -0 -0 -0 1 1 -1 -3 -3 -1 -2 -2 -3 -3 -3 -2 -3 -4 -4 -5 -5
-5 -5 -4 -4 -6 -6 -6 -6 -7 -7 -5 -5 -6 -7 -6 -4 -3 -4 -3 -3 -4 -5 -4 -3 -1 -2 -1 -0 -1 0 0 0 0 -0 -1 -1 -0 -0 -1 -2 -2 -2 -2 -2 -2 -3 -3 -3 -3 -3 -3 -5 -5 -6
-4 -5 -4 -4 -4 -3 -3 -5 -6 -6 -5 -5 -4 -4 -4 -4 -4 -5 -4 -4 -3 -4 -3 -2 -2 -1 -1 -0 -0 -0 -1 0 0 -2 -3 -1 -1 -3 -4 -4 -5 -3 -2 -2 -3 -3 -3 -3 -3 -3 -4 -4 -5 -5
-2 -2 -2 -2 -3 -5 -3 -3 -4 -4 -4 -4 -3 -5 -5 -6 -5 -5 -4 -4 -4 -2 -2 -2 -3 -2 -1 -0 -1 -0 -0 -1 0 -2 -2 -2 -1 -3 -5 -4 -4 -3 -2 -2 -3 -3 -4 -3 -4 -4 -5 -5 -5 -5
-1 -1 -1 -1 -1 -2 -3 -3 -3 -3 -3 -4 -7 -3 -4 -6 -5 -4 -4 -3 -2 -3 -3 -3 -2 -2 -0 -0 -0 -1 -1 -2 -2 -4 -4 -3 -3 -5 -5 -3 -3 -2 -2 -3 -3 -4 -4 -4 -4 -4 -4 -5 -6 -6
-1 -1 -1 -0 1 -1 -2 -3 -3 -3 -4 -6 -3 -3 -6 -5 -3 -5 -4 -2 -1 -2 -3 -6 -3 -2 -2 -1 -1 -1 -1 -3 -3 -4 -2 -2 -4 -3 -2 -2 -2 -2 -4 -3 -4 -4 -4 -4 -4 -4 -5 -6 -8 -8
-1 -2 -1 -0 1 -2 -3 -3 -4 -4 -5 -6 -3 -4 -6 -3 -4 -3 -4 -4 -3 -2 -3 -5 -2 -2 -1 -4 -4 -1 -4 -2 -2 -2 -1 -4 -3 -2 -2 -2 -3 -4 -4 -4 -4 -4 -4 -4 -4 -5 -7 -8 -9 -9
-4 -6 -2 -2 -3 -3 -4 -5 -6 -6 -6 -4 -5 -5 -3 -5 -2 -2 -3 -2 -2 -2 -3 -3 -3 -3 -2 -2 -2 -2 -1 -0 -2 -1 -5 -3 -2 -2 -2 -3 -4 -3 -3 -4 -4 -5 -6 -6 -7 -7 -8 -8 -9 -9
-8 -9 -8 -4 -2 -3 -5 -5 -4 -6 -5 -3 -3 -2 -2 -2 -1 -2 -2 -2 -2 -2 -3 -3 -2 -2 -1 -2 -2 -3 -2 -2 -4 -4 -2 -2 -2 -2 -3 -3 -4 -4 -5 -5 -6 -6 -6 -6 -7 -7 -7 -8 -8 -8
-11 -11 -10 -8 -8 -7 -6 -8 -7 -4 -4 -3 -2 -1 -1 -1 -1 -2 -2 -2 -2 -4 -3 -2 -2 -2 -3 -2 -2 -3 -4 -5 -3 -3 -3 -2 -3 -3 -3 -3 -3 -4 -5 -5 -6 -6 -6 -6 -6 -6 -6 -7 -7 -8
-15 -15 -17 -13 -11 -12 -10 -7 -5 -4 -3 -2 -2 -2 -1 -1 -1 -2 -2 -3 -4 -5 -4 -3 -3 -2 -2 -2 -2 -3 -3 -3 -3 -3 -3 -3 -3 -3 -3 -3 -5 -5 -6 -6 -6 -6 -6 -6 -5 -5 -6 -7 -8 -9
-16 -16 -14 -14 -14 -11 -7 -6 -4 -3 -2 -2 -2 -1 -1 -2 -2 -2 -3 -4 -5 -5 -3 -4 -3 -2 -2 -3 -3 -3 -3 -3 -4 -4 -3 -3 -4 -5 -5 -6 -6 -6 -6 -6 -5 -4 -4 -5 -5 -6 -7 -8 -10 -12
-18 -18 -20 -20 -17 -9 -6 -5 -4 -2 -3 -2 -2 -2 -2 -2 -1 -2 -3 -4 -5 -4 -3 -3 -3 -3 -3 -3 -3 -4 -3 -3 -3 -4 -4 -4 -4 -5 -5 -6 -6 -6 -6 -5 -5 -5 -5 -6 -7 -7 -8 -9 -11 -15
-16 -14 -14 -17 -9 -7 -5 -5 -3 -2 -2 -2 -2 -2 -2 -2 -2 -4 -5 -5 -3 -3 -3 -4 -4 -4 -4 -4 -4 -4 -4 -4 -4 -4 -4 -4 -4 -4 -5 -5 -5 -5 -5 -5 -5 -5 -6 -7 -7 -8 -11 -13 -15 -17
-13 -12 -11 -9 -7 -6 -6 -5 -4 -4 -3 -3 -4 -5 -4 -5 -4 -4 -5 -4 -4 -4 -4 -4 -4 -5 -5 -5 -5 -4 -5 -5 -5 -4 -4 -4 -5 -5 -5 -5 -5 -6 -6 -6 -7 -8 -8 -10 -12 -14 -15 -16 -17 -19
-17 -13 -11 -9 -8 -8 -7 -7 -6 -6 -4 -5 -6 -6 -5 -6 -4 -4 -4 -4 -4 -4 -4 -4 -5 -5 -5 -5 -5 -5 -5 -5 -5 -5 -5 -5 -5 -5 -6 -6 -6 -6 -8 -9 -10 -11 -11 -13 -13 -13 -14 -17 -15 -12
-14 -10 -8 -8 -8 -8 -7 -7 -7 -7 -6 -6 -6 -6 -7 -5 -5 -6 -5 -5 -5 -4 -3 -4 -4 -5 -5 -5 -5 -6 -6 -6 -6 -6 -6 -6 -6 -6 -7 -7 -7 -8 -9 -10 -11 -11 -13 -12 -11 -10 -10 -11 -11 -11
-11 -7 -8 -11 -8 -10 -11 -11 -10 -8 -7 -8 -8 -8 -8 -5 -6 -6 -6 -5 -5 -4 -4 -5 -5 -5 -6 -6 -6 -6 -6 -6 -7 -7 -7 -7 -7 -7 -8 -8 -8 -9 -10 -10 -10 -11 -12 -11 -10 -10 -10 -10 -10 -11
-9 -6 -8 -10 -9 -9 -9 -9 -10 -10 -11 -10 -9 -7 -7 -10 -9 -6 -6 -6 -5 -5 -5 -5 -5 -5 -6 -6 -7 -7 -7 -7 -7 -7 -7 -7 -7 -8 -8 -9 -9 -9 -9 -9 -9 -10 -10 -10 -10 -10 -10 -11 -11 -12
-9 -11 -7 -6 -6 -8 -9 -7 -7 -9 -10 -10 -11 -11 -12 -11 -10 -8 -7 -7 -6 -6 -5 -5 -5 -5 -5 -6 -7 -6 -6 -7 -7 -7 -7 -8 -8 -8 -8 -9 -9 -8 -8 -9 -9 -9 -9 -9 -10 -10 -11 -11 -12 -13
-6 -7 -10 -8 -7 -7 -13 -12 -11 -8 -9 -6 -8 -9 -9 -11 -8 -8 -7 -7 -7 -7 -6 -5 -5 -5 -6 -7 -7 -7 -7 -7 -7 -7 -8 -8 -8 -9 -9 -10 -9 -9 -9 -9 -9 -9 -10 -10 -11 -11 -12 -12 -13 -14
-7 -7 -9 -12 -8 -8 -7 -8 -8 -7 -7 -6 -9 -10 -9 -8 -8 -9 -9 -9 -9 -8 -7 -6 -6 -6 -7 -7 -7 -7 -7 -7 -8 -8 -8 -8 -9 -9 -10 -11 -11 -10 -10 -10 -11 -11 -12 -13 -13 -13 -13 -14 -15 -16
-8 -8 -8 -9 -12 -9 -8 -8 -8 -8 -7 -7 -8 -8 -9 -9 -9 -9 -9 -9 -9 -8 -8 -7 -7 -7 -8 -8 -7 -7 -8 -8 -8 -9 -9 -9 -9 -9 -10 -10 -11 -11 -11 -11 -12 -12 -14 -14 -14 -17 -21 -23 -24 -25
-8 -8 -8 -9 -9 -8 -8 -8 -8 -8 -8 -7 -7 -8 -9 -9 -9 -9 -9 -9 -9 -9 -9 -8 -8 -8 -8 -8 -8 -8 -8 -8 -9 -9 -10 -10 -10 -10 -10 -10 -11 -11 -11 -12 -12 -13 -14 -18 -25 -27 -26 -27 -31 -32
-8 -8 -8 -12 -9 -8 -8 -8 -9 -9 -8 -8 -8 -9 -8 -9 -9 -9 -9 -9 -9 -9 -9 -9 -9 -9 -9 -9 -9 -9 -9 -9 -9 -9 -10 -10 -10 -10 -10 -11 -11 -11 -12 -12 -14 -19 -26 -27 -27 -28 -31 -32 -32 -31
-8 -9 -10 -9 -8 -7 -8 -8 -8 -8 -8 -8 -8 -8 -8 -8 -9 -10 -10 -10 -10 -9 -9 -9 -9 -9 -9 -9 -9 -9 -10 -10 -10 -10 -10 -10 -10 -10 -11 -11 -12 -12 -12 -19 -29 -28 -27 -28 -31 -32 -32 -31 -31 -30

GFSWCAN_850_dewp_141.txt.gz
Dewpoint
-7 -7 -7 -5 -4 -2 -2 -2 -3 -3 -3 -4 -4 -4 -2 -2 -3 -1 -2 -2 -3 -1 -1 -3 -4 -4 -4 -4 -2 -2 -0 -1 -1 0 -1 -1 1 -0 -2 -3 -4 -4 -0 0 -0 1 0 -2 -1 1 -1 -2 -3 -3
-7 -7 -7 -7 -6 -5 -3 -3 -4 -5 -6 -7 -7 -9 -10 -6 -4 -2 -1 -1 -2 -3 -1 -1 -2 -4 -4 -4 -5 -1 -3 -1 -2 -1 -1 -1 -0 -1 -2 -0 -5 -1 -3 -1 -1 -1 -2 -3 -2 -3 -3 -2 -3 -3
-7 -7 -8 -7 -7 -6 -5 -5 -6 -7 -8 -9 -9 -9 -10 -11 -10 -7 -3 -1 -2 -2 -2 -2 -1 -2 -2 -2 -2 -2 -2 -2 0 0 -0 1 1 -0 -0 -1 -2 -3 -2 -0 -1 -1 -2 -2 -3 -2 -2 -2 -2 -3
-6 -5 -7 -7 -8 -8 -6 -5 -5 -6 -7 -8 -9 -10 -9 -10 -8 -8 -8 -3 -2 -2 -2 -3 -4 -3 -3 -2 -2 -1 -1 -1 -0 0 1 1 -1 -2 -0 -2 -2 -4 -1 -0 1 -1 -1 -2 -2 -1 -1 -2 -3 -4
-9 -9 -6 -7 -8 -9 -8 -7 -6 -6 -7 -7 -9 -9 -11 -10 -7 -8 -7 -8 -2 -2 -2 -3 -2 -4 -5 -5 -6 -3 -2 -1 -1 -1 -0 -1 -1 -1 -1 -0 0 -1 -1 1 0 -2 -2 -2 -2 -2 -2 -3 -4 -4
-8 -8 -9 -9 -9 -9 -8 -8 -8 -8 -7 -7 -8 -9 -10 -9 -8 -6 -3 -5 -4 -2 -2 -3 -5 -4 -4 -4 -5 -2 -3 -1 -1 -1 -0 -1 -2 -1 1 0 -4 -5 -4 -3 -1 -2 -2 -1 -2 -2 -2 -3 -4 -4
-7 -7 -8 -8 -8 -9 -8 -8 -8 -9 -8 -8 -9 -8 -9 -8 -6 -5 -4 -4 -5 -2 -3 -4 -5 -8 -5 -7 -5 -3 -3 -2 -2 -2 -0 -1 -2 -1 0 -1 -5 -4 -4 -3 -1 -1 -2 -2 -2 -1 -2 -3 -4 -4
-7 -8 -8 -8 -7 -8 -9 -9 -10 -11 -9 -8 -9 -8 -7 -5 -4 -4 -4 -3 -3 -3 -4 -3 -3 -1 -2 -0 -1 -1 -1 -1 -1 -1 -1 -1 -1 -1 1 -2 -3 -3 -3 -2 -1 -2 -2 -3 -2 -2 -3 -4 -4 -5
-5 -6 -6 -7 -7 -7 -8 -8 -9 -9 -10 -8 -7 -6 -5 -4 -3 -4 -4 -3 -3 -4 -5 -4 -3 -3 -1 -1 -1 -0 -0 -0 -2 -1 -2 -1 -2 0 -1 -1 -2 -3 -3 -3 -2 -2 -3 -3 -2 -2 -3 -4 -5 -5
-5 -5 -5 -5 -6 -6 -7 -6 -6 -8 -8 -7 -4 -4 -4 -4 -4 -3 -3 -3 -4 -5 -4 -4 -4 -1 -1 -0 -1 -2 -0 -1 -0 -1 -1 0 -1 -4 -3 -4 -5 -4 -3 -2 -2 -3 -3 -3 -3 -3 -4 -4 -5 -6
-4 -4 -5 -6 -6 -5 -6 -7 -5 -6 -5 -5 -4 -4 -4 -5 -4 -4 -4 -5 -5 -3 -3 -4 -4 -3 -2 -1 -1 -1 0 -1 0 -1 0 -0 -0 -3 -5 -5 -4 -4 -4 -3 -3 -3 -3 -3 -3 -3 -4 -4 -5 -6
-4 -5 -5 -4 -5 -5 -6 -7 -6 -4 -4 -5 -5 -4 -4 -5 -4 -5 -5 -5 -4 -5 -3 -3 -3 -4 -1 -1 -1 -0 0 -0 0 -3 -1 -0 -2 -6 -6 -6 -4 -3 -3 -2 -2 -3 -4 -3 -3 -3 -4 -4 -5 -5
-2 -2 -4 -4 -3 -4 -5 -6 -6 -6 -5 -6 -5 -5 -5 -5 -5 -6 -5 -3 -4 -3 -3 -3 -2 -3 -1 -1 -1 -0 0 -1 -3 -2 -1 -1 -4 -4 -4 -3 -2 -2 -2 -3 -3 -4 -4 -4 -4 -4 -4 -5 -5 -5
0 -1 -2 -3 -3 -3 -4 -5 -6 -5 -6 -8 -5 -4 -8 -6 -4 -5 -5 -4 -8 -4 -4 -3 -2 -2 -2 -2 -2 -0 -1 -2 -0 0 -1 -2 -4 -3 -2 -2 -2 -2 -4 -4 -4 -4 -4 -4 -4 -4 -4 -5 -6 -7
-0 -1 -1 -3 -3 -3 -3 -5 -6 -5 -8 -8 -5 -9 -4 -7 -4 -5 -10 -11 -8 -6 -4 -4 -3 -3 -2 -2 -3 -3 -1 -1 -1 -1 -2 -3 -3 -2 -2 -2 -3 -4 -4 -4 -4 -4 -4 -4 -4 -5 -6 -7 -8 -9
-2 -2 -3 -3 -3 -3 -4 -6 -5 -6 -8 -6 -3 -4 -3 -4 -3 -3 -3 -5 -7 -5 -5 -5 -2 -2 -2 -2 -2 -2 -1 -1 -2 -3 -3 -3 -2 -2 -2 -3 -4 -4 -4 -4 -4 -5 -6 -6 -7 -7 -8 -8 -9 -9
-3 -3 -3 -3 -4 -3 -3 -3 -6 -5 -4 -2 -3 -2 -3 -3 -4 -3 -3 -2 -3 -4 -3 -2 -2 -2 -3 -1 -2 -3 -2 -3 -3 -3 -3 -3 -2 -2 -3 -3 -4 -5 -5 -6 -6 -6 -6 -7 -7 -7 -8 -7 -7 -8
-3 -3 -4 -3 -3 -3 -4 -5 -5 -3 -2 -2 -1 -2 -1 -1 -2 -2 -2 -2 -3 -4 -4 -3 -4 -2 -1 -2 -2 -3 -3 -4 -3 -3 -3 -3 -2 -3 -3 -3 -4 -5 -5 -6 -6 -6 -6 -6 -6 -6 -6 -6 -7 -8
-3 -4 -4 -5 -5 -5 -4 -3 -2 -3 -2 -2 -2 -2 -2 -2 -2 -2 -2 -2 -3 -2 -2 -3 -2 -1 -1 -2 -3 -3 -3 -3 -4 -4 -3 -3 -3 -3 -3 -3 -4 -5 -6 -6 -6 -6 -5 -6 -5 -5 -6 -6 -7 -8
-5 -3 -3 -4 -4 -3 -3 -3 -2 -2 -2 -2 -2 -2 -3 -3 -2 -2 -1 -1 -1 -1 -3 -3 -3 -3 -3 -3 -4 -3 -3 -3 -4 -4 -4 -4 -4 -4 -4 -6 -5 -6 -6 -5 -5 -4 -4 -5 -6 -6 -6 -7 -8 -9
-11 -8 -5 -4 -4 -5 -5 -3 -3 -2 -2 -3 -2 -2 -3 -2 -3 -3 -3 -2 -3 -3 -4 -4 -4 -4 -4 -4 -4 -4 -3 -3 -3 -4 -4 -4 -5 -5 -6 -6 -6 -5 -5 -5 -5 -5 -5 -6 -6 -7 -7 -8 -10 -12
-12 -11 -10 -9 -7 -7 -6 -5 -4 -3 -3 -3 -3 -3 -3 -3 -3 -4 -4 -4 -4 -4 -4 -4 -4 -4 -5 -5 -5 -4 -4 -4 -4 -4 -4 -4 -4 -4 -4 -4 -5 -5 -5 -5 -5 -5 -6 -7 -8 -8 -11 -13 -14 -16
-14 -12 -10 -9 -8 -8 -7 -6 -6 -5 -3 -4 -4 -4 -4 -4 -3 -4 -4 -4 -4 -4 -4 -5 -5 -5 -5 -5 -5 -5 -5 -5 -5 -4 -4 -4 -4 -5 -5 -5 -5 -6 -6 -6 -7 -8 -8 -10 -12 -14 -15 -16 -17 -18
-14 -11 -9 -8 -8 -8 -7 -7 -7 -7 -6 -5 -5 -5 -5 -5 -5 -6 -5 -5 -4 -4 -4 -4 -5 -5 -5 -5 -6 -6 -6 -6 -6 -6 -5 -5 -5 -6 -6 -6 -6 -7 -8 -9 -10 -11 -11 -13 -14 -13 -15 -17 -16 -14
-11 -7 -8 -10 -8 -9 -9 -8 -8 -7 -6 -7 -7 -6 -6 -6 -6 -6 -6 -6 -5 -4 -4 -4 -4 -5 -6 -6 -6 -6 -7 -7 -7 -7 -6 -6 -6 -7 -7 -8 -8 -9 -9 -10 -11 -11 -13 -12 -11 -10 -11 -11 -11 -11
-9 -7 -8 -8 -9 -9 -9 -8 -9 -8 -8 -8 -8 -8 -8 -8 -8 -5 -7 -6 -6 -5 -5 -5 -5 -5 -6 -7 -7 -7 -7 -7 -7 -7 -7 -7 -7 -8 -8 -9 -9 -9 -10 -9 -10 -12 -12 -11 -10 -10 -10 -10 -11 -11
-8 -9 -7 -7 -7 -8 -9 -8 -7 -9 -7 -9 -9 -10 -9 -8 -8 -8 -7 -7 -6 -6 -5 -5 -5 -5 -5 -6 -7 -7 -7 -7 -7 -7 -7 -7 -8 -8 -8 -9 -8 -9 -9 -9 -9 -9 -10 -10 -10 -10 -10 -11 -11 -12
-7 -8 -11 -8 -8 -8 -11 -9 -9 -8 -7 -6 -9 -8 -9 -9 -7 -8 -8 -7 -7 -6 -6 -5 -5 -5 -6 -7 -7 -7 -7 -7 -7 -7 -8 -8 -8 -9 -9 -9 -9 -9 -9 -9 -9 -9 -9 -9 -10 -10 -11 -11 -12 -13
-8 -8 -9 -11 -9 -8 -8 -7 -7 -7 -7 -7 -9 -9 -8 -9 -9 -8 -8 -9 -9 -9 -7 -6 -6 -6 -6 -6 -7 -7 -7 -7 -7 -8 -8 -8 -9 -9 -10 -10 -10 -10 -9 -10 -10 -10 -11 -11 -11 -11 -12 -12 -13 -13
-8 -8 -9 -11 -12 -10 -8 -8 -8 -7 -7 -8 -8 -9 -9 -9 -9 -9 -9 -9 -8 -8 -8 -7 -7 -7 -7 -7 -7 -7 -8 -8 -8 -8 -8 -9 -9 -9 -10 -11 -11 -11 -11 -11 -11 -12 -13 -13 -13 -13 -14 -16 -18 -20
-8 -7 -8 -10 -9 -9 -9 -8 -8 -8 -8 -8 -8 -9 -9 -9 -9 -9 -9 -9 -9 -9 -8 -8 -8 -8 -9 -8 -8 -8 -8 -8 -8 -9 -9 -10 -9 -9 -10 -10 -11 -11 -11 -12 -12 -13 -14 -14 -16 -22 -25 -25 -25 -27
-9 -8 -9 -13 -9 -9 -9 -9 -9 -9 -8 -8 -8 -9 -9 -9 -9 -9 -9 -9 -9 -9 -9 -9 -9 -9 -9 -9 -9 -9 -9 -9 -9 -9 -10 -10 -10 -10 -10 -10 -11 -11 -12 -12 -12 -13 -17 -24 -28 -27 -28 -30 -32 -32
-9 -9 -10 -9 -9 -9 -9 -9 -9 -10 -9 -8 -9 -9 -9 -9 -9 -9 -10 -10 -10 -9 -9 -9 -9 -9 -9 -9 -9 -10 -10 -10 -10 -10 -10 -10 -10 -10 -10 -11 -11 -12 -12 -12 -15 -23 -28 -27 -28 -31 -32 -32 -32 -31

GFSWCAN_850_dewp_147.txt.gz
Dewpoint
-6 -8 -8 -8 -8 -7 -5 -5 -4 -3 -2 -0 -1 0 -0 0 0 0 -0 -0 -2 -0 -0 -2 -4 -5 -5 -6 -5 -6 -3 -4 -4 -3 -6 -7 -7 -9 -8 -9 -9 -4 -3 -1 -2 -1 -1 -9 -5 -4 -5 -4 -4 -3
-6 -7 -9 -8 -8 -7 -6 -5 -3 -2 -1 -1 -0 -0 -0 0 0 0 0 -0 -1 -1 -0 0 -1 -1 -5 -6 -6 -3 -5 -6 -6 -6 -8 -9 -7 -6 -8 -3 -9 -4 -8 -6 -7 -4 -5 -4 -4 -5 -5 -4 -3 -2
-6 -8 -9 -8 -7 -7 -4 -3 -2 -2 -0 -1 -1 -1 -1 -0 0 0 -0 -1 -1 -1 -1 -0 -2 -3 -4 -3 -3 -3 -3 -2 -2 -2 -0 -1 -1 -5 -4 -5 -7 -8 -10 -2 -4 -4 -6 -7 -6 -6 -5 -2 -1 -1
-7 -9 -9 -8 -7 -5 -3 -2 -1 -1 -1 -1 -1 -1 -1 -1 -0 -0 -1 -2 -3 -2 -1 -2 -2 -1 -2 -2 -3 -3 -1 -0 -0 -1 -1 -1 -1 -6 -3 -5 -2 -6 -4 -3 -3 -5 -6 -5 -5 -2 -2 -1 -0 -1
-9 -9 -9 -7 -6 -4 -3 -2 -1 -1 -0 -1 -1 -1 -1 -1 -1 -1 -1 -1 -1 -2 -3 -2 -3 -2 -1 -1 -1 -2 -2 -1 -1 -1 -1 -1 -5 -4 -5 -4 -4 -6 -5 -1 1 -4 -4 -4 -2 -1 -1 -1 -1 -2
-9 -9 -9 -8 -8 -4 -3 -2 -2 -2 -1 -1 -2 -2 -1 -2 -2 -2 -2 -1 -3 -0 -3 -2 -2 -3 -2 -2 -2 -3 -2 -2 -1 -2 -3 -4 -5 -5 -2 -3 -7 -8 -7 -7 -6 -7 -5 -4 -0 -0 -1 -0 -1 -2
-9 -9 -8 -9 -7 -4 -3 -3 -3 -3 -3 -3 -3 -3 -4 -5 -3 -2 -3 -3 -3 -6 -2 -4 -4 -3 -3 -3 -3 -3 -3 -3 -3 -2 -3 -4 -4 -4 -1 -1 -7 -8 -9 -9 -8 -7 -6 -6 -4 -1 -1 -1 -2 -3
-10 -10 -9 -9 -8 -6 -3 -4 -4 -5 -7 -7 -8 -7 -6 -3 -4 -3 -7 -5 -4 -3 -2 -3 -3 -3 -3 -2 -2 -3 -3 -3 -2 -3 -4 -5 -6 -5 0 -5 -7 -7 -8 -9 -9 -8 -8 -7 -2 -1 -1 -2 -2 -3
-8 -10 -11 -9 -9 -9 -6 -4 -4 -6 -7 -8 -8 -7 -6 -4 -4 -3 -5 -5 -4 -2 -4 -3 -3 -2 -3 -4 -4 -2 -2 -1 -4 -2 -3 -5 -4 -1 -5 -7 -7 -8 -9 -10 -9 -8 -5 -2 -2 -2 -2 -2 -2 -3
-9 -9 -12 -12 -10 -9 -8 -6 -5 -6 -7 -8 -6 -4 -5 -4 -4 -5 -3 -4 -4 -3 -3 -4 -8 -2 -5 -5 -3 -2 -1 -3 -4 -4 -5 -1 -0 -5 -7 -7 -7 -8 -8 -9 -8 -5 -1 -2 -1 -1 -2 -2 -2 -3
-8 -8 -9 -10 -11 -9 -8 -7 -7 -7 -6 -5 -6 -4 -4 -6 -4 -3 -3 -4 -3 -2 -6 -7 -9 -5 -6 -2 -3 -5 -2 -3 -3 -6 -3 -3 -3 -4 -6 -6 -6 -7 -7 -8 -7 -4 -2 -1 -1 -1 -2 -2 -3 -4
-9 -8 -7 -7 -9 -9 -7 -7 -6 -5 -5 -6 -4 -4 -4 -3 -4 -4 -3 -4 -4 -7 -6 -7 -9 -8 -5 -3 -3 -1 -2 -3 -2 -3 0 -2 -5 -7 -6 -6 -5 -4 -4 -4 -5 -3 -1 -1 -1 -1 -2 -3 -3 -4
-11 -9 -8 -7 -8 -9 -7 -8 -6 -4 -6 -4 -5 -3 -5 -4 -4 -4 -5 -3 -5 -4 -6 -7 -4 -6 -2 -3 -3 -3 -0 -0 -3 -0 -2 -5 -7 -4 -2 -2 -2 -2 -2 -2 -2 -1 -1 -1 -1 -2 -2 -3 -4 -5
-9 -8 -8 -8 -7 -9 -9 -9 -8 -7 -3 -4 -4 -4 -6 -4 -5 -5 -6 -7 -8 -5 -5 -6 -6 -6 -5 -2 -1 0 -4 -3 -1 -0 -4 -5 -0 -1 -1 -1 -1 -1 -1 -1 -1 -1 -1 -2 -2 -3 -3 -4 -4 -5
-6 -6 -8 -7 -8 -9 -10 -10 -10 -6 -5 -7 -9 -8 -7 -8 -8 -8 -7 -6 -5 -4 -5 -5 -5 -6 -4 -2 -5 -6 -2 -1 -4 -6 -3 0 -0 -1 -1 -1 -1 -2 -1 -2 -2 -3 -3 -4 -3 -4 -4 -4 -4 -5
-5 -6 -5 -7 -8 -8 -8 -8 -6 -4 -5 -7 -8 -5 -8 -6 -1 -2 -2 -4 -5 -5 -6 -6 -6 -2 -3 -4 -3 -5 -8 -6 -5 -4 1 -0 -1 -2 -1 -2 -2 -2 -3 -4 -4 -4 -4 -4 -4 -4 -4 -4 -5 -5
-5 -4 -6 -6 -7 -7 -6 -5 -4 -3 -6 -7 -4 -3 -2 -6 -3 -1 -2 -4 -4 -4 -2 -9 -5 -2 -3 -4 -4 -5 -3 -2 -1 0 -1 -1 -2 -2 -2 -3 -3 -4 -4 -4 -4 -4 -4 -4 -4 -4 -5 -5 -6 -7
-3 -5 -6 -6 -7 -6 -4 -4 -4 -5 -5 -4 -4 -2 -5 -2 -1 -1 -2 -3 -4 -5 -9 -8 -10 -5 -2 -5 -5 -5 -1 -1 -2 -2 -2 -3 -2 -2 -3 -4 -4 -4 -4 -4 -4 -4 -4 -5 -5 -6 -7 -8 -8 -8
-4 -6 -6 -6 -5 -4 -4 -4 -4 -4 -4 -3 -2 -2 -2 -2 -1 -1 -2 -2 -4 -5 -8 -8 -6 -5 -4 -5 -1 -0 -1 -1 -1 -2 -3 -3 -3 -2 -3 -4 -5 -5 -5 -5 -6 -6 -6 -6 -6 -7 -8 -8 -8 -8
-5 -6 -6 -6 -5 -6 -6 -5 -5 -5 -3 -2 -2 -2 -2 -1 -2 -1 -1 -1 -3 -4 -6 -5 -4 -5 -1 -1 -1 -2 -2 -2 -2 -3 -3 -4 -3 -3 -3 -4 -5 -6 -6 -6 -6 -6 -6 -6 -7 -7 -7 -7 -8 -8
-4 -4 -5 -6 -3 -3 -3 -2 -3 -4 -4 -1 -2 -2 -1 -2 -2 -1 -1 -1 -1 -1 -3 -2 -1 -1 -3 -3 -4 -3 -3 -3 -3 -3 -2 -4 -4 -3 -3 -4 -5 -5 -5 -5 -6 -6 -5 -6 -6 -6 -6 -7 -8 -8
-3 -3 -3 -4 -3 -3 -2 -3 -3 -3 -2 -2 -2 -2 -1 -1 -1 -2 -3 -2 -1 -1 -2 -2 -2 -3 -3 -3 -3 -4 -4 -4 -4 -4 -4 -4 -4 -4 -4 -4 -4 -4 -4 -5 -5 -5 -5 -6 -6 -6 -7 -7 -8 -9
-3 -3 -3 -3 -4 -3 -3 -4 -3 -2 -1 -1 -2 -1 -1 -1 -2 -2 -2 -2 -2 -3 -3 -2 -3 -3 -3 -4 -5 -5 -4 -4 -4 -4 -4 -4 -4 -4 -4 -5 -4 -4 -5 -5 -5 -5 -5 -6 -6 -7 -7 -8 -9 -10
-3 -3 -3 -3 -3 -3 -4 -3 -3 -3 -2 -2 -1 -2 -3 -3 -3 -3 -2 -2 -3 -4 -3 -3 -3 -4 -4 -4 -4 -4 -5 -5 -5 -5 -4 -4 -5 -5 -5 -5 -5 -5 -5 -5 -5 -6 -6 -7 -7 -8 -8 -10 -11 -11
-5 -5 -5 -5 -5 -5 -4 -4 -4 -3 -2 -3 -3 -3 -3 -4 -2 -2 -3 -4 -3 -3 -3 -4 -4 -4 -4 -5 -4 -5 -6 -5 -5 -5 -5 -5 -5 -5 -6 -6 -6 -6 -6 -6 -6 -7 -7 -8 -8 -9 -10 -11 -11 -11
-6 -6 -5 -6 -5 -5 -5 -4 -4 -3 -4 -2 -2 -3 -3 -2 -2 -1 -5 -4 -3 -4 -4 -4 -4 -4 -5 -5 -5 -5 -5 -6 -6 -6 -6 -6 -6 -6 -6 -7 -7 -7 -7 -7 -8 -8 -9 -10 -10 -11 -11 -11 -12 -12
-6 -6 -6 -7 -7 -7 -6 -6 -6 -5 -4 -3 -3 -3 -3 -2 -2 -5 -5 -5 -5 -5 -4 -4 -4 -4 -5 -5 -6 -7 -7 -7 -6 -6 -7 -7 -7 -7 -7 -7 -7 -7 -9 -9 -9 -10 -10 -11 -12 -12 -12 -12 -12 -12
-7 -7 -6 -6 -6 -6 -6 -6 -6 -5 -6 -7 -6 -3 -3 -4 -4 -5 -6 -7 -6 -6 -5 -5 -5 -5 -5 -5 -6 -7 -7 -7 -7 -7 -7 -7 -8 -8 -8 -8 -8 -9 -10 -10 -10 -11 -12 -11 -11 -10 -10 -11 -11 -12
-7 -7 -8 -8 -7 -7 -7 -7 -7 -7 -7 -7 -6 -5 -6 -7 -7 -7 -8 -7 -7 -6 -6 -6 -5 -5 -5 -5 -6 -7 -7 -7 -7 -7 -7 -7 -8 -8 -8 -9 -9 -9 -9 -9 -9 -10 -10 -10 -10 -10 -10 -11 -11 -12
-7 -7 -7 -8 -8 -7 -7 -7 -6 -7 -7 -6 -7 -7 -8 -7 -8 -9 -8 -8 -8 -7 -7 -7 -6 -6 -6 -6 -7 -7 -7 -7 -7 -7 -7 -7 -7 -8 -9 -9 -9 -9 -8 -9 -9 -9 -9 -10 -10 -10 -11 -11 -12 -12
-7 -7 -7 -8 -8 -7 -7 -8 -7 -7 -7 -7 -7 -7 -7 -7 -8 -10 -10 -9 -9 -9 -8 -8 -7 -7 -7 -7 -7 -7 -7 -8 -8 -8 -8 -8 -8 -8 -9 -10 -10 -10 -9 -9 -9 -9 -10 -10 -11 -11 -12 -12 -12 -13
-7 -7 -8 -8 -8 -7 -7 -8 -7 -8 -7 -7 -7 -7 -7 -7 -7 -7 -11 -10 -10 -9 -8 -8 -8 -8 -8 -8 -9 -9 -8 -8 -8 -8 -8 -9 -9 -9 -9 -10 -10 -11 -10 -10 -10 -11 -11 -11 -12 -12 -12 -13 -14 -16
-7 -7 -8 -8 -8 -8 -8 -8 -8 -8 -8 -8 -8 -8 -8 -8 -8 -7 -10 -11 -10 -9 -8 -8 -8 -8 -8 -9 -9 -9 -9 -9 -9 -9 -9 -9 -9 -9 -9 -10 -10 -10 -11 -11 -12 -12 -12 -12 -13 -15 -18 -20 -22 -23

GFSWCAN_850_dewp_153.txt.gz
Dewpoint
-7 -6 -7 -9 -8 -8 -9 -9 -9 -9 -7 -7 -6 -5 -5 -4 -4 -5 -3 -2 0 0 0 -1 -2 -1 1 0 1 1 1 -1 -1 -1 -1 -3 -3 -4 -5 -6 -3 -1 -1 -1 -1 0 0 -7 -6 -2 -2 -3 -3 -3
-6 -7 -8 -9 -9 -9 -9 -9 -9 -9 -9 -7 -5 -3 -5 -5 -4 -4 -1 -1 -0 1 0 -0 -0 -0 -0 -1 -1 -1 -2 -3 -2 -2 -4 -4 -3 -3 -6 -3 -7 -0 -1 0 -2 -2 -3 -3 -2 -4 -5 -5 -3 -2
-6 -9 -9 -8 -8 -8 -8 -9 -9 -10 -9 -9 -8 -7 -6 -6 -5 -5 -1 0 -0 -0 0 -2 -2 -2 -3 -3 -6 -3 -2 -3 -4 -3 -2 -0 -2 -4 -1 -2 -4 -3 -5 -0 -1 -2 -2 -3 -5 -5 -4 -3 -2 -2
-8 -9 -8 -8 -8 -9 -9 -11 -10 -10 -9 -7 -8 -10 -9 -7 -3 -3 -2 -1 0 -1 -1 -1 -1 -2 -2 -3 -2 -2 -2 -3 -2 -4 -2 -0 -0 -3 -2 -2 -1 -1 -1 -0 -1 -2 -4 -4 -4 -2 -2 -2 -2 -1
-9 -8 -8 -8 -11 -10 -10 -10 -10 -8 -5 -7 -10 -11 -9 -6 -2 -2 -1 -1 0 -2 0 0 -1 -2 -2 -3 -3 -3 -2 -2 -1 -2 -1 -0 -3 -2 -2 -3 -1 -4 -3 -1 -0 -2 -2 -2 -3 -3 -3 -2 -2 -2
-8 -9 -11 -11 -10 -8 -8 -8 -8 -7 -8 -9 -9 -7 -8 -4 -1 -1 -0 -0 -0 -1 -2 -1 -3 -1 -1 -3 -2 -2 -2 -2 -2 -1 -1 -3 -3 -2 1 -1 -4 -5 -6 -7 -5 -7 -8 -7 -8 -9 -7 -7 -3 -2
-10 -11 -10 -9 -8 -8 -6 -6 -6 -6 -6 -7 -5 -6 -3 -1 -1 -1 -1 -1 -1 -2 -3 -2 -3 -4 -2 -2 -1 -2 -2 -2 -2 -1 -1 -2 -3 -3 -3 -1 -4 -6 -7 -7 -7 -7 -6 -8 -8 -7 -6 -3 -2 -1
-10 -10 -8 -7 -5 -4 -3 -2 -3 -3 -3 -3 -2 -1 -1 -1 -1 -1 -0 -0 -1 -3 -5 -3 -2 -2 -2 -2 -2 -2 -3 -2 -2 -2 -2 -3 -4 -3 -2 -3 -5 -5 -5 -5 -5 -6 -6 -7 -7 -9 -9 -4 -2 -1
-9 -7 -5 -4 -4 -1 -3 -3 -2 -2 -2 -1 -1 -2 -1 -1 -1 -1 -1 -2 -4 -4 -3 -3 -2 -2 -3 -3 -3 -3 -3 -3 -2 -2 -2 -3 -2 -2 -3 -5 -6 -6 -5 -6 -7 -7 -7 -7 -7 -8 -9 -3 -2 -2
-7 -5 -4 -4 -3 -1 -1 -1 -2 -2 -2 -3 -4 -4 -3 -2 -2 -4 -7 -10 -14 -6 -5 -3 -4 -2 -3 -3 -2 -2 -1 -2 -2 -2 -4 -2 -2 -5 -6 -6 -7 -7 -7 -7 -7 -7 -7 -8 -8 -5 -4 -2 -2 -2
-8 -6 -4 -4 -3 -3 -3 -3 -4 -4 -5 -6 -5 -3 -2 -4 -8 -8 -4 -4 -4 -5 -6 -6 -5 -2 -4 -2 -2 -3 -3 -3 -2 -3 -2 -2 -1 -3 -6 -6 -6 -5 -5 -5 -6 -6 -7 -6 -6 -5 -2 -1 -1 -2
-10 -7 -4 -4 -4 -4 -3 -6 -9 -8 -7 -7 -5 -5 -4 -5 -6 -5 -5 -4 -4 -6 -7 -7 -8 -6 -4 -4 -3 -3 -2 -3 -1 -4 -4 -3 -3 -7 -6 -5 -2 -1 -3 -2 -2 -2 -2 -5 -6 -6 -3 -1 -1 -2
-12 -9 -6 -7 -5 -4 -7 -7 -6 -7 -7 -9 -10 -5 -6 -6 -7 -6 -5 -4 -6 -6 -7 -8 -6 -8 -4 -4 -3 -3 -2 -3 -4 -5 -3 -2 -7 -1 -1 -1 -2 -7 -9 -8 -8 -7 -3 -4 -5 -2 -1 -1 -1 -2
-14 -11 -9 -7 -7 -5 -7 -7 -7 -8 -6 -7 -7 -7 -6 -5 -5 -5 -4 -4 -8 -8 -7 -6 -5 -4 -3 -3 -4 -3 -3 -3 -3 -3 -3 -2 -1 -3 -6 -6 -5 -6 -5 -2 -1 -1 -2 -2 -1 -1 -1 -1 -2 -1
-12 -10 -8 -8 -7 -6 -7 -4 -6 -9 -5 -7 -8 -8 -7 -8 -8 -8 -7 -6 -9 -8 -9 -5 -5 -5 -2 -1 -2 -3 -3 -4 -4 -5 -4 -0 -1 -3 -4 -4 -4 -3 -2 -1 -1 -1 -1 -1 -1 -1 -1 -1 -1 -2
-9 -10 -8 -8 -7 -6 -7 -5 -8 -8 -7 -5 -7 -6 -7 -6 -6 -6 -6 -6 -5 -7 -7 -4 -1 -2 -1 -1 -3 -5 -4 -5 -5 -3 1 0 -2 -5 -4 -3 -2 -2 -2 -1 -1 -1 -1 -1 -1 -1 -2 -3 -3 -4
-7 -6 -9 -8 -9 -8 -7 -8 -9 -7 -5 -5 -4 -4 -4 -5 -5 -4 -4 -8 -7 -5 -1 -1 -1 -3 -4 -3 -4 -4 -5 -5 -1 -0 -1 -1 -2 -5 -3 -2 -2 -2 -2 -2 -2 -2 -2 -2 -3 -3 -3 -4 -4 -4
-4 -10 -12 -10 -10 -10 -8 -5 -5 -5 -5 -6 -5 -4 -6 -6 -5 -6 -7 -5 -6 -5 -2 -4 -6 -5 -6 -3 -1 -1 -0 -0 -1 -3 -3 -2 -2 -2 -3 -3 -3 -3 -3 -4 -4 -4 -4 -4 -5 -5 -4 -5 -5 -5
-9 -10 -11 -12 -12 -8 -7 -7 -7 -3 -5 -5 -6 -5 -4 -4 -6 -7 -7 -4 -5 -7 -6 -6 -5 -4 -5 -4 -3 -2 -1 -1 -1 -2 -3 -3 -3 -3 -3 -3 -3 -3 -4 -4 -4 -4 -4 -5 -5 -5 -5 -5 -5 -6
-9 -9 -10 -9 -4 -4 -5 -6 -5 -5 -5 -4 -4 -4 -3 -2 -3 -3 -3 -3 -2 -4 -4 -4 -4 -6 -4 -4 -4 -3 -3 -2 -3 -3 -3 -3 -4 -3 -3 -3 -3 -3 -4 -4 -4 -4 -5 -5 -5 -5 -5 -6 -7 -7
-8 -7 -6 -5 -4 -4 -4 -4 -3 -4 -2 -2 -4 -2 -1 -1 -2 -2 -3 -3 -3 -2 -4 -5 -6 -6 -5 -5 -4 -4 -4 -4 -4 -4 -3 -2 -3 -3 -3 -4 -3 -4 -5 -4 -5 -5 -5 -6 -6 -7 -7 -8 -8 -8
-6 -7 -5 -4 -4 -4 -3 -3 -3 -3 -3 -3 -2 -2 -2 -2 -2 -2 -2 -2 -3 -4 -4 -5 -5 -4 -3 -2 -3 -3 -3 -4 -3 -3 -3 -3 -3 -4 -4 -3 -3 -4 -4 -5 -5 -5 -5 -6 -6 -6 -7 -7 -7 -7
-6 -5 -5 -5 -6 -4 -4 -3 -3 -4 -3 -3 -2 -1 -1 -1 -1 -2 -2 -2 -1 -2 -3 -2 -2 -2 -2 -3 -4 -4 -5 -4 -4 -4 -4 -4 -4 -4 -3 -3 -4 -4 -4 -4 -5 -5 -5 -5 -6 -6 -6 -7 -7 -7
-5 -5 -6 -4 -4 -4 -3 -3 -3 -3 -3 -3 -2 -2 -1 -1 -2 -2 -2 -3 -3 -3 -2 -2 -2 -2 -3 -3 -3 -4 -5 -4 -4 -4 -4 -4 -3 -3 -3 -3 -4 -4 -4 -4 -4 -5 -5 -5 -6 -6 -7 -7 -8 -8
-4 -4 -4 -4 -3 -2 -3 -4 -4 -4 -4 -4 -2 -3 -3 -2 -2 -2 -2 -2 -2 -2 -3 -2 -2 -2 -3 -3 -4 -4 -5 -5 -4 -5 -5 -4 -4 -4 -4 -4 -4 -4 -4 -4 -5 -5 -5 -6 -6 -7 -7 -8 -8 -9
-4 -4 -5 -5 -4 -4 -5 -4 -4 -3 -3 -4 -3 -2 -2 -2 -2 -2 -2 -2 -2 -2 -2 -3 -3 -3 -3 -3 -4 -5 -5 -5 -5 -5 -6 -5 -4 -5 -5 -6 -6 -6 -5 -5 -6 -6 -6 -7 -7 -8 -8 -8 -9 -10
-6 -7 -5 -6 -7 -7 -7 -6 -6 -5 -6 -6 -4 -3 -2 -2 -2 -3 -4 -4 -4 -3 -3 -3 -3 -3 -3 -4 -4 -5 -5 -6 -6 -6 -6 -6 -6 -6 -5 -6 -7 -7 -6 -7 -7 -7 -7 -8 -8 -9 -9 -9 -10 -10
-6 -7 -8 -5 -6 -7 -7 -7 -6 -6 -5 -4 -6 -5 -4 -3 -3 -5 -5 -6 -7 -5 -4 -4 -4 -4 -4 -4 -5 -5 -6 -7 -7 -6 -6 -6 -7 -6 -6 -6 -6 -7 -7 -7 -8 -8 -8 -8 -9 -9 -10 -10 -11 -11
-7 -7 -8 -9 -6 -6 -5 -5 -6 -5 -6 -7 -5 -6 -5 -5 -6 -7 -7 -9 -9 -7 -6 -5 -5 -4 -4 -4 -4 -5 -6 -7 -7 -7 -7 -7 -8 -8 -8 -8 -8 -8 -8 -9 -8 -9 -9 -9 -10 -10 -10 -10 -11 -11
-6 -7 -7 -7 -10 -10 -7 -6 -6 -5 -6 -6 -6 -7 -7 -8 -8 -6 -6 -7 -8 -8 -6 -6 -6 -5 -5 -5 -5 -5 -5 -6 -7 -7 -7 -7 -7 -7 -8 -8 -8 -9 -9 -9 -9 -9 -10 -10 -10 -11 -11 -11 -11 -12
-7 -7 -7 -8 -8 -8 -7 -6 -7 -8 -9 -8 -8 -7 -7 -7 -7 -8 -9 -9 -9 -8 -7 -6 -6 -6 -6 -6 -6 -6 -6 -7 -7 -7 -7 -7 -7 -7 -7 -8 -8 -9 -9 -9 -9 -9 -10 -10 -11 -11 -11 -11 -12 -12
-7 -7 -7 -9 -9 -6 -7 -8 -8 -7 -8 -7 -6 -8 -8 -8 -8 -8 -7 -8 -8 -7 -7 -7 -7 -7 -7 -7 -7 -7 -7 -7 -7 -8 -7 -7 -8 -8 -8 -8 -8 -9 -9 -9 -9 -10 -10 -10 -11 -11 -11 -12 -12 -13
-6 -7 -7 -7 -8 -8 -7 -8 -8 -8 -8 -8 -8 -7 -6 -6 -7 -7 -6 -6 -8 -8 -8 -7 -8 -8 -8 -7 -7 -7 -7 -8 -8 -8 -8 -8 -8 -8 -8 -9 -9 -9 -9 -10 -10 -10 -11 -11 -11 -11 -12 -13 -13 -13

GFSWCAN_850_dewp_156.txt.gz
Dewpoint
-8 -8 -7 -7 -6 -6 -6 -8 -9 -8 -8 -9 -9 -8 -8 -7 -8 -5 -3 -3 -3 -2 -1 -2 -1 -0 0 1 1 2 1 2 2 2 2 1 -2 -4 -4 -4 -2 -4 -1 -0 -1 -0 -1 -6 -6 -4 -4 -2 -3 -3
-8 -9 -8 -8 -6 -6 -7 -9 -9 -9 -9 -10 -10 -8 -7 -7 -6 -4 -2 -2 -5 -2 -1 0 1 -0 -2 -3 -0 1 -1 -0 -0 -1 -2 -3 -3 -3 -5 -3 -7 -1 -2 -1 -2 -2 -5 -2 -3 -5 -3 -3 -2 -3
-8 -8 -8 -8 -7 -7 -9 -10 -9 -9 -9 -9 -10 -8 -6 -6 -4 -4 -2 -3 -5 -2 -2 -2 0 1 1 -2 -2 -1 -0 -2 -2 -4 -2 -1 -3 -4 -3 -3 -5 -3 -3 -1 -2 -3 -3 -4 -3 -4 -4 -3 -3 -2
-8 -8 -7 -5 -7 -10 -9 -9 -8 -11 -11 -10 -11 -9 -7 -5 -4 -3 -3 -5 -3 -1 -0 -0 -1 -0 -2 -2 -3 -2 -3 -2 -3 -3 -2 -2 -1 -2 -2 -2 -2 -2 -2 -1 -1 -2 -4 -3 -3 -3 -2 -2 -2 -2
-5 -6 -5 -6 -9 -8 -8 -9 -10 -10 -11 -10 -11 -10 -9 -6 -4 -3 -2 -3 -4 -1 -0 -0 0 -2 -2 -2 -3 -3 -3 -3 -3 -2 -1 -2 -3 -3 -2 -2 -2 -3 -2 -1 -1 -2 -2 -3 -3 -3 -3 -3 -3 -3
-5 -5 -7 -9 -9 -8 -9 -9 -10 -10 -11 -11 -9 -6 -5 -4 -4 -4 -3 -3 -2 -1 -1 0 -0 -1 -3 -3 -3 -3 -3 -3 -3 -3 -2 -2 -3 -3 -1 -1 -4 -7 -7 -5 -4 -6 -6 -6 -7 -7 -5 -6 -7 -4
-7 -8 -8 -9 -9 -10 -10 -10 -10 -11 -11 -10 -6 -4 -5 -8 -4 -3 -2 -2 -5 -1 -1 -1 -3 -1 -2 -2 -2 -2 -2 -2 -2 -2 -1 -2 -3 -2 -4 -1 -4 -5 -5 -5 -5 -6 -6 -7 -7 -8 -7 -8 -8 -3
-8 -9 -9 -10 -10 -10 -9 -9 -9 -10 -9 -7 -5 -8 -9 -5 -3 -3 -2 -0 -1 -1 -1 -2 -2 -2 -1 -2 -2 -2 -2 -2 -2 -2 -1 -2 -3 -3 -2 -4 -5 -5 -5 -6 -8 -8 -6 -6 -6 -6 -7 -7 -5 -2
-9 -7 -6 -5 -4 -4 -4 -5 -6 -7 -6 -7 -8 -6 -3 -3 -2 -1 -1 -0 -0 -0 -3 -3 -3 -3 -2 -2 -3 -2 -3 -4 -2 -4 -2 -3 -3 -2 -3 -4 -5 -7 -5 -6 -8 -7 -6 -6 -7 -7 -7 -7 -5 -4
-4 -4 -2 -3 -3 -3 -4 -4 -4 -4 -5 -4 -3 -3 -3 -2 -2 -0 -1 -2 -6 -5 -5 -3 -3 -3 -3 -3 -3 -2 -2 -3 -3 -3 -3 -3 -2 -6 -7 -7 -7 -7 -7 -6 -5 -6 -6 -6 -7 -7 -7 -8 -7 -6
-4 -4 -3 -3 -3 -3 -2 -2 -3 -2 -2 -2 -2 -3 -3 -2 -3 -5 -3 -6 -6 -7 -6 -5 -3 -3 -3 -3 -3 -4 -4 -4 -2 -3 -3 -3 -1 -3 -9 -7 -8 -6 -4 -4 -3 -4 -5 -6 -7 -7 -7 -5 -4 -3
-4 -4 -3 -3 -3 -3 -3 -3 -3 -3 -3 -4 -4 -4 -5 -5 -4 -5 -4 -4 -6 -6 -6 -6 -4 -4 -3 -4 -4 -3 -3 -3 -2 -5 -4 -4 -4 -3 -4 -3 -2 -2 -1 -3 -4 -2 -2 -3 -5 -5 -5 -6 -3 -2
-4 -4 -3 -3 -3 -5 -5 -5 -6 -10 -10 -10 -10 -8 -8 -6 -6 -7 -5 -4 -6 -5 -7 -7 -6 -4 -3 -4 -4 -4 -2 -3 -4 -7 -4 -4 -6 -1 -2 -4 -4 -6 -5 -7 -6 -6 -7 -7 -6 -3 -3 -4 -3 -1
-5 -5 -5 -6 -6 -6 -6 -9 -12 -14 -16 -11 -9 -8 -8 -8 -5 -5 -4 -4 -6 -6 -6 -8 -5 -4 -3 -4 -7 -5 -4 -4 -4 -4 -3 -4 -4 -1 -2 -3 -7 -8 -6 -3 -3 -2 -1 -2 -3 -3 -4 -4 -2 -1
-9 -8 -7 -8 -8 -10 -11 -13 -15 -16 -8 -8 -9 -9 -9 -7 -5 -6 -6 -8 -7 -7 -8 -5 -5 -4 -4 -4 -4 -4 -3 -4 -4 -5 -5 -4 -1 -2 -3 -4 -5 -4 -2 -2 -1 -1 -1 -1 -1 -1 -1 -1 -1 -2
-11 -11 -10 -9 -9 -10 -12 -14 -16 -13 -8 -7 -6 -7 -7 -9 -9 -7 -7 -8 -6 -6 -5 -5 -5 -4 -5 -4 -2 -4 -3 -4 -5 -5 -1 -0 -2 -4 -5 -4 -5 -3 -2 -1 -1 -1 -1 -1 -1 0 -1 -1 -1 -1
-13 -12 -11 -10 -11 -12 -13 -13 -12 -8 -6 -5 -6 -4 -4 -5 -5 -5 -6 -8 -6 -6 -6 -3 -3 -2 -2 -1 -1 -4 -7 -5 -1 -1 -1 -1 -2 -2 -3 -3 -3 -3 -3 -3 -2 -2 -1 -1 -1 -1 -2 -2 -3 -4
-14 -13 -11 -12 -13 -14 -13 -10 -7 -6 -5 -6 -6 -5 -6 -7 -7 -6 -7 -6 -6 -4 -4 -1 -4 -3 -6 -4 -4 -3 -1 -2 -5 -5 -2 -2 -3 -4 -3 -3 -3 -3 -3 -3 -3 -3 -3 -3 -3 -3 -4 -4 -4 -5
-12 -12 -12 -7 -5 -5 -7 -7 -8 -5 -5 -4 -4 -4 -4 -4 -4 -4 -5 -6 -7 -4 -4 -3 -4 -5 -5 -5 -5 -4 -4 -4 -5 -4 -2 -2 -3 -3 -4 -3 -3 -3 -4 -4 -4 -4 -5 -5 -5 -5 -4 -4 -5 -5
-10 -12 -9 -5 -5 -5 -5 -5 -5 -6 -4 -5 -6 -5 -5 -4 -3 -2 -2 -3 -4 -3 -4 -4 -5 -6 -7 -7 -6 -5 -5 -4 -2 -2 -5 -5 -4 -3 -4 -3 -3 -3 -4 -4 -5 -5 -4 -5 -5 -5 -5 -5 -5 -6
-9 -9 -7 -5 -6 -5 -5 -5 -4 -4 -3 -2 -3 -2 -3 -2 -3 -3 -2 -4 -3 -3 -4 -7 -8 -8 -8 -8 -6 -5 -5 -5 -5 -4 -4 -4 -4 -3 -3 -3 -3 -3 -4 -4 -4 -5 -5 -6 -6 -6 -5 -6 -6 -6
-8 -6 -6 -6 -6 -6 -5 -4 -3 -3 -3 -3 -3 -2 -2 -2 -2 -3 -2 -3 -4 -5 -5 -7 -8 -6 -6 -8 -9 -6 -4 -3 -4 -4 -4 -3 -3 -3 -4 -4 -4 -4 -4 -5 -5 -5 -6 -5 -6 -7 -7 -7 -8 -8
-7 -7 -7 -7 -7 -6 -6 -3 -4 -4 -4 -5 -2 -2 -3 -2 -1 -2 -2 -2 -2 -4 -5 -5 -5 -5 -6 -5 -2 -3 -4 -5 -5 -4 -4 -4 -4 -4 -4 -4 -4 -4 -4 -5 -5 -5 -6 -5 -6 -6 -6 -7 -7 -7
-7 -7 -7 -6 -4 -6 -3 -4 -3 -4 -3 -4 -3 -3 -4 -2 -2 -2 -2 -3 -3 -4 -4 -2 -2 -2 -1 -2 -3 -3 -3 -4 -4 -4 -4 -4 -4 -4 -4 -4 -3 -3 -4 -4 -4 -5 -5 -5 -5 -6 -6 -6 -7 -7
-4 -6 -4 -6 -3 -3 -5 -6 -5 -3 -6 -6 -4 -5 -5 -2 -4 -3 -3 -3 -2 -2 -2 -2 -1 -2 -1 -2 -2 -3 -3 -4 -5 -5 -5 -4 -4 -4 -4 -4 -4 -4 -4 -4 -4 -4 -5 -5 -5 -5 -6 -7 -7 -7
-6 -5 -5 -6 -6 -6 -6 -6 -6 -5 -4 -6 -6 -4 -2 -4 -3 -3 -3 -3 -3 -2 -2 -2 -3 -2 -3 -3 -3 -3 -4 -4 -5 -5 -5 -5 -5 -5 -4 -5 -5 -5 -4 -4 -4 -4 -5 -5 -5 -6 -7 -7 -7 -8
-7 -11 -4 -5 -6 -7 -9 -7 -6 -8 -9 -9 -7 -6 -5 -4 -5 -4 -4 -4 -6 -5 -4 -3 -3 -3 -3 -3 -3 -4 -4 -5 -5 -6 -5 -6 -6 -5 -5 -6 -6 -6 -6 -6 -6 -6 -6 -6 -6 -7 -7 -8 -8 -9
-6 -6 -7 -6 -7 -7 -10 -11 -10 -10 -9 -5 -6 -8 -7 -5 -6 -4 -6 -7 -7 -8 -9 -5 -4 -3 -3 -4 -4 -4 -5 -5 -6 -7 -6 -6 -6 -6 -6 -6 -6 -6 -6 -7 -7 -7 -7 -7 -8 -8 -8 -9 -9 -9
-7 -7 -8 -11 -7 -6 -7 -9 -10 -7 -6 -7 -10 -8 -8 -5 -5 -6 -7 -8 -8 -7 -7 -8 -5 -4 -4 -4 -4 -4 -5 -5 -7 -7 -7 -7 -7 -8 -8 -7 -7 -7 -7 -7 -8 -8 -8 -8 -8 -9 -9 -9 -10 -10
-7 -6 -7 -9 -11 -11 -9 -7 -6 -6 -6 -6 -6 -7 -7 -7 -9 -10 -10 -9 -8 -8 -7 -8 -6 -6 -6 -5 -5 -5 -5 -5 -5 -6 -7 -7 -8 -7 -8 -8 -8 -8 -8 -8 -8 -9 -9 -9 -9 -9 -10 -10 -10 -11
-7 -6 -7 -7 -9 -8 -8 -7 -7 -7 -7 -7 -8 -7 -8 -8 -9 -9 -10 -11 -9 -7 -7 -7 -7 -6 -6 -6 -6 -6 -6 -6 -6 -7 -7 -7 -7 -7 -6 -7 -8 -8 -9 -9 -9 -9 -9 -10 -10 -10 -10 -11 -11 -11
-7 -8 -8 -10 -9 -8 -8 -9 -9 -9 -9 -8 -8 -8 -7 -7 -7 -9 -10 -8 -8 -8 -8 -7 -7 -7 -7 -7 -7 -7 -7 -7 -7 -7 -8 -7 -7 -7 -7 -8 -8 -8 -9 -9 -9 -10 -10 -10 -10 -11 -11 -11 -11 -11
-7 -7 -6 -6 -7 -8 -7 -7 -8 -8 -8 -7 -8 -8 -8 -7 -7 -9 -7 -8 -7 -7 -8 -8 -8 -8 -8 -8 -8 -7 -8 -8 -8 -8 -7 -8 -8 -8 -8 -8 -8 -9 -9 -10 -10 -10 -10 -11 -11 -11 -11 -11 -12 -12

GFSWCAN_850_dewp_159.txt.gz
Dewpoint
-4 -8 -8 -9 -8 -6 -5 -5 -5 -5 -6 -10 -9 -8 -9 -9 -8 -6 -4 -5 -4 -4 -4 -4 -2 -1 -0 -0 0 1 2 2 2 2 3 2 1 -1 2 1 -2 -2 1 2 2 2 1 -6 -7 -4 -5 -4 -3 -2
-3 -5 -8 -9 -9 -7 -7 -6 -5 -5 -7 -10 -10 -8 -9 -9 -8 -6 -4 -6 -5 -3 -4 -3 -6 -6 -1 0 1 1 0 1 1 2 1 1 1 -2 -3 -0 -5 2 -1 -1 -1 -1 -5 -5 -5 -5 -4 -2 -2 -3
-2 -4 -8 -9 -8 -7 -7 -6 -5 -6 -9 -10 -9 -9 -10 -10 -8 -6 -5 -5 -3 -3 -3 -4 -5 -8 -5 -2 1 1 0 -1 -0 -2 -1 -0 -0 -3 0 0 -4 -5 -4 -2 -3 -4 -5 -7 -4 -4 -5 -4 -2 -3
-3 -3 -7 -9 -9 -8 -7 -6 -5 -7 -10 -10 -10 -10 -11 -10 -7 -7 -5 -4 -3 -3 -3 -5 -8 -5 -10 -7 0 -0 1 -2 -2 -2 -2 -2 -2 -2 -2 -2 -2 -3 -2 -2 -2 -3 -3 -3 -4 -3 -4 -4 -4 -3
-3 -3 -7 -8 -9 -8 -7 -5 -6 -10 -10 -10 -11 -10 -10 -9 -6 -4 -4 -4 -4 -3 -2 -2 -3 -2 0 -1 0 1 0 -2 -2 -1 -2 -2 -3 -3 -3 -2 -2 -3 -2 -1 -1 -3 -3 -3 -3 -2 -2 -2 -2 -2
-3 -4 -8 -8 -6 -5 -4 -5 -10 -10 -9 -11 -12 -10 -10 -9 -5 -4 -4 -4 -5 -3 -3 -1 -0 -0 -2 0 1 -1 -3 -2 -3 -3 -2 -3 -4 -4 -3 -2 -4 -8 -8 -5 -4 -6 -3 -6 -4 -3 -4 -4 -3 -4
-3 -4 -5 -5 -5 -4 -6 -10 -9 -8 -9 -10 -12 -10 -10 -6 -5 -4 -5 -3 -5 -4 -2 -1 -1 -0 -0 -0 -2 -3 -3 -3 -3 -2 -2 -2 -3 -2 -4 -1 -4 -6 -6 -7 -4 -5 -5 -6 -7 -7 -7 -7 -6 -7
-5 -5 -5 -6 -8 -9 -9 -8 -8 -8 -9 -10 -10 -9 -6 -5 -4 -5 -9 -2 -3 -3 -3 -1 -0 0 0 -1 -1 -2 -2 -2 -2 -2 -1 -2 -3 -3 -3 -4 -6 -7 -6 -5 -6 -6 -6 -7 -7 -7 -7 -7 -7 -7
-10 -9 -9 -8 -8 -8 -8 -9 -9 -10 -10 -8 -7 -5 -4 -4 -5 -6 -8 -7 -4 -2 -1 -1 -1 -1 -2 -2 -2 -2 -3 -4 -2 -4 -3 -3 -3 -2 -3 -4 -6 -8 -6 -7 -8 -8 -7 -7 -7 -6 -6 -6 -6 -6
-3 -3 -3 -5 -8 -10 -7 -9 -9 -9 -6 -5 -5 -5 -5 -5 -8 -3 -3 -2 -2 -1 -1 -2 -3 -1 -3 -3 -3 -3 -3 -4 -3 -3 -3 -4 -2 -5 -7 -8 -8 -8 -8 -7 -6 -5 -7 -6 -7 -7 -6 -7 -7 -7
-3 -2 -3 -3 -3 -4 -5 -7 -6 -6 -5 -5 -5 -4 -3 -3 -2 -3 -3 -3 -4 -3 -4 -4 -3 -2 -3 -3 -3 -4 -4 -4 -3 -4 -3 -3 -2 -4 -10 -8 -7 -8 -7 -6 -6 -5 -4 -3 -3 -4 -4 -6 -7 -7
-3 -3 -3 -2 -5 -4 -3 -4 -5 -4 -5 -6 -3 -3 -3 -3 -3 -4 -4 -3 -5 -7 -5 -4 -4 -3 -3 -4 -4 -4 -3 -4 -3 -5 -5 -4 -5 -9 -5 -5 -5 -1 -1 -1 -1 -3 -6 -7 -5 -2 -3 -4 -6 -6
-4 -3 -4 -3 -3 -4 -5 -4 -5 -6 -3 -3 -3 -4 -4 -4 -4 -6 -6 -3 -6 -5 -7 -5 -5 -3 -4 -4 -4 -4 -3 -4 -5 -7 -4 -4 -7 -6 -2 -1 -1 -2 -3 -5 -8 -7 -8 -8 -5 -5 -6 -3 -2 -4
-7 -7 -6 -6 -3 -3 -3 -3 -2 -2 -4 -9 -7 -5 -6 -6 -5 -5 -4 -4 -6 -6 -7 -5 -4 -3 -3 -5 -7 -5 -5 -4 -4 -5 -3 -5 -9 -4 -2 -3 -4 -5 -6 -8 -7 -6 -4 -2 -2 -2 -3 -4 -3 -2
-10 -11 -11 -12 -12 -12 -10 -9 -7 -7 -8 -8 -9 -8 -7 -7 -5 -5 -6 -6 -5 -6 -7 -6 -5 -4 -4 -5 -4 -5 -4 -4 -4 -5 -6 -6 -3 -2 -2 -3 -6 -7 -7 -6 -3 -2 -1 -1 -2 -1 -2 -3 -3 -2
-13 -14 -14 -15 -15 -16 -16 -18 -19 -13 -8 -7 -5 -9 -8 -9 -10 -7 -8 -5 -7 -8 -8 -7 -6 -5 -6 -5 -3 -5 -4 -4 -6 -6 -2 -2 -1 -2 -3 -4 -5 -4 -3 -3 -2 -1 -1 -1 -2 -1 -0 -1 -2 -1
-16 -14 -14 -15 -16 -17 -18 -19 -14 -9 -7 -7 -6 -5 -5 -6 -6 -5 -7 -6 -6 -5 -6 -4 -5 -5 -4 -3 -2 -4 -6 -7 -3 -3 -5 -5 -4 -4 -4 -6 -5 -4 -3 -3 -4 -3 -2 -2 -2 -1 -1 -1 -1 -2
-14 -12 -13 -15 -18 -19 -18 -12 -9 -8 -6 -5 -7 -6 -7 -7 -7 -7 -6 -6 -7 -5 -4 -3 -4 -2 -5 -3 -5 -6 -5 -6 -5 -4 -5 -7 -7 -3 -3 -4 -5 -4 -3 -4 -4 -4 -3 -3 -2 -2 -3 -3 -3 -3
-14 -12 -11 -13 -12 -9 -8 -7 -8 -6 -6 -5 -5 -5 -5 -5 -5 -4 -5 -7 -7 -5 -4 -3 -2 -3 -5 -6 -6 -6 -4 -4 -5 -5 -5 -5 -4 -3 -3 -3 -4 -4 -4 -4 -4 -4 -5 -4 -4 -4 -4 -4 -4 -5
-14 -11 -9 -8 -8 -8 -6 -6 -6 -6 -5 -4 -4 -4 -4 -5 -4 -4 -3 -3 -4 -4 -3 -3 -4 -6 -8 -10 -9 -6 -7 -7 -6 -5 -5 -5 -5 -4 -3 -3 -4 -3 -3 -4 -4 -5 -5 -5 -5 -5 -5 -5 -5 -5
-11 -12 -11 -10 -9 -8 -6 -5 -5 -4 -3 -3 -3 -3 -4 -4 -3 -3 -3 -2 -3 -3 -4 -6 -7 -7 -9 -9 -9 -8 -7 -6 -7 -5 -4 -4 -4 -3 -3 -3 -3 -3 -4 -4 -4 -5 -5 -5 -5 -5 -5 -5 -5 -5
-8 -9 -9 -10 -8 -8 -7 -4 -4 -3 -3 -4 -3 -3 -4 -3 -3 -3 -3 -2 -3 -5 -6 -6 -7 -8 -9 -10 -10 -8 -7 -6 -4 -3 -4 -4 -4 -4 -4 -4 -4 -4 -4 -4 -4 -4 -5 -5 -5 -6 -6 -5 -6 -6
-7 -8 -8 -7 -7 -8 -7 -3 -4 -4 -4 -5 -3 -3 -4 -3 -2 -2 -2 -2 -4 -4 -5 -5 -6 -6 -6 -6 -6 -6 -5 -3 -3 -4 -4 -4 -4 -4 -4 -4 -4 -4 -4 -4 -4 -5 -5 -5 -5 -6 -7 -7 -7 -7
-6 -7 -6 -5 -5 -7 -4 -5 -4 -3 -4 -4 -3 -4 -4 -3 -2 -3 -3 -4 -2 -2 -2 -2 -2 -3 -4 -3 -3 -4 -3 -3 -3 -3 -3 -4 -4 -4 -4 -4 -4 -4 -4 -4 -4 -5 -5 -5 -5 -5 -6 -6 -7 -7
-4 -6 -5 -8 -5 -4 -6 -6 -6 -4 -6 -6 -4 -6 -6 -2 -4 -3 -4 -3 -2 -2 -2 -2 -2 -2 -2 -1 -1 -2 -2 -3 -3 -4 -4 -5 -5 -4 -4 -4 -4 -4 -4 -4 -4 -4 -4 -5 -5 -5 -5 -6 -6 -7
-7 -6 -6 -6 -7 -6 -7 -6 -8 -6 -7 -8 -8 -6 -3 -4 -4 -4 -3 -4 -4 -4 -4 -4 -3 -3 -3 -3 -3 -3 -3 -3 -4 -5 -5 -4 -5 -6 -5 -4 -5 -5 -4 -4 -4 -4 -4 -4 -5 -5 -5 -6 -6 -7
-7 -10 -5 -5 -5 -7 -9 -8 -7 -8 -9 -10 -9 -8 -6 -6 -7 -6 -4 -5 -6 -8 -8 -9 -8 -4 -4 -3 -3 -3 -4 -4 -4 -5 -6 -6 -5 -6 -6 -5 -5 -5 -6 -6 -5 -5 -5 -5 -5 -5 -6 -6 -7 -7
-6 -6 -7 -7 -6 -7 -10 -11 -11 -11 -10 -7 -6 -8 -9 -7 -7 -4 -4 -7 -7 -7 -8 -9 -9 -8 -5 -3 -3 -3 -4 -4 -5 -6 -7 -6 -6 -6 -7 -7 -6 -6 -6 -6 -7 -7 -6 -6 -6 -7 -7 -7 -8 -8
-6 -7 -7 -10 -7 -7 -7 -9 -10 -9 -7 -6 -11 -10 -9 -7 -7 -8 -8 -8 -8 -8 -10 -10 -8 -8 -6 -5 -4 -4 -4 -5 -5 -5 -6 -6 -6 -7 -8 -8 -8 -7 -6 -6 -7 -7 -7 -7 -8 -8 -8 -8 -8 -9
-8 -6 -7 -10 -11 -9 -9 -8 -7 -6 -6 -6 -6 -6 -7 -7 -8 -8 -8 -9 -10 -10 -10 -8 -7 -7 -7 -6 -5 -5 -5 -5 -5 -5 -6 -6 -7 -7 -7 -8 -8 -8 -7 -7 -7 -8 -8 -9 -9 -9 -9 -9 -9 -10
-8 -6 -6 -7 -9 -9 -11 -10 -9 -8 -8 -8 -9 -7 -7 -8 -9 -10 -11 -11 -10 -9 -8 -7 -7 -7 -7 -7 -7 -6 -6 -6 -6 -6 -6 -7 -7 -7 -7 -7 -7 -8 -8 -9 -9 -9 -9 -9 -9 -9 -10 -10 -10 -10
-8 -7 -9 -11 -9 -10 -8 -8 -8 -8 -9 -8 -9 -9 -8 -7 -7 -9 -9 -8 -7 -7 -7 -8 -8 -8 -7 -7 -7 -7 -7 -7 -8 -8 -8 -8 -8 -7 -8 -8 -8 -8 -9 -9 -9 -9 -10 -10 -10 -10 -10 -11 -11 -11
-7 -7 -7 -7 -8 -9 -7 -7 -8 -9 -9 -8 -8 -8 -8 -7 -8 -8 -7 -7 -8 -8 -8 -8 -8 -8 -8 -8 -8 -8 -8 -7 -7 -8 -8 -8 -8 -8 -8 -8 -8 -9 -9 -10 -10 -10 -10 -10 -10 -11 -11 -11 -11 -12

GFSWCAN_850_dewp_162.txt.gz
Dewpoint
-2 -2 -2 -6 -7 -7 -6 -6 -5 -4 -4 -4 -4 -6 -10 -11 -7 -6 -5 -3 -5 -4 -4 -4 -3 -3 -4 -1 1 1 1 2 2 2 3 2 2 1 1 1 -1 1 3 3 3 4 3 -5 -6 -6 -5 -6 -4 -3
-4 -2 -2 -2 -6 -7 -8 -6 -4 -4 -3 -3 -4 -5 -10 -10 -9 -8 -5 -4 -4 -3 -4 -4 -4 -6 -4 -5 -4 -1 0 1 1 2 1 1 2 -0 -2 -1 -2 1 1 2 1 1 -3 -6 -8 -8 -8 -6 -5 -5
-3 -5 -2 -2 -3 -7 -8 -8 -4 -4 -3 -4 -4 -6 -10 -9 -9 -8 -7 -6 -4 -3 -4 -4 -4 -8 -7 -6 -6 -1 -1 -0 0 0 -0 1 1 -1 1 0 -2 -3 -2 1 -1 -3 -5 -7 -6 -5 -5 -5 -4 -4
-3 -3 -3 -3 -3 -6 -8 -8 -7 -6 -5 -5 -5 -8 -10 -8 -8 -9 -7 -7 -5 -4 -3 -6 -8 -8 -10 -10 -11 -9 -2 0 1 0 -0 -1 0 -3 -2 -3 -2 -3 -2 -2 -1 -3 -3 -5 -6 -5 -4 -3 -3 -3
-3 -3 -2 -3 -4 -7 -8 -8 -6 -5 -5 -4 -7 -10 -9 -9 -10 -8 -6 -6 -6 -4 -4 -3 -4 -4 -4 -4 -7 -7 -7 -2 1 -0 -1 -2 -3 -3 -3 -2 -2 -3 -3 -1 -1 -4 -2 -3 -2 -3 -3 -4 -3 -3
-4 -3 -3 -3 -5 -8 -8 -6 -6 -5 -4 -7 -11 -10 -10 -9 -9 -6 -4 -5 -5 -4 -4 -5 -4 -3 -2 -1 -1 -1 -1 -0 0 -0 -1 -3 -4 -4 -2 -2 -5 -7 -7 -7 -5 -8 -4 -5 -5 -3 -3 -2 -3 -3
-3 -3 -3 -4 -8 -9 -8 -7 -6 -4 -7 -11 -10 -11 -10 -9 -7 -5 -4 -5 -5 -5 -3 -4 -4 -2 -5 -0 -0 -0 -0 0 -0 -1 -2 -3 -3 -2 -3 -2 -6 -9 -10 -9 -6 -5 -5 -5 -5 -6 -5 -5 -4 -3
-4 -4 -4 -7 -7 -7 -5 -5 -5 -5 -9 -9 -9 -11 -8 -8 -7 -5 -6 -4 -3 -4 -4 -3 -3 -1 -1 -1 -1 -0 -1 -1 -2 -2 -2 -2 -3 -3 -2 -4 -7 -8 -7 -6 -7 -7 -5 -6 -6 -8 -9 -8 -7 -8
-5 -4 -4 -5 -5 -4 -4 -5 -8 -8 -7 -9 -11 -10 -7 -5 -4 -5 -7 -8 -8 -5 -3 -3 -2 -1 -1 -1 -1 -2 -3 -2 -3 -4 -3 -3 -3 -2 -3 -5 -6 -7 -6 -7 -8 -8 -7 -6 -7 -6 -6 -6 -5 -6
-4 -7 -5 -5 -4 -5 -7 -8 -7 -8 -9 -8 -7 -6 -6 -6 -7 -7 -5 -6 -3 -3 -4 -2 -2 -0 -2 -3 -2 -2 -4 -3 -1 -3 -3 -4 -3 -4 -6 -8 -8 -9 -8 -6 -6 -6 -7 -7 -7 -8 -8 -7 -7 -6
-3 -4 -5 -8 -7 -8 -8 -7 -7 -8 -8 -7 -6 -7 -7 -5 -7 -8 -3 -3 -3 -3 -3 -2 -2 -1 -2 -2 -2 -4 -4 -4 -3 -4 -3 -3 -2 -4 -10 -10 -8 -6 -6 -6 -6 -5 -5 -5 -4 -3 -3 -2 -4 -5
-3 -3 -3 -6 -8 -7 -7 -8 -8 -8 -7 -8 -7 -5 -4 -3 -3 -3 -3 -3 -4 -5 -4 -3 -2 -1 -2 -3 -4 -4 -4 -5 -4 -5 -5 -4 -4 -8 -8 -7 -4 -3 -1 -2 -2 -1 -2 -4 -6 -5 -6 -6 -4 -3
-3 -4 -5 -5 -7 -7 -7 -9 -8 -8 -7 -7 -4 -3 -3 -4 -4 -4 -5 -3 -7 -5 -5 -3 -2 -3 -4 -4 -4 -5 -5 -5 -5 -7 -4 -4 -6 -8 -7 -3 -1 -0 -1 -3 -6 -6 -4 -3 -2 -2 -2 -2 -3 -5
-4 -3 -4 -4 -8 -10 -8 -7 -6 -6 -7 -4 -4 -5 -5 -5 -5 -6 -5 -5 -7 -6 -5 -4 -3 -3 -4 -5 -8 -6 -5 -4 -4 -4 -3 -5 -7 -7 -4 -3 -3 -3 -4 -6 -8 -7 -3 -2 -2 -2 -2 -2 -3 -3
-12 -8 -5 -3 -6 -8 -8 -5 -7 -7 -3 -4 -6 -8 -5 -7 -6 -6 -6 -5 -5 -5 -5 -5 -5 -4 -5 -6 -5 -5 -3 -3 -4 -4 -6 -8 -5 -3 -3 -2 -4 -6 -6 -6 -5 -6 -3 -2 -2 -2 -1 -1 -2 -2
-13 -14 -11 -6 -6 -5 -5 -3 -3 -3 -4 -5 -6 -8 -8 -8 -9 -8 -7 -5 -6 -7 -9 -8 -6 -7 -6 -5 -3 -5 -4 -4 -6 -6 -8 -6 -4 -4 -5 -5 -5 -5 -5 -5 -4 -3 -2 -2 -1 -2 -1 -2 -1 -2
-16 -14 -15 -15 -9 -8 -5 -3 -3 -6 -7 -7 -7 -5 -7 -7 -7 -6 -8 -6 -6 -7 -6 -4 -6 -6 -5 -4 -4 -5 -7 -8 -8 -9 -7 -6 -6 -4 -4 -4 -4 -5 -5 -4 -4 -3 -4 -3 -2 -2 -2 -2 -2 -2
-16 -14 -17 -19 -18 -13 -10 -9 -9 -8 -6 -6 -9 -6 -6 -6 -6 -7 -7 -6 -7 -6 -5 -4 -5 -3 -4 -4 -6 -6 -6 -8 -9 -8 -6 -6 -5 -5 -4 -3 -3 -4 -4 -4 -4 -4 -4 -3 -3 -3 -3 -3 -3 -3
-15 -15 -14 -15 -17 -15 -10 -8 -9 -7 -6 -5 -5 -5 -5 -5 -5 -5 -5 -6 -5 -4 -4 -3 -4 -4 -5 -6 -6 -8 -8 -7 -7 -7 -6 -5 -5 -5 -4 -3 -4 -3 -4 -4 -4 -4 -4 -4 -4 -4 -4 -4 -4 -4
-15 -14 -14 -14 -11 -10 -8 -6 -7 -7 -6 -5 -5 -4 -5 -5 -5 -4 -4 -3 -4 -5 -4 -3 -4 -5 -6 -8 -9 -8 -8 -6 -6 -7 -9 -10 -6 -5 -5 -4 -3 -3 -4 -3 -4 -5 -5 -5 -5 -5 -5 -5 -5 -5
-12 -12 -12 -13 -11 -9 -7 -6 -4 -4 -4 -4 -4 -4 -4 -5 -3 -3 -3 -3 -3 -4 -4 -5 -6 -8 -8 -8 -8 -8 -8 -8 -8 -8 -8 -6 -4 -4 -4 -5 -4 -4 -4 -4 -4 -5 -5 -5 -5 -6 -6 -6 -6 -6
-8 -10 -11 -10 -9 -8 -6 -4 -4 -3 -3 -4 -4 -4 -4 -4 -3 -3 -3 -3 -3 -4 -5 -6 -6 -6 -7 -8 -9 -9 -9 -10 -8 -7 -8 -4 -3 -4 -4 -4 -4 -4 -4 -4 -4 -5 -5 -5 -5 -5 -6 -6 -6 -6
-7 -8 -7 -8 -8 -9 -6 -4 -4 -4 -4 -5 -4 -3 -5 -4 -3 -3 -3 -3 -3 -4 -4 -4 -3 -3 -5 -6 -6 -7 -7 -8 -7 -6 -4 -3 -4 -4 -4 -4 -4 -4 -4 -4 -4 -4 -5 -5 -5 -5 -6 -6 -6 -6
-5 -6 -6 -5 -5 -8 -5 -4 -5 -3 -4 -5 -4 -4 -5 -4 -2 -3 -3 -4 -3 -3 -3 -3 -2 -2 -2 -2 -3 -4 -4 -4 -4 -3 -3 -3 -3 -4 -4 -4 -5 -4 -4 -4 -4 -5 -5 -5 -5 -5 -6 -6 -7 -7
-5 -6 -6 -11 -6 -5 -10 -9 -8 -5 -5 -7 -5 -8 -8 -4 -4 -4 -4 -4 -4 -5 -6 -9 -9 -5 -3 -3 -3 -3 -3 -3 -3 -3 -3 -4 -4 -5 -5 -4 -4 -5 -4 -4 -4 -4 -4 -5 -5 -5 -5 -6 -6 -6
-7 -6 -6 -8 -8 -5 -8 -8 -10 -8 -9 -8 -10 -8 -5 -5 -5 -5 -4 -4 -4 -7 -8 -9 -9 -11 -10 -5 -3 -3 -3 -3 -3 -4 -4 -5 -4 -5 -6 -5 -5 -5 -5 -4 -4 -5 -5 -5 -5 -5 -5 -5 -6 -6
-7 -10 -6 -5 -5 -6 -9 -9 -8 -9 -9 -11 -10 -10 -8 -7 -9 -8 -5 -4 -5 -7 -8 -8 -8 -9 -10 -8 -4 -3 -3 -4 -4 -4 -5 -6 -5 -5 -6 -5 -5 -5 -6 -6 -6 -5 -5 -5 -5 -5 -5 -6 -6 -6
-6 -6 -8 -7 -6 -7 -9 -11 -11 -11 -10 -8 -7 -7 -10 -9 -8 -4 -5 -6 -6 -7 -7 -7 -8 -9 -8 -8 -6 -4 -4 -4 -4 -5 -6 -5 -5 -6 -6 -6 -7 -6 -6 -6 -7 -7 -7 -6 -6 -6 -6 -6 -7 -7
-6 -7 -7 -10 -8 -7 -8 -8 -10 -9 -9 -6 -9 -9 -9 -9 -9 -9 -9 -9 -9 -7 -7 -7 -8 -9 -7 -8 -6 -5 -5 -4 -4 -5 -5 -5 -6 -6 -7 -8 -8 -8 -7 -6 -6 -7 -7 -7 -7 -7 -7 -8 -8 -8
-8 -7 -7 -10 -12 -10 -9 -9 -9 -10 -9 -8 -7 -7 -7 -8 -9 -9 -9 -9 -8 -8 -9 -9 -9 -8 -7 -7 -6 -6 -5 -5 -5 -6 -6 -6 -6 -7 -7 -7 -8 -8 -7 -8 -7 -7 -8 -8 -8 -8 -9 -9 -9 -9
-7 -7 -7 -7 -11 -9 -10 -10 -10 -10 -10 -9 -9 -7 -7 -8 -9 -8 -8 -8 -7 -7 -7 -8 -8 -8 -8 -7 -8 -7 -6 -6 -6 -6 -6 -7 -7 -7 -7 -7 -7 -8 -8 -9 -9 -9 -9 -9 -9 -9 -9 -9 -10 -10
-8 -8 -8 -11 -12 -9 -8 -9 -8 -8 -9 -9 -9 -9 -9 -8 -8 -8 -8 -8 -9 -9 -9 -9 -8 -8 -8 -8 -7 -7 -7 -7 -7 -7 -8 -8 -8 -8 -7 -8 -8 -8 -9 -9 -9 -10 -10 -10 -10 -10 -10 -10 -10 -11
-8 -8 -8 -9 -9 -10 -10 -7 -8 -10 -10 -9 -8 -8 -7 -8 -8 -8 -9 -9 -9 -9 -9 -9 -9 -9 -8 -8 -8 -9 -8 -8 -7 -7 -8 -8 -8 -8 -8 -8 -9 -9 -9 -10 -10 -10 -10 -10 -10 -11 -11 -11 -11 -11

GFSWCAN_850_dewp_165.txt.gz
Dewpoint
-4 -4 -3 -2 -3 -4 -9 -7 -7 -6 -4 -4 -3 -3 -3 -6 -11 -7 -4 -3 -5 -4 -5 -5 -5 -6 -6 -7 -3 -2 -1 1 1 1 2 2 1 1 1 -1 -1 -1 0 2 3 4 3 -3 -4 -2 -4 -7 -5 -5
-3 -5 -4 -5 -2 -3 -4 -8 -6 -6 -6 -5 -3 -3 -3 -4 -10 -8 -3 -4 -4 -3 -5 -4 -5 -6 -6 -6 -3 -3 -3 -1 -0 -0 -0 2 2 1 1 1 -2 1 -1 1 2 2 -1 -2 -4 -5 -8 -8 -7 -7
-4 -4 -4 -4 -4 -2 -2 -7 -7 -6 -6 -5 -3 -3 -3 -4 -9 -9 -4 -4 -4 -4 -4 -4 -4 -9 -8 -7 -8 -4 -5 -4 -1 -0 -0 1 1 -1 1 0 -2 -2 -1 0 -0 -1 -2 -3 -2 -3 -4 -7 -6 -5
-3 -4 -5 -4 -4 -3 -2 -4 -8 -6 -5 -4 -3 -3 -3 -4 -8 -7 -6 -5 -5 -5 -4 -6 -8 -7 -9 -9 -8 -7 -5 -4 -2 0 -0 -0 1 -2 -2 -3 -2 -3 -2 -1 -1 -2 -2 -2 -3 -3 -3 -4 -3 -4
-4 -4 -5 -4 -3 -2 -3 -4 -8 -8 -5 -3 -3 -3 -4 -5 -10 -7 -7 -7 -7 -6 -4 -4 -5 -6 -7 -7 -7 -7 -5 -3 -3 -2 -0 0 -0 -1 -3 -3 -2 -4 -2 0 -0 -3 -3 -4 -4 -2 -3 -4 -3 -2
-3 -4 -3 -3 -3 -3 -3 -5 -8 -8 -6 -5 -4 -4 -5 -10 -8 -6 -5 -7 -7 -6 -4 -4 -7 -9 -7 -5 -4 -1 -3 -3 -2 -3 -2 -1 -2 -1 -0 -2 -4 -6 -6 -6 -5 -6 -5 -4 -5 -5 -4 -3 -2 -2
-4 -4 -2 -3 -3 -3 -5 -8 -8 -6 -5 -4 -4 -6 -9 -9 -7 -7 -7 -4 -6 -5 -4 -4 -5 -7 -5 -6 -3 -2 -2 -2 -3 -3 -1 -2 -1 -1 -2 -1 -5 -7 -9 -9 -8 -8 -5 -6 -7 -6 -6 -6 -2 -2
-3 -3 -3 -3 -4 -7 -7 -6 -5 -4 -4 -6 -8 -9 -9 -8 -7 -6 -6 -4 -4 -4 -4 -3 -4 -4 -3 -1 -1 -1 -1 -1 -1 -1 -1 -1 -2 -2 -1 -4 -5 -6 -6 -7 -9 -7 -7 -7 -6 -6 -6 -7 -7 -8
-4 -3 -4 -4 -6 -7 -6 -5 -4 -4 -5 -6 -7 -8 -6 -5 -5 -6 -9 -7 -6 -5 -4 -5 -4 -5 -2 -1 -1 -2 -1 -1 -2 -1 -1 -2 -2 -1 -4 -5 -6 -9 -7 -8 -8 -7 -7 -7 -7 -7 -7 -6 -6 -7
-4 -4 -4 -6 -7 -6 -5 -5 -5 -5 -5 -6 -9 -10 -7 -8 -6 -6 -6 -6 -4 -4 -4 -4 -5 -2 -3 -2 -1 -1 -2 -1 -1 -1 -3 -2 -2 -4 -7 -7 -8 -9 -9 -7 -5 -5 -6 -6 -6 -6 -6 -6 -6 -7
-4 -4 -4 -5 -4 -4 -5 -7 -5 -5 -8 -9 -9 -8 -5 -6 -6 -6 -5 -4 -5 -4 -3 -4 -6 -5 -2 -1 -1 -3 -2 -3 -3 -3 -2 -2 -2 -3 -7 -9 -8 -5 -4 -4 -5 -5 -5 -4 -3 -3 -3 -3 -3 -4
-5 -6 -5 -5 -5 -7 -8 -7 -7 -9 -9 -9 -9 -6 -5 -4 -5 -5 -5 -4 -3 -4 -3 -2 -2 -2 -1 -1 -2 -3 -3 -4 -4 -4 -2 -2 -3 -7 -8 -8 -5 -3 -2 -2 -3 -4 -5 -5 -5 -4 -4 -3 -2 -3
-5 -6 -5 -7 -8 -8 -7 -7 -8 -10 -9 -7 -4 -4 -7 -6 -3 -4 -5 -3 -3 -5 -4 -2 -1 -2 -2 -2 -4 -4 -3 -4 -5 -3 -2 -4 -6 -8 -8 -6 -3 -2 -2 -3 -5 -6 -7 -5 -7 -3 -3 -3 -2 -2
-5 -6 -8 -8 -8 -8 -8 -8 -9 -9 -9 -8 -5 -4 -4 -4 -4 -5 -5 -5 -7 -6 -5 -2 -3 -2 -4 -3 -5 -5 -4 -4 -2 -2 -3 -5 -7 -8 -9 -5 -4 -3 -3 -4 -6 -7 -7 -5 -6 -3 -2 -1 -2 -2
-5 -6 -7 -7 -7 -8 -9 -9 -8 -8 -7 -4 -5 -6 -5 -6 -7 -6 -6 -5 -5 -5 -3 -3 -4 -4 -4 -4 -5 -4 -3 -3 -3 -4 -4 -7 -9 -9 -6 -3 -3 -5 -5 -5 -5 -5 -4 -3 -3 -2 -2 -2 -3 -2
-5 -4 -7 -8 -8 -8 -8 -6 -6 -5 -5 -4 -5 -7 -7 -7 -7 -8 -7 -5 -5 -5 -4 -7 -5 -5 -4 -4 -3 -4 -4 -4 -5 -4 -8 -10 -7 -5 -5 -5 -5 -6 -6 -5 -5 -4 -4 -4 -3 -2 -3 -3 -3 -2
-13 -8 -4 -6 -9 -8 -5 -5 -5 -4 -4 -6 -7 -6 -6 -8 -8 -7 -7 -5 -5 -6 -4 -5 -7 -7 -5 -4 -4 -5 -4 -5 -7 -10 -10 -6 -6 -5 -5 -5 -4 -4 -4 -4 -5 -4 -4 -4 -3 -3 -3 -3 -3 -3
-9 -7 -9 -8 -4 -5 -5 -4 -5 -6 -6 -6 -8 -7 -7 -6 -6 -7 -8 -7 -7 -6 -5 -5 -5 -3 -4 -4 -4 -4 -6 -9 -9 -9 -8 -7 -6 -5 -4 -4 -3 -4 -3 -3 -4 -4 -4 -5 -4 -4 -4 -4 -3 -3
-13 -11 -8 -7 -6 -3 -4 -4 -6 -7 -7 -5 -5 -5 -5 -5 -5 -5 -5 -6 -6 -5 -4 -4 -3 -3 -4 -5 -5 -7 -8 -9 -8 -7 -7 -6 -5 -6 -5 -4 -4 -4 -3 -3 -5 -4 -4 -4 -5 -4 -5 -4 -4 -4
-15 -14 -12 -10 -7 -7 -6 -5 -6 -6 -7 -6 -5 -4 -4 -4 -5 -4 -4 -4 -5 -5 -4 -4 -4 -5 -5 -8 -8 -8 -9 -8 -6 -5 -8 -9 -9 -7 -5 -4 -4 -4 -4 -4 -4 -4 -4 -5 -5 -5 -5 -5 -5 -5
-12 -13 -13 -13 -11 -9 -8 -6 -4 -4 -4 -4 -5 -4 -4 -5 -5 -4 -4 -3 -4 -3 -4 -5 -6 -8 -9 -9 -9 -9 -8 -6 -7 -8 -6 -7 -8 -7 -5 -4 -4 -4 -4 -4 -4 -4 -5 -5 -5 -5 -5 -6 -6 -6
-7 -9 -11 -10 -10 -9 -6 -5 -4 -4 -4 -4 -4 -4 -3 -4 -4 -3 -3 -3 -3 -4 -5 -6 -6 -6 -5 -5 -6 -6 -7 -8 -8 -8 -8 -7 -7 -6 -4 -4 -4 -4 -4 -4 -4 -4 -5 -5 -5 -6 -6 -6 -6 -6
-6 -7 -8 -7 -8 -9 -7 -4 -3 -4 -4 -5 -4 -4 -5 -5 -4 -3 -3 -3 -3 -3 -3 -3 -3 -3 -3 -2 -2 -4 -5 -6 -6 -6 -6 -5 -4 -4 -3 -4 -5 -4 -4 -4 -4 -5 -5 -5 -5 -6 -6 -6 -6 -6
-6 -6 -7 -6 -6 -7 -5 -5 -4 -4 -5 -5 -4 -5 -6 -5 -3 -2 -3 -4 -4 -5 -6 -8 -11 -11 -7 -4 -3 -3 -3 -3 -3 -4 -4 -3 -3 -3 -4 -5 -4 -5 -4 -4 -4 -4 -5 -5 -5 -5 -6 -6 -6 -6
-6 -6 -6 -11 -6 -6 -8 -9 -8 -6 -5 -7 -6 -7 -8 -5 -4 -4 -4 -4 -4 -5 -8 -8 -10 -10 -9 -11 -6 -4 -3 -3 -3 -3 -3 -3 -3 -4 -5 -4 -4 -4 -5 -4 -4 -4 -4 -5 -5 -5 -5 -6 -6 -6
-9 -7 -6 -7 -7 -6 -7 -6 -9 -8 -7 -7 -9 -9 -6 -5 -5 -6 -5 -4 -4 -5 -6 -7 -8 -8 -8 -10 -9 -5 -4 -3 -4 -4 -4 -4 -4 -5 -5 -6 -6 -5 -5 -5 -5 -5 -5 -5 -5 -5 -5 -6 -6 -6
-7 -10 -6 -6 -5 -6 -7 -9 -8 -7 -8 -10 -9 -8 -7 -7 -6 -7 -5 -4 -4 -6 -7 -7 -7 -7 -7 -8 -10 -7 -4 -4 -4 -4 -4 -5 -5 -5 -5 -6 -5 -5 -5 -6 -6 -5 -5 -5 -5 -5 -5 -6 -6 -6
-6 -6 -8 -7 -6 -7 -8 -9 -9 -8 -8 -8 -7 -6 -7 -7 -7 -5 -6 -7 -8 -8 -9 -9 -7 -6 -7 -8 -9 -8 -5 -5 -4 -5 -5 -5 -5 -6 -6 -6 -6 -6 -6 -6 -6 -6 -6 -6 -6 -6 -6 -6 -6 -7
-7 -7 -7 -10 -9 -8 -8 -8 -9 -9 -9 -8 -7 -7 -8 -10 -9 -8 -8 -8 -8 -9 -8 -8 -9 -8 -9 -9 -8 -8 -6 -5 -5 -5 -5 -6 -6 -6 -7 -7 -8 -8 -7 -6 -6 -6 -7 -7 -7 -7 -7 -7 -7 -7
-8 -7 -7 -10 -11 -9 -10 -10 -9 -9 -10 -9 -8 -8 -8 -8 -8 -8 -8 -8 -9 -9 -9 -9 -9 -8 -8 -7 -7 -7 -6 -6 -6 -6 -6 -6 -6 -7 -7 -7 -8 -8 -8 -8 -7 -7 -8 -8 -8 -8 -8 -8 -8 -8
-7 -7 -7 -8 -9 -9 -10 -9 -12 -11 -10 -9 -9 -8 -8 -8 -8 -8 -9 -9 -10 -10 -10 -9 -9 -9 -9 -8 -8 -7 -7 -7 -7 -7 -7 -7 -7 -7 -7 -7 -7 -8 -8 -9 -9 -9 -9 -9 -9 -9 -9 -9 -9 -9
-8 -8 -8 -8 -8 -9 -9 -11 -9 -8 -8 -8 -9 -9 -8 -8 -8 -9 -10 -10 -11 -10 -10 -9 -9 -8 -8 -7 -7 -7 -7 -7 -7 -7 -8 -8 -8 -8 -8 -8 -8 -8 -9 -10 -9 -9 -9 -9 -10 -10 -10 -10 -10 -10
-13 -13 -9 -10 -10 -11 -12 -9 -9 -11 -10 -10 -9 -8 -8 -9 -9 -9 -10 -11 -11 -11 -10 -10 -9 -9 -10 -10 -9 -9 -9 -9 -8 -8 -8 -9 -9 -9 -9 -8 -9 -9 -9 -9 -10 -10 -10 -10 -10 -10 -10 -10 -11 -11

GFSWCAN_850_dewp_168.txt.gz
Dewpoint
-5 -5 -6 -4 -4 -2 -3 -7 -7 -8 -7 -4 -4 -3 -3 -4 -7 -7 -3 -6 -4 -4 -6 -5 -5 -7 -7 -5 -5 -4 -5 -4 0 3 3 1 2 -2 -1 -4 -4 -4 1 1 2 2 1 -1 -3 -2 -1 -3 -3 -4
-6 -8 -6 -5 -4 -5 -2 -3 -7 -7 -7 -7 -4 -3 -3 -3 -4 -6 -3 -6 -6 -4 -6 -4 -4 -5 -6 -6 -5 -4 -7 -7 -4 -3 -2 -4 -4 -2 2 1 -3 1 -2 -2 -0 0 -1 -1 -1 -1 -1 -1 -2 -3
-3 -3 -5 -5 -4 -5 -5 -2 -3 -8 -7 -7 -5 -4 -4 -3 -4 -4 -3 -5 -4 -3 -5 -6 -6 -6 -7 -7 -8 -5 -6 -6 -6 -4 -3 -3 -3 -1 3 -1 -3 -4 -4 -0 0 -3 -3 -4 -0 1 0 -1 -1 -2
-3 -4 -4 -3 -3 -5 -5 -3 -2 -7 -7 -6 -6 -6 -3 -3 -3 -4 -4 -5 -4 -6 -5 -9 -7 -6 -9 -7 -4 -4 -5 -6 -5 -4 -2 -0 -1 -4 -3 1 -2 -4 -4 -3 -3 -5 -5 -3 -1 -2 -1 -2 -3 -3
-4 -3 -4 -5 -4 -4 -4 -3 -2 -6 -7 -6 -5 -5 -3 -2 -3 -3 -4 -5 -4 -6 -6 -7 -6 -6 -4 -6 -5 -5 -4 -4 -4 -4 -3 -3 -4 1 1 -2 -3 -5 -4 -3 -2 -6 -4 -5 -6 -3 -1 -2 -2 -2
-4 -4 -4 -4 -4 -4 -4 -3 -2 -5 -5 -4 -4 -4 -3 -3 -4 -4 -4 -6 -7 -6 -5 -6 -8 -7 -7 -8 -7 -6 -4 -3 -3 -4 -4 -6 -6 -3 -4 -5 -6 -6 -6 -7 -6 -7 -5 -4 -5 -5 -4 -5 -2 -1
-4 -7 -5 -4 -4 -3 -3 -3 -3 -4 -5 -4 -4 -3 -3 -4 -5 -5 -6 -5 -8 -5 -5 -6 -7 -8 -6 -8 -6 -4 -3 -2 -2 -3 -4 -6 -4 -2 -2 -3 -7 -6 -6 -7 -7 -6 -6 -8 -8 -9 -8 -7 -3 -2
-3 -3 -3 -3 -3 -3 -3 -4 -5 -6 -4 -4 -3 -4 -5 -6 -6 -6 -6 -7 -6 -4 -6 -5 -7 -7 -5 -5 -3 -2 -2 -2 -2 -3 -6 -5 -6 -5 -3 -7 -6 -6 -7 -8 -7 -7 -7 -7 -6 -6 -7 -6 -5 -5
-3 -3 -3 -3 -4 -5 -6 -6 -6 -5 -4 -4 -5 -5 -5 -5 -5 -5 -6 -7 -5 -5 -4 -4 -7 -7 -3 -3 -2 -2 -1 -1 -2 -3 -5 -4 -4 -1 -4 -5 -7 -8 -8 -9 -8 -7 -7 -6 -7 -8 -7 -7 -6 -6
-4 -4 -5 -5 -6 -6 -6 -5 -5 -4 -4 -6 -6 -7 -7 -5 -7 -7 -4 -5 -4 -4 -5 -5 -7 -4 -4 -2 -2 -1 -1 0 -0 -2 -4 -1 -3 -5 -5 -6 -7 -6 -6 -7 -5 -7 -5 -5 -5 -5 -5 -4 -4 -4
-4 -6 -7 -7 -6 -6 -5 -5 -5 -5 -6 -7 -11 -5 -6 -7 -4 -4 -5 -5 -5 -4 -6 -7 -8 -6 -6 -4 -3 -3 0 -1 0 -0 -1 -0 -3 -4 -6 -7 -6 -9 -4 -4 -4 -4 -3 -3 -2 -1 -1 -2 -4 -4
-5 -5 -7 -6 -5 -5 -5 -5 -5 -6 -9 -11 -8 -6 -5 -4 -5 -5 -5 -5 -5 -7 -7 -4 -5 -6 -4 -4 -1 -2 -1 -3 -4 -3 -1 -3 -5 -7 -7 -7 -3 -2 -2 -2 -3 -2 -3 -5 -5 -5 -5 -4 -4 -4
-5 -5 -5 -6 -6 -5 -5 -6 -7 -10 -11 -10 -5 -4 -4 -5 -4 -6 -5 -5 -4 -5 -5 -3 -1 -2 -1 -2 -1 -2 -2 -2 -4 -2 -4 -6 -7 -8 -6 -3 -1 -1 -2 -2 -3 -4 -5 -7 -5 -4 -5 -4 -4 -3
-5 -5 -6 -7 -6 -5 -6 -7 -10 -11 -11 -6 -6 -4 -6 -3 -4 -3 -6 -6 -6 -5 -5 -4 -1 -1 -2 -1 -2 -2 -3 -4 -3 -2 -5 -6 -7 -5 -4 -3 -5 -5 -4 -4 -4 -5 -6 -5 -5 -4 -4 -3 -3 -3
-8 -9 -9 -8 -6 -7 -9 -9 -10 -10 -8 -5 -4 -4 -4 -5 -4 -4 -4 -4 -4 -4 -4 -2 -1 -2 -3 -2 -3 -4 -2 -3 -4 -6 -6 -5 -5 -6 -9 -7 -5 -5 -5 -6 -6 -6 -6 -6 -6 -5 -3 -2 -2 -3
-8 -8 -6 -8 -7 -8 -7 -8 -8 -8 -7 -4 -4 -4 -6 -5 -3 -4 -4 -3 -3 -3 -2 -2 -2 -3 -2 -3 -4 -4 -6 -6 -6 -5 -4 -6 -10 -7 -5 -5 -5 -5 -5 -5 -5 -5 -5 -5 -5 -5 -3 -3 -3 -3
-9 -8 -8 -8 -6 -7 -6 -6 -6 -7 -4 -5 -4 -4 -4 -5 -4 -4 -4 -3 -4 -3 -1 -5 -6 -5 -5 -4 -5 -5 -4 -6 -6 -5 -5 -7 -6 -6 -6 -6 -6 -5 -4 -4 -4 -4 -4 -4 -5 -5 -4 -4 -3 -3
-8 -7 -8 -8 -5 -5 -4 -5 -4 -4 -5 -5 -5 -4 -5 -5 -3 -3 -5 -5 -4 -4 -3 -5 -6 -6 -4 -6 -6 -5 -5 -3 -5 -10 -9 -9 -7 -6 -5 -5 -4 -4 -4 -3 -3 -4 -5 -4 -4 -5 -4 -4 -4 -4
-10 -9 -8 -6 -5 -5 -6 -5 -5 -5 -6 -5 -4 -5 -5 -4 -5 -5 -4 -4 -4 -4 -3 -4 -4 -5 -6 -6 -5 -4 -3 -4 -5 -3 -7 -7 -6 -5 -6 -6 -5 -4 -4 -4 -3 -4 -4 -4 -5 -5 -4 -4 -4 -4
-13 -12 -9 -5 -4 -4 -5 -4 -5 -4 -6 -4 -4 -4 -4 -4 -3 -5 -4 -3 -4 -5 -5 -5 -6 -7 -6 -5 -5 -5 -4 -5 -5 -4 -6 -6 -8 -10 -10 -7 -5 -4 -4 -4 -4 -4 -4 -5 -5 -5 -5 -5 -5 -5
-9 -9 -8 -5 -4 -4 -5 -4 -4 -3 -3 -4 -4 -4 -4 -3 -3 -3 -3 -3 -3 -4 -5 -6 -5 -5 -5 -5 -5 -5 -5 -6 -6 -4 -4 -4 -6 -6 -8 -7 -5 -4 -4 -4 -4 -4 -4 -5 -5 -5 -5 -5 -6 -6
-6 -7 -8 -7 -7 -7 -4 -4 -4 -4 -4 -4 -4 -4 -4 -4 -4 -3 -3 -3 -3 -3 -3 -3 -3 -3 -3 -3 -3 -3 -3 -4 -5 -5 -6 -7 -6 -6 -6 -5 -4 -4 -4 -4 -4 -4 -4 -5 -5 -5 -6 -6 -6 -6
-6 -6 -6 -7 -7 -8 -6 -5 -3 -4 -3 -4 -4 -4 -4 -4 -4 -4 -3 -3 -3 -4 -5 -5 -6 -7 -8 -7 -3 -3 -3 -3 -4 -4 -4 -6 -6 -5 -4 -4 -4 -4 -5 -4 -4 -4 -4 -5 -5 -5 -6 -6 -6 -6
-6 -6 -7 -6 -6 -5 -5 -5 -4 -4 -4 -5 -5 -7 -7 -4 -3 -3 -4 -3 -4 -5 -5 -6 -7 -8 -8 -8 -8 -6 -4 -4 -3 -3 -3 -4 -4 -4 -3 -3 -4 -4 -5 -4 -4 -4 -5 -5 -5 -5 -6 -6 -6 -6
-6 -6 -6 -7 -6 -6 -5 -5 -6 -6 -4 -5 -5 -5 -5 -5 -5 -6 -5 -4 -4 -4 -5 -6 -7 -7 -7 -7 -8 -8 -7 -4 -4 -4 -4 -4 -4 -3 -4 -5 -5 -4 -4 -5 -5 -5 -4 -4 -5 -5 -5 -5 -6 -6
-5 -6 -6 -6 -5 -6 -6 -5 -5 -5 -6 -5 -6 -7 -6 -6 -6 -5 -5 -3 -4 -4 -5 -7 -7 -7 -8 -8 -7 -7 -9 -5 -4 -4 -4 -4 -4 -4 -4 -5 -5 -5 -5 -5 -5 -5 -5 -5 -5 -5 -5 -5 -6 -6
-6 -6 -6 -6 -6 -6 -6 -7 -8 -7 -6 -6 -7 -6 -6 -5 -5 -4 -4 -5 -6 -7 -7 -7 -7 -7 -7 -7 -6 -7 -9 -6 -5 -4 -4 -5 -5 -5 -5 -5 -5 -5 -5 -5 -5 -5 -5 -5 -5 -5 -5 -6 -6 -6
-6 -6 -7 -7 -7 -6 -6 -6 -7 -7 -7 -8 -8 -7 -6 -6 -6 -6 -7 -8 -8 -8 -9 -9 -8 -8 -8 -8 -8 -8 -8 -6 -5 -5 -5 -5 -6 -6 -6 -6 -6 -6 -6 -6 -6 -6 -6 -6 -6 -6 -6 -6 -6 -6
-6 -7 -7 -7 -7 -7 -6 -6 -7 -8 -8 -8 -7 -8 -8 -7 -8 -8 -8 -9 -9 -9 -8 -9 -9 -9 -8 -8 -8 -7 -7 -6 -6 -6 -6 -5 -6 -6 -6 -7 -8 -8 -8 -7 -6 -6 -7 -7 -7 -7 -7 -7 -7 -7
-9 -8 -7 -7 -7 -6 -6 -7 -7 -9 -9 -9 -9 -9 -8 -7 -8 -8 -9 -10 -11 -10 -9 -9 -8 -8 -9 -9 -8 -8 -8 -6 -6 -6 -6 -6 -6 -7 -7 -7 -7 -8 -8 -8 -8 -7 -7 -8 -8 -8 -8 -8 -8 -8
-11 -8 -8 -9 -10 -8 -8 -9 -11 -14 -12 -10 -9 -8 -7 -8 -9 -9 -9 -11 -11 -10 -10 -10 -10 -9 -8 -8 -8 -7 -7 -7 -7 -7 -7 -7 -7 -7 -7 -8 -8 -8 -8 -9 -9 -9 -9 -9 -9 -9 -9 -8 -9 -9
-14 -11 -11 -12 -12 -9 -8 -10 -12 -10 -9 -8 -7 -9 -8 -8 -8 -10 -11 -11 -11 -11 -11 -10 -10 -10 -9 -9 -8 -8 -8 -8 -7 -7 -8 -8 -9 -9 -9 -8 -8 -9 -9 -9 -9 -9 -9 -9 -9 -9 -9 -9 -9 -10
-16 -15 -14 -12 -10 -10 -14 -13 -11 -8 -8 -9 -8 -8 -8 -8 -9 -10 -11 -11 -12 -12 -11 -11 -10 -10 -10 -9 -9 -8 -8 -8 -8 -8 -8 -9 -10 -9 -9 -9 -9 -9 -9 -9 -10 -10 -10 -10 -10 -10 -10 -10 -10 -10

GFSWCAN_850_dewp_171.txt.gz
Dewpoint
-5 -5 -6 -2 -2 -2 -2 -3 -8 -8 -8 -5 -4 -2 -2 -4 -6 -6 -4 -2 -5 -4 -6 -6 -6 -8 -8 -7 -5 -5 -5 -2 -2 -0 0 1 1 0 -1 -3 -5 -6 -2 0 0 2 1 -1 -2 1 0 -1 -2 -3
-3 -3 -4 -3 -2 -2 -3 -2 -3 -8 -8 -9 -6 -4 -2 -2 -3 -6 -3 -3 -2 -4 -5 -4 -5 -6 -7 -8 -8 -8 -8 -7 -5 -2 -0 -3 -3 -0 -1 -0 0 1 -3 -3 -1 1 1 1 -3 -2 -1 0 -1 -1
-3 -3 -3 -4 -5 -4 -3 -3 -2 -4 -8 -7 -8 -4 -4 -3 -2 -4 -3 -2 -2 -3 -4 -5 -5 -6 -5 -6 -7 -7 -9 -8 -7 -7 -4 -4 -0 -4 -1 -3 -1 -1 -6 -2 -2 -4 -5 -6 -3 -3 -1 1 1 0
-4 -5 -3 -3 -5 -6 -4 -4 -3 -3 -7 -6 -7 -5 -3 -5 -3 -3 -3 -2 -3 -4 -5 -7 -8 -7 -7 -7 -6 -6 -7 -8 -6 -6 -4 -2 -5 -5 -4 -4 -4 -2 0 -4 -4 -5 -6 -4 -4 -3 -1 -1 -2 -1
-4 -4 -4 -3 -3 -4 -4 -4 -4 -2 -6 -7 -6 -6 -4 -4 -3 -3 -3 -3 -3 -4 -5 -6 -8 -7 -7 -7 -7 -6 -6 -6 -5 -5 -3 -3 -7 -4 -4 -5 -2 -4 -4 -1 -0 -6 -4 -4 -4 -6 -7 -2 -1 -2
-4 -4 -4 -4 -3 -3 -4 -3 -3 -2 -6 -6 -6 -5 -5 -4 -3 -3 -3 -3 -3 -5 -4 -5 -10 -10 -9 -9 -6 -7 -6 -6 -6 -6 -5 -6 -8 -7 -4 -5 -6 -9 -8 -7 -5 -7 -7 -6 -6 -8 -9 -9 -8 -7
-4 -4 -3 -4 -5 -4 -3 -3 -4 -2 -6 -5 -4 -4 -4 -2 -3 -3 -3 -3 -4 -4 -4 -6 -8 -10 -9 -9 -9 -8 -9 -8 -5 -5 -5 -6 -8 -6 -4 -3 -8 -9 -8 -8 -7 -8 -7 -7 -8 -10 -9 -9 -9 -7
-4 -4 -4 -4 -4 -4 -3 -3 -3 -4 -4 -3 -4 -4 -2 -2 -4 -4 -8 -9 -4 -4 -5 -5 -8 -10 -10 -6 -6 -7 -6 -5 -4 -5 -5 -5 -8 -7 -2 -7 -9 -9 -9 -8 -9 -10 -9 -10 -10 -10 -9 -9 -9 -9
-2 -3 -3 -3 -3 -3 -4 -3 -3 -3 -3 -3 -3 -4 -4 -4 -4 -3 -5 -7 -5 -4 -4 -5 -7 -7 -8 -7 -5 -3 -3 -1 -5 -3 -6 -5 -5 -4 -7 -9 -9 -8 -8 -11 -11 -10 -10 -9 -8 -8 -8 -8 -8 -8
-4 -4 -4 -4 -3 -3 -4 -4 -3 -3 -3 -4 -4 -4 -5 -3 -5 -6 -5 -5 -5 -4 -4 -5 -9 -5 -8 -4 -2 -2 -1 -1 -1 -3 -7 -3 -4 -9 -9 -8 -6 -8 -8 -8 -9 -8 -9 -9 -7 -6 -5 -4 -4 -3
-6 -7 -7 -7 -6 -6 -5 -4 -4 -4 -5 -5 -6 -4 -4 -6 -4 -4 -5 -5 -6 -5 -7 -10 -11 -8 -10 -4 -6 -4 -2 -0 -1 -4 -4 -3 -4 -6 -9 -8 -7 -6 -7 -8 -7 -7 -5 -4 -2 -2 -2 -1 -1 -1
-6 -6 -5 -5 -5 -4 -4 -5 -5 -4 -5 -6 -5 -5 -4 -4 -5 -5 -6 -7 -6 -9 -12 -8 -9 -8 -8 -4 -4 -4 -2 -1 1 -3 -1 -3 -6 -8 -7 -7 -6 -6 -4 -5 -3 -3 -2 -2 -3 -3 -2 -2 -3 -4
-5 -5 -5 -5 -5 -5 -5 -5 -5 -10 -8 -6 -5 -4 -6 -6 -5 -6 -7 -8 -7 -8 -6 -5 -3 -2 -4 -3 -2 0 -1 -0 -5 1 -1 -6 -7 -7 -7 -7 -5 -3 -2 -2 -3 -3 -2 -2 -4 -7 -6 -5 -4 -4
-7 -6 -5 -5 -5 -5 -6 -9 -11 -7 -6 -6 -5 -5 -6 -6 -7 -8 -8 -7 -6 -6 -5 -6 -4 0 -1 -0 -0 -0 -3 -4 -1 -1 -7 -6 -7 -7 -5 -3 -3 -2 -7 -6 -4 -4 -6 -6 -7 -7 -7 -6 -4 -3
-7 -7 -6 -6 -6 -6 -9 -10 -11 -6 -5 -6 -5 -4 -5 -6 -4 -5 -3 -2 -4 -5 -5 -4 -3 -1 0 -0 -3 -4 -3 -3 -5 -6 -4 -5 -5 -4 -3 -3 -2 -2 -5 -6 -6 -6 -6 -6 -6 -6 -6 -6 -4 -3
-9 -7 -4 -6 -6 -8 -9 -9 -7 -6 -6 -5 -5 -4 -6 -3 -2 -2 -3 -3 -1 -3 -3 -3 0 -1 -1 -2 -5 -4 -8 -8 -6 -5 -3 -4 -3 -5 -6 -6 -6 -6 -7 -7 -6 -5 -4 -4 -4 -4 -5 -5 -4 -3
-5 -3 -7 -6 -6 -7 -7 -4 -4 -5 -5 -6 -5 -5 -4 -5 -5 -4 -4 -4 -3 -2 0 -2 -3 -4 -5 -5 -6 -7 -5 -7 -6 -5 -6 -6 -5 -4 -7 -7 -7 -7 -6 -6 -5 -4 -4 -3 -3 -4 -3 -3 -4 -4
-4 -4 -8 -6 -5 -5 -4 -4 -4 -4 -5 -6 -4 -4 -3 -3 -3 -4 -3 -5 -5 -3 -3 -1 -3 -6 -4 -7 -7 -6 -6 -5 -4 -4 -4 -4 -9 -8 -6 -5 -6 -5 -6 -4 -4 -3 -3 -4 -4 -4 -3 -4 -4 -4
-5 -4 -8 -8 -5 -4 -4 -4 -4 -5 -6 -6 -4 -4 -4 -3 -3 -3 -4 -4 -5 -6 -6 -6 -3 -3 -5 -6 -4 -5 -5 -5 -5 -4 -5 -4 -5 -7 -6 -5 -5 -7 -5 -4 -3 -2 -3 -3 -4 -3 -4 -5 -4 -5
-13 -13 -8 -6 -5 -4 -5 -5 -3 -5 -6 -4 -4 -4 -4 -4 -4 -3 -3 -3 -2 -2 -6 -8 -8 -10 -6 -6 -6 -6 -6 -5 -6 -7 -7 -7 -4 -6 -8 -10 -5 -3 -2 -2 -3 -3 -3 -4 -4 -4 -5 -5 -5 -5
-10 -7 -5 -4 -4 -4 -4 -5 -4 -5 -3 -3 -4 -5 -5 -4 -4 -3 -3 -3 -2 -3 -4 -5 -4 -3 -3 -3 -3 -3 -3 -4 -4 -5 -6 -6 -3 -4 -3 -2 -2 -2 -3 -2 -3 -3 -4 -4 -4 -4 -5 -5 -5 -5
-3 -6 -4 -5 -3 -4 -4 -6 -5 -4 -4 -5 -5 -4 -4 -4 -4 -4 -3 -3 -4 -3 -3 -3 -3 -3 -4 -4 -3 -3 -3 -3 -2 -2 -3 -4 -4 -4 -3 -2 -2 -2 -3 -3 -3 -3 -4 -4 -4 -5 -5 -5 -6 -6
-4 -4 -4 -4 -4 -6 -6 -5 -4 -5 -4 -5 -5 -5 -5 -6 -6 -4 -4 -5 -3 -4 -4 -5 -7 -7 -8 -8 -8 -6 -6 -5 -4 -3 -2 -2 -3 -3 -2 -3 -3 -3 -3 -3 -3 -4 -4 -4 -4 -5 -5 -6 -6 -6
-5 -4 -4 -4 -6 -5 -5 -5 -5 -5 -5 -6 -7 -9 -11 -7 -6 -6 -6 -4 -4 -4 -4 -6 -7 -8 -8 -8 -8 -8 -7 -5 -4 -4 -3 -3 -3 -3 -3 -3 -3 -3 -4 -4 -4 -4 -4 -4 -5 -5 -5 -6 -6 -6
-4 -5 -4 -5 -5 -5 -4 -4 -4 -6 -5 -7 -8 -8 -7 -7 -7 -8 -8 -4 -4 -4 -5 -7 -7 -7 -8 -8 -8 -7 -7 -6 -5 -5 -4 -4 -4 -4 -4 -4 -4 -4 -4 -4 -5 -5 -5 -5 -5 -5 -5 -5 -6 -6
-5 -5 -5 -5 -6 -6 -7 -7 -7 -6 -8 -7 -7 -8 -7 -7 -7 -7 -4 -3 -5 -7 -7 -6 -7 -7 -8 -8 -8 -7 -6 -6 -6 -5 -4 -4 -4 -4 -4 -4 -4 -4 -5 -5 -5 -5 -5 -5 -5 -5 -5 -5 -6 -6
-6 -7 -9 -8 -9 -9 -8 -7 -8 -8 -8 -8 -7 -7 -8 -7 -7 -4 -5 -6 -7 -7 -7 -7 -7 -7 -7 -7 -7 -6 -6 -7 -8 -5 -5 -5 -5 -5 -5 -5 -5 -5 -6 -5 -5 -6 -5 -5 -5 -5 -5 -6 -6 -6
-6 -8 -7 -6 -7 -7 -7 -7 -7 -6 -6 -7 -8 -6 -7 -7 -4 -6 -7 -7 -8 -8 -8 -8 -8 -8 -8 -8 -8 -8 -8 -8 -6 -6 -5 -5 -6 -6 -6 -6 -6 -6 -6 -6 -6 -6 -6 -6 -6 -6 -6 -6 -6 -6
-8 -13 -10 -6 -8 -6 -6 -7 -6 -6 -7 -11 -8 -7 -8 -5 -7 -7 -8 -9 -9 -9 -9 -9 -9 -8 -7 -8 -8 -8 -8 -7 -6 -6 -6 -5 -5 -6 -6 -7 -8 -8 -8 -8 -7 -7 -7 -7 -7 -7 -7 -7 -7 -7
-14 -14 -13 -9 -7 -9 -7 -6 -7 -9 -10 -9 -9 -9 -9 -7 -9 -9 -9 -9 -10 -10 -10 -10 -9 -9 -9 -8 -7 -7 -7 -7 -7 -7 -6 -5 -6 -6 -7 -7 -7 -7 -8 -8 -8 -8 -8 -8 -8 -8 -8 -7 -7 -8
-15 -14 -14 -14 -12 -14 -12 -8 -7 -9 -9 -7 -8 -7 -7 -7 -9 -10 -10 -10 -10 -10 -10 -11 -10 -10 -10 -9 -9 -8 -7 -8 -7 -7 -7 -7 -7 -7 -7 -8 -8 -8 -8 -8 -9 -9 -8 -8 -8 -8 -8 -9 -9 -9
-16 -16 -14 -12 -13 -15 -13 -10 -9 -11 -11 -10 -10 -7 -6 -7 -7 -9 -11 -11 -11 -11 -12 -12 -12 -11 -10 -10 -9 -9 -8 -8 -8 -8 -8 -8 -9 -9 -9 -8 -8 -8 -8 -9 -9 -9 -9 -9 -9 -9 -9 -10 -10 -10
-17 -17 -15 -12 -13 -15 -16 -15 -16 -17 -15 -12 -9 -7 -7 -7 -9 -10 -11 -12 -12 -12 -13 -13 -12 -11 -11 -10 -10 -10 -10 -9 -9 -9 -9 -9 -10 -10 -9 -9 -9 -9 -9 -9 -9 -9 -10 -10 -9 -10 -10 -10 -10 -10

GFSWCAN_850_dewp_174.txt.gz
Dewpoint
-3 -3 -3 -5 -6 -5 -2 -2 -4 -7 -8 -6 -4 -4 -3 -2 -4 -5 -4 -4 -3 -3 -5 -7 -7 -8 -10 -10 -8 -8 -4 -2 -3 -1 -1 -0 2 1 -1 -3 -5 -4 1 4 2 2 1 1 -1 2 1 -2 -2 -1
-2 -2 -3 -3 -4 -4 -2 -2 -2 -5 -8 -8 -8 -5 -3 -2 -3 -5 -4 -4 -3 -2 -3 -3 -4 -4 -5 -6 -6 -6 -4 -7 -4 -2 -1 -2 -1 -4 -2 0 -4 -0 0 4 1 -1 2 1 1 -1 -3 -2 -0 1
-4 -3 -2 -2 -3 -3 -2 -2 -2 -2 -6 -8 -7 -6 -3 -2 -2 -4 -3 -2 -2 -2 -4 -5 -6 -6 -5 -6 -5 -6 -10 -9 -5 -3 -3 -3 -4 -5 -2 -1 1 -3 -2 1 2 -4 -2 1 1 -0 -1 -1 -0 1
-4 -3 -3 -3 -3 -3 -2 -2 -2 -2 -4 -7 -7 -8 -5 -4 -2 -3 -3 -3 -2 -2 -3 -6 -7 -7 -6 -6 -6 -6 -7 -8 -7 -5 -3 -2 -3 -7 -5 -4 -0 -4 -5 -1 1 -4 -5 -4 -4 -4 -5 -1 -2 -1
-4 -4 -4 -3 -2 -3 -2 -2 -2 -2 -2 -6 -6 -7 -6 -4 -4 -2 -3 -3 -3 -2 -1 -5 -7 -7 -8 -7 -7 -7 -6 -7 -7 -6 -3 -3 -6 -4 -5 -5 -4 -7 -5 3 2 -3 -3 -5 -4 -4 -6 -8 -3 -2
-4 -4 -4 -4 -3 -3 -5 -3 -4 -4 -2 -5 -6 -6 -5 -4 -4 -3 -3 -3 -3 -2 -2 -4 -8 -9 -9 -8 -7 -7 -8 -7 -6 -6 -5 -6 -7 -7 -5 -5 -9 -9 -8 -3 -6 -6 -7 -8 -7 -7 -8 -10 -10 -9
-4 -4 -4 -3 -3 -3 -5 -3 -3 -2 -2 -5 -5 -5 -5 -3 -3 -3 -2 -2 -5 -3 -3 -5 -7 -10 -9 -10 -9 -9 -8 -8 -7 -5 -5 -5 -6 -6 -3 -3 -8 -9 -10 -11 -10 -8 -7 -7 -8 -9 -11 -10 -10 -10
-3 -3 -4 -4 -3 -3 -3 -3 -3 -2 -3 -5 -5 -4 -3 -3 -3 -3 -4 -3 -3 -4 -5 -5 -7 -10 -10 -8 -6 -8 -8 -7 -7 -6 -6 -5 -6 -5 -2 -6 -7 -7 -7 -8 -8 -8 -9 -10 -10 -11 -10 -10 -10 -10
-4 -4 -4 -5 -3 -3 -2 -3 -3 -3 -3 -3 -3 -3 -3 -3 -3 -4 -6 -5 -4 -3 -5 -6 -7 -7 -11 -8 -5 -5 -5 -3 -4 -4 -4 -5 -4 -1 -7 -10 -11 -10 -10 -9 -8 -11 -11 -11 -10 -9 -10 -10 -8 -6
-3 -4 -4 -3 -3 -3 -3 -3 -3 -3 -3 -4 -3 -4 -3 -3 -4 -5 -4 -4 -3 -4 -4 -5 -9 -5 -8 -6 -3 -4 -4 -3 -3 -4 -7 -3 -4 -7 -8 -10 -10 -9 -6 -7 -9 -9 -9 -8 -8 -7 -5 -4 -2 -1
-4 -3 -3 -3 -3 -3 -3 -3 -3 -4 -5 -4 -4 -3 -4 -6 -4 -4 -4 -5 -6 -6 -8 -9 -10 -7 -10 -5 -5 -2 -3 -2 -2 -4 -3 -5 -4 -5 -9 -9 -10 -8 -8 -9 -8 -9 -8 -5 -4 -3 -2 -2 -1 -1
-6 -5 -4 -4 -4 -4 -3 -3 -4 -4 -4 -4 -5 -5 -4 -4 -5 -6 -6 -7 -7 -10 -13 -10 -10 -11 -9 -8 -5 -6 -6 -6 -2 -1 -2 -3 -5 -8 -8 -8 -8 -10 -8 -6 -5 -5 -3 -2 -2 -2 -2 -3 -4 -6
-6 -5 -5 -4 -4 -4 -4 -5 -6 -7 -6 -5 -5 -5 -6 -6 -5 -6 -7 -9 -8 -10 -8 -5 -4 -4 -4 -4 -4 -3 -2 -1 -2 -0 0 -2 -4 -7 -7 -7 -8 -9 -5 -4 -3 -3 -3 -2 -4 -6 -7 -7 -6 -6
-5 -5 -5 -5 -5 -6 -8 -8 -6 -6 -5 -6 -5 -5 -6 -6 -7 -9 -10 -8 -7 -5 -3 -2 -3 -1 -1 -1 -2 1 -1 -4 -0 -0 -3 -2 -6 -7 -5 -3 -3 -2 -2 -3 -3 -5 -6 -7 -8 -7 -7 -6 -6 -6
-5 -5 -5 -6 -6 -8 -11 -11 -10 -6 -6 -7 -7 -7 -7 -10 -7 -4 -2 -3 -3 -3 -2 -2 -3 -3 -1 0 -2 -1 -3 -2 -4 -2 1 -3 -4 -3 -2 -3 -2 -3 -7 -6 -6 -8 -7 -6 -5 -4 -4 -4 -4 -4
-6 -6 -5 -6 -7 -9 -11 -9 -7 -6 -6 -6 -6 -5 -6 -3 -2 -2 -2 -2 -3 -2 -1 -2 -1 0 -0 -1 -3 -3 -6 -8 -5 -1 -3 -3 -5 -4 -4 -4 -4 -6 -7 -7 -7 -7 -6 -4 -3 -3 -3 -4 -4 -4
-3 -3 -7 -7 -8 -8 -8 -4 -5 -4 -6 -7 -5 -5 -4 -4 -4 -3 -3 -4 -4 -1 -1 0 0 -0 -3 -1 -2 -6 -4 -2 -2 -4 -5 -5 -4 -2 -5 -6 -7 -7 -7 -6 -6 -4 -3 -3 -3 -3 -4 -4 -4 -4
-6 -3 -7 -7 -7 -5 -4 -4 -5 -5 -6 -6 -4 -4 -3 -3 -3 -4 -3 -2 -4 -6 -4 -0 -3 -4 -3 -5 -5 -4 -4 -4 -4 -3 -3 -3 -6 -4 -5 -4 -5 -7 -6 -6 -5 -5 -3 -2 -3 -3 -4 -4 -4 -4
-3 -3 -5 -7 -5 -5 -4 -4 -4 -6 -7 -6 -5 -4 -3 -3 -3 -3 -3 -3 -4 -5 -5 -7 -5 -4 -4 -1 -2 -3 -3 -3 -4 -4 -4 -6 -7 -7 -7 -6 -2 -3 -7 -7 -4 -2 -2 -3 -3 -3 -3 -4 -4 -4
-9 -11 -8 -5 -5 -3 -6 -5 -4 -5 -7 -5 -4 -4 -4 -3 -4 -3 -3 -4 -4 -2 -4 -6 -8 -5 -3 -3 -2 -3 -3 -4 -4 -4 -4 -5 -6 -4 -5 -5 -4 -3 -2 -2 -2 -3 -3 -3 -4 -3 -4 -4 -5 -5
-6 -6 -6 -5 -4 -4 -4 -4 -4 -5 -4 -4 -4 -4 -5 -4 -3 -3 -3 -4 -3 -4 -4 -2 -2 -2 -3 -3 -3 -2 -2 -2 -2 -2 -1 -2 -2 -3 -2 -2 -3 -2 -2 -2 -2 -3 -3 -3 -3 -4 -4 -4 -5 -5
-3 -4 -5 -5 -4 -4 -4 -6 -6 -4 -4 -6 -6 -6 -5 -3 -3 -4 -3 -4 -5 -3 -3 -3 -4 -5 -5 -6 -6 -5 -5 -5 -4 -3 -3 -2 -2 -2 -3 -4 -3 -3 -2 -2 -3 -3 -3 -3 -4 -4 -4 -5 -6 -6
-5 -4 -4 -4 -4 -5 -6 -5 -3 -6 -4 -5 -4 -3 -5 -5 -7 -5 -5 -5 -3 -4 -4 -5 -6 -7 -7 -7 -7 -8 -7 -6 -5 -4 -4 -3 -3 -2 -2 -2 -2 -2 -2 -3 -3 -3 -4 -4 -4 -4 -5 -5 -6 -6
-5 -4 -4 -4 -4 -3 -4 -5 -5 -7 -7 -6 -6 -6 -10 -8 -7 -7 -7 -4 -4 -4 -4 -6 -7 -7 -7 -7 -7 -7 -7 -6 -6 -5 -4 -4 -4 -3 -3 -3 -3 -3 -4 -4 -4 -4 -4 -4 -4 -5 -5 -6 -6 -6
-4 -4 -5 -5 -5 -5 -5 -5 -5 -5 -4 -7 -8 -9 -8 -9 -8 -9 -9 -3 -4 -5 -6 -6 -6 -7 -7 -7 -7 -7 -6 -5 -5 -6 -5 -4 -4 -4 -4 -4 -4 -4 -4 -4 -4 -5 -5 -5 -5 -5 -6 -6 -6 -6
-4 -4 -5 -6 -7 -7 -6 -7 -6 -7 -9 -8 -8 -9 -8 -8 -8 -8 -4 -6 -6 -7 -6 -7 -7 -7 -8 -7 -7 -7 -6 -6 -6 -7 -5 -5 -5 -4 -4 -4 -4 -4 -5 -5 -5 -5 -5 -5 -5 -5 -6 -6 -6 -6
-5 -6 -7 -8 -7 -8 -8 -10 -9 -9 -8 -7 -7 -7 -7 -5 -7 -4 -6 -7 -7 -8 -8 -8 -8 -7 -8 -8 -8 -8 -8 -8 -8 -7 -7 -6 -5 -5 -5 -5 -5 -5 -6 -6 -6 -6 -5 -5 -5 -6 -6 -5 -6 -6
-6 -12 -11 -10 -6 -7 -5 -6 -5 -5 -4 -7 -9 -6 -4 -4 -5 -6 -8 -8 -8 -8 -9 -9 -8 -8 -8 -7 -8 -7 -7 -7 -7 -7 -6 -6 -5 -6 -6 -6 -6 -6 -7 -7 -6 -6 -6 -6 -6 -6 -6 -6 -6 -6
-15 -14 -14 -11 -12 -7 -6 -6 -6 -6 -7 -7 -7 -7 -7 -6 -7 -8 -8 -9 -9 -9 -9 -9 -9 -9 -9 -10 -8 -7 -6 -7 -7 -7 -6 -5 -5 -6 -6 -6 -7 -7 -7 -7 -7 -7 -7 -7 -7 -7 -7 -7 -7 -7
-17 -16 -14 -14 -12 -8 -8 -9 -9 -10 -9 -7 -8 -8 -7 -7 -9 -9 -9 -10 -10 -10 -10 -10 -10 -10 -10 -9 -10 -10 -8 -8 -8 -8 -7 -7 -7 -7 -7 -7 -7 -8 -8 -8 -8 -8 -8 -8 -7 -7 -7 -7 -8 -8
-16 -14 -14 -15 -13 -14 -13 -12 -10 -11 -11 -8 -8 -8 -8 -8 -9 -10 -11 -11 -11 -11 -11 -12 -11 -11 -11 -11 -10 -10 -10 -9 -8 -8 -8 -8 -8 -8 -8 -8 -8 -8 -8 -8 -9 -9 -8 -9 -9 -8 -9 -9 -9 -9
-16 -16 -15 -13 -13 -14 -9 -10 -14 -13 -12 -11 -10 -10 -8 -6 -8 -10 -12 -12 -12 -12 -12 -12 -12 -12 -11 -11 -11 -10 -10 -10 -10 -10 -9 -9 -9 -9 -10 -9 -9 -9 -9 -9 -9 -9 -9 -9 -9 -9 -10 -10 -10 -10
-17 -17 -16 -12 -15 -16 -15 -13 -14 -15 -15 -13 -13 -10 -7 -9 -10 -11 -12 -12 -12 -12 -12 -12 -12 -11 -12 -11 -11 -11 -11 -10 -10 -10 -10 -10 -10 -10 -9 -9 -9 -9 -9 -9 -9 -10 -10 -10 -10 -10 -10 -11 -11 -11